[[{"header":{"parameterUnit":"m.s-1","parameterCategory":1,"la1":31.0,"la2":29.5877,"lo1":-88.7671,"lo2":-86.6584,"dy":0.0162,"dx":0.0185,"nx":115,"ny":88,"refTime":"2026-05-09T12:00:00:Z","depth":0,"parameterNumber":2,"parameterNumberName":"U-component_of_WINDS"},"data":[0.0,0.0,0.0,0.0,0.0,0.0,0.0,0.0,0.0,0.0,0.0,0.0,0.0,0.0,0.0,0.0,0.0,0.0,0.0,0.0,0.0,0.0,0.0,0.0,0.0,0.0,0.0,0.0,0.0,0.0,0.0,0.0,0.0,0.0,0.0,0.0,0.0,0.0,0.0,0.0,0.0,0.0,0.0,0.0,0.0,0.0,0.0,0.0,0.0,0.0,0.0,0.0,0.0,0.0,0.0,0.0,0.0,0.0,0.0,0.0,0.0,0.0,0.0,0.0,0.0,0.0,0.0,0.0,0.0,0.0,0.0,0.0,0.0,0.0,0.0,0.0,0.0,0.0,0.0,0.0,0.0,0.0,0.0,0.0,0.0,0.0,0.0,0.0,0.0,0.0,0.0,0.0,0.0,0.0,0.0,0.0,0.0,0.0,0.0,0.0,0.0,0.0,0.0,0.0,0.0,0.0,0.0,0.0,0.0,0.0,0.0,0.0,0.0,0.0,0.0,0.0,0.0,0.0,0.0,0.0,0.0,0.0,0.0,0.0,0.0,0.0,0.0,0.0,0.0,0.0,0.0,0.0,0.0,0.0,0.0,0.0,0.0,0.0,0.0,0.0,0.0,0.0,0.0,0.0,0.0,0.0,0.0,0.0,0.0,0.0,0.0,0.0,0.0,0.0,0.0,0.0,0.0,0.0,0.0,0.0,0.0,0.0,0.0,0.0,0.0,0.0,0.0,0.0,0.0,0.0,0.0,0.0,0.0,0.0,0.0,0.0,0.0,0.0,0.0,0.0,0.0,0.0,0.0,0.0,0.0,0.0,0.0,0.0,0.0,0.0,0.0,0.0,0.0,0.0,0.0,0.0,0.0,0.0,0.0,0.0,0.0,0.0,0.0,0.0,0.0,0.0,0.0,0.0,0.0,0.0,0.0,0.0,0.0,0.0,0.0,0.0,0.0,0.0,0.0,0.0,0.0,0.0,0.0,0.0,0.0,0.0,0.0,0.0,0.0,0.0,0.0,0.0,0.0,0.0,0.0,0.0,0.0,0.0,0.0,0.0,0.0,0.0,0.0,0.0,0.0,0.0,0.0,0.0,0.0,0.0,0.0,0.0,0.0,0.0,0.0,0.0,0.0,0.0,0.0,0.0,0.0,0.0,0.0,0.0,0.0,0.0,0.0,0.0,0.0,0.0,0.0,0.0,0.0,0.0,0.0,0.0,0.0,0.0,0.0,0.0,0.0,0.0,0.0,0.0,0.0,0.0,0.0,0.0,0.0,0.0,0.0,0.0,0.0,0.0,0.0,0.0,0.0,0.0,0.0,0.0,0.0,0.0,0.0,0.0,0.0,0.0,0.0,0.0,0.0,0.0,0.0,0.0,0.0,0.0,0.0,0.0,0.0,0.0,0.0,0.0,0.0,0.0,0.0,0.0,0.0,0.0,0.0,0.0,0.0,0.0,0.0,0.0,0.0,0.0,0.0,0.0,0.0,0.0,0.0,0.0,0.0,0.0,0.0,0.0,0.0,0.0,0.0,0.0,0.0,0.0,0.0,0.0,0.0,0.0,0.0,0.0,0.0,0.0,0.0,0.0,0.0,0.0,0.0,0.0,0.0,0.0,0.0,0.0,0.0,0.0,0.0,0.0,0.0,0.0,0.0,0.0,0.0,0.0,0.0,0.0,0.0,0.0,0.0,0.0,0.0,0.0,0.0,0.0,0.0,0.0,0.0,0.0,0.0,0.0,0.0,0.0,0.0,0.0,0.0,0.0,0.0,0.0,0.0,0.0,0.0,0.0,0.0,0.0,0.0,0.0,0.0,0.0,0.0,0.0,0.0,0.0,0.0,0.0,0.0,0.0,0.0,0.0,0.0,0.0,0.0,0.0,0.0,0.0,0.0,0.0,0.0,0.0,0.0,0.0,0.0,0.0,0.0,0.0,0.0,0.0,0.0,0.0,0.0,0.0,0.0,0.0,0.0,0.0,0.0,0.0,0.0,0.0,0.0,0.0,0.0,0.0,0.0,0.0,0.0,0.0,0.0,0.0,0.0,0.0,0.0,0.0,0.0,0.0,0.0,0.0,0.0,0.0,0.0,0.0,0.0,0.0,0.0,0.0,0.0,0.0,0.0,0.0,0.0,0.0,0.0,0.0,0.0,0.0,0.0,0.0,0.0,0.0,0.0,0.0,0.0,0.0,0.0,0.0,0.0,0.0,0.0,0.0,0.0,0.0,0.0,0.0,0.0,0.0,0.0,0.0,0.0,0.0,0.0,0.0,0.0,0.0,0.0,0.0,0.0,0.0,0.0,0.0,0.0,0.0,0.0,0.0,0.0,0.0,0.0,0.0,0.0,0.0,0.0,0.0,0.0,0.0,0.0,0.0,0.0,0.0,0.0,0.0,0.0,0.0,0.0,0.0,0.0,0.0,0.0,0.0,0.0,0.0,0.0,0.0,0.0,0.0,0.0,0.0,0.0,0.0,0.0,0.0,0.0,0.0,0.0,0.0,0.0,0.0,0.0,0.0,0.0,0.0,0.0,0.0,0.0,0.0,0.0,0.0,0.0,0.0,0.0,0.0,0.0,0.0,0.0,0.0,0.0,0.0,0.0,0.0,0.0,0.0,0.0,0.0,0.0,0.0,0.0,0.0,0.0,0.0,0.0,0.0,0.0,0.0,0.0,0.0,0.0,0.0,0.0,0.0,0.0,0.0,0.0,0.0,0.0,0.0,0.0,0.0,0.0,0.0,0.0,0.0,0.0,0.0,0.0,0.0,0.0,0.0,0.0,0.0,0.0,0.0,0.0,0.0,0.0,0.0,0.0,0.0,0.0,0.0,0.0,0.0,0.0,0.0,0.0,0.0,0.0,0.0,0.0,0.0,0.0,0.0,0.0,0.0,0.0,0.0,0.0,0.0,0.0,0.0,0.0,0.0,0.0,0.0,0.0,0.0,0.0,0.0,0.0,0.0,0.0,0.0,0.0,0.0,0.0,0.0,0.0,0.0,0.0,0.0,0.0,0.0,0.0,0.0,0.0,0.0,0.0,0.0,0.0,0.0,0.0,0.0,0.0,0.0,0.0,0.0,0.0,0.0,0.0,0.0,0.0,0.0,0.0,0.0,0.0,0.0,0.0,0.0,0.0,0.0,0.0,0.0,0.0,0.0,0.0,0.0,0.0,0.0,0.0,0.0,0.0,0.0,0.0,0.0,0.0,0.0,0.0,0.0,0.0,0.0,0.0,0.0,0.0,0.0,0.0,0.0,0.0,0.0,0.0,0.0,0.0,0.0,0.0,0.0,0.0,0.0,0.0,0.0,0.0,0.0,0.0,0.0,0.0,0.0,0.0,0.0,0.0,0.0,0.0,0.0,0.0,0.0,0.0,0.0,0.0,0.0,0.0,0.0,0.0,0.0,0.0,0.0,0.0,0.0,0.0,0.0,0.0,0.0,0.0,0.0,0.0,0.0,0.0,0.0,0.0,0.0,0.0,0.0,0.0,0.0,0.0,0.0,0.0,0.0,0.0,0.0,0.0,0.0,0.0,0.0,0.0,0.0,0.0,0.0,0.0,0.0,0.0,0.0,0.0,0.0,0.0,0.0,0.0,0.0,0.0,0.0,0.0,0.0,0.0,0.0,0.0,0.0,0.0,0.0,0.0,0.0,0.0,0.0,0.0,0.0,0.0,0.0,0.0,0.0,0.0,0.0,0.0,0.0,0.0,0.0,0.0,0.0,0.0,0.0,0.0,0.0,0.0,0.0,0.0,0.0,0.0,0.0,0.0,0.0,0.0,0.0,0.0,0.0,0.0,0.0,0.0,0.0,0.0,0.0,0.0,0.0,0.0,0.0,0.0,0.0,0.0,0.0,0.0,0.0,0.0,0.0,0.0,0.0,0.0,0.0,0.0,0.0,0.0,0.0,0.0,0.0,0.0,0.0,0.0,0.0,0.0,0.0,0.0,0.0,0.0,0.0,0.0,0.0,0.0,0.0,0.0,0.0,0.0,0.0,0.0,0.0,0.0,0.0,0.0,0.0,0.0,0.0,0.0,0.0,0.0,0.0,0.0,0.0,0.0,0.0,0.0,0.0,0.0,0.0,0.0,0.0,0.0,0.0,0.0,0.0,0.0,0.0,0.0,0.0,0.0,0.0,0.0,0.0,0.0,0.0,0.0,0.0,0.0,0.0,0.0,0.0,0.0,0.0,0.0,0.0,0.0,0.0,0.0,0.0,0.0,0.0,0.0,0.0,0.0,0.0,0.0,0.0,0.0,0.0,0.0,0.0,0.0,0.0,0.0,0.0,0.0,0.0,0.0,0.0,0.0,0.0,0.0,0.0,0.0,0.0,0.0,0.0,0.0,0.0,0.0,0.0,0.0,0.0,0.0,0.0,0.0,0.0,0.0,0.0,0.0,0.0,0.0,0.0,0.0,0.0,0.0,0.0,0.0,0.0,0.0,0.0,0.0,0.0,0.0,0.0,0.0,0.0,0.0,0.0,0.0,0.0,0.0,0.0,0.0,0.0,0.0,0.0,0.0,0.0,0.0,0.0,0.0,0.0,0.0,0.0,0.0,0.0,0.0,0.0,0.0,0.0,0.0,0.0,0.0,0.0,0.0,0.0,0.0,0.0,0.0,0.0,0.0,0.0,0.0,0.0,0.0,0.0,0.0,0.0,0.0,0.0,0.0,0.0,0.0,0.0,0.0,0.0,0.0,0.0,0.0,0.0,0.0,0.0,0.0,0.0,0.0,0.0,0.0,0.0,0.0,0.0,0.0,0.0,0.0,0.0,0.0,0.0,0.0,0.0,0.0,0.0,0.0,0.0,0.0,0.0,0.0,0.0,0.0,0.0,0.0,0.0,0.0,0.0,0.0,0.0,0.0,0.0,0.0,0.0,0.0,0.0,0.0,0.0,0.0,0.0,0.0,0.0,0.0,0.0,0.0,0.0,0.0,0.0,0.0,0.0,0.0,0.0,0.0,0.0,0.0,0.0,0.0,0.0,0.0,0.0,0.0,0.0,0.0,0.0,0.0,0.0,0.0,0.0,0.0,0.0,0.0,0.0,0.0,0.0,0.0,0.0,0.0,0.0,0.0,0.0,0.0,0.0,0.0,0.0,0.0,0.0,0.0,0.0,0.0,0.0,0.0,0.0,0.0,0.0,0.0,0.0,0.0,0.0,0.0,0.0,0.0,0.0,0.0,0.0,0.0,0.0,0.0,0.0,0.0,0.0,0.0,0.0,0.0,0.0,0.0,0.0,0.0,0.0,0.0,0.0,0.0,0.0,0.0,0.0,-0.3129,-0.2122,-0.0077,0.0,0.0,0.0,0.0,0.0,0.0,0.0,0.0,0.0,0.0,0.0,0.0,0.0,0.0,0.0,0.0,0.0,0.0,0.0,0.0,0.0,0.0,0.0,0.0,0.0,0.0,0.0,0.0,0.0,0.0,0.0,0.0,0.0,0.0,0.0,0.0,0.0,0.0,0.0,0.0,0.0,0.0,0.0,0.0,0.0,0.0,0.0,0.0,0.0,0.0,0.0,0.0,0.0,0.0,0.0,0.0,0.0,0.0,0.0,0.0,0.0,0.0,0.0,0.0,0.0,0.0,0.0,0.0,0.0,0.0,0.0,0.0,0.0,0.0,0.0,0.0,0.0,0.0,0.0,0.0,0.0,0.0,0.0,0.0,0.0,0.0,0.0,0.0,0.0,0.0,0.0,0.0,0.0,0.0,0.0,0.0,0.0,0.0,0.0,0.0,0.0,0.0,0.0,0.0,0.0,0.0,0.0,0.0,0.0,0.0,-0.4009,-1.2233,-1.2442,0.0,-0.0787,0.0,0.0,0.0,0.0,0.0,0.0,0.0,0.0,0.0,0.0,0.0,0.0,0.0,0.0,0.0,0.0,0.0,0.0,0.0,0.0,0.0,0.0,0.0,0.0,0.0,0.0,0.0,0.0,0.0,0.0,0.0,0.0,0.0,0.0,0.0,0.0,0.0,0.0,0.0,0.0,0.0,0.0,0.0,0.0,0.0,0.0,0.0,0.0,0.0,0.0,0.0,0.0,0.0,0.0,0.0,0.0,0.0,0.0,0.0,0.0,0.0,0.0,0.0,0.0,0.0,0.0,0.0,0.0,0.0,0.0,0.0,0.0,0.0,0.0,0.0,0.0,0.0,0.0,0.0,0.0,0.0,0.0,0.0,0.0,0.0,0.0,0.0,0.0,0.0,0.0,0.0,0.0,0.0,0.0,0.0,0.0,0.0,0.0,0.0,0.0,0.0,0.0,0.0,0.0,0.0,0.0,0.0,0.0,0.0,0.0,-0.8417,-0.9169,-1.2187,-1.2023,0.0,0.0,0.0,0.0,0.0,0.0,0.0,0.0,0.0,0.0,0.0,0.0,0.0,0.0,0.0,0.0,0.0,0.0,0.0,0.0,0.0,0.0,0.0,0.0,0.0,0.0,0.0,0.0,0.0,0.0,0.0,0.0,0.0,0.0,0.0,0.0,0.0,0.0,0.0,0.0,0.0,0.0,0.0,0.0,0.0,0.0,0.0,0.0,0.0,0.0,0.0,0.0,0.0,0.0,0.0,0.0,0.0,0.0,0.0,0.0,0.0,0.0,0.0,0.0,0.0,0.0,0.0,0.0,0.0,0.0,0.0,0.0,0.0,0.0,0.0,0.0,0.0,0.0,0.0,0.0,0.0,0.0,0.0,0.0,0.0,0.0,0.0,0.0,0.0,0.0,0.0,0.0,0.0,0.0,0.0,0.0,0.0,0.0,0.0,0.0,0.0,0.0,0.0,0.0,0.0,0.0,0.0,0.0,0.0,0.0,-0.7861,-1.1205,-0.8131,-1.1405,-1.3539,-1.3749,0.0,0.0,0.0,0.0,0.0,0.0,0.0,0.0,0.0,0.0,0.0,0.0,0.0,0.0,0.0,0.0,0.0,0.0,0.0,0.0,0.0,0.0,0.0,0.0,0.0,0.0,0.0,0.0,0.0,0.0,0.0,0.0,0.0,0.0,0.0,0.0,0.0,0.0,0.0,0.0,0.0,0.0,0.0,0.0,0.0,0.0,0.0,0.0,0.0,0.0,0.0,0.0,0.0,0.0,0.0,0.0,0.0,0.0,0.0,0.0,0.0,0.0,0.0,0.0,0.0,0.0,0.0,0.0,0.0,0.0,0.0,0.0,0.0,0.0,0.0,0.0,0.0,0.0,0.0,0.0,0.0,0.0,0.0,0.0,0.0,0.0,0.0,0.0,0.0,0.0,0.0,0.0,0.0,0.0,0.0,0.0,0.0,0.0,0.0,0.0,0.0,0.0,0.0,0.0,0.0,0.0,0.0,0.0,-0.0182,-0.7224,-1.1313,-1.1803,-1.2283,-1.2896,0.0,0.0,0.0,0.0,0.0,0.0,0.0,0.0,0.0,0.0,0.0,0.0,0.0,0.0,0.0,0.0,0.0,0.0,0.0,0.0,0.0,0.0,0.0,0.0,0.0,0.0,0.0,0.0,0.0,0.0,0.0,0.0,0.0,0.0,0.0,0.0,0.0,0.0,0.0,0.0,0.0,0.0,0.0,0.0,0.0,0.0,0.0,0.0,0.0,0.0,0.0,0.0,0.0,0.0,0.0,0.0,0.0,0.0,0.0,0.0,0.0,0.0,0.0,0.0,0.0,0.0,0.0,0.0,0.0,0.0,0.0,0.0,0.0,0.0,0.0,0.0,0.0,0.0,0.0,0.0,0.0,0.0,0.0,0.0,0.0,0.0,0.0,0.0,0.0,0.0,0.0,0.0,0.0,0.0,0.0,0.0,0.0,0.0,0.0,0.0,0.0,0.0,0.0,0.0,0.0,0.0,0.0,0.0,0.0,0.1217,-0.3398,-0.6769,-0.8599,-1.0962,-1.2437,0.0,0.0,0.0,0.0,0.0,0.0,0.0,0.0,0.0,0.0,0.0,0.0,0.0,0.0,0.0,0.0,0.0,0.0,0.0,0.0,0.0,0.0,0.0,0.0,0.0,0.0,0.0,0.0,0.0,0.0,0.0,0.0,0.0,0.0,0.0,0.0,0.0,0.0,0.0,0.0,0.0,0.0,0.0,0.0,0.0,0.0,0.0,0.0,0.0,0.0,0.0,0.0,0.0,0.0,0.0,0.0,0.0,0.0,0.0,0.0,0.0,0.0,0.0,0.0,0.0,0.0,0.0,0.0,0.0,0.0,0.0,0.0,0.0,0.0,0.0,0.0,0.0,0.0,0.0,0.0,0.0,0.0,0.0,0.0,0.0,0.0,0.0,0.0,0.0,0.0,0.0,0.0,0.0,0.0,0.0,0.0,0.0,0.0,0.0,0.0,0.0,0.0,0.0,0.0,0.0,0.0,0.0,0.0,0.0,0.0498,0.0,-0.4632,-0.6255,-0.9453,-1.0294,0.0,0.0,0.0,0.0,0.0,0.0,0.0,0.0,0.0,0.0,0.0,0.0,0.0,0.0,0.0,0.0,0.0,0.0,0.0,0.0,0.0,0.0,0.0,0.0,0.0,0.0,0.0,0.0,0.0,0.0,0.0,0.0,0.0,0.0,0.0,0.0,0.0,0.0,0.0,0.0,0.0,0.0,0.0,0.0,0.0,0.0,0.0,0.0,0.0,0.0,0.0,0.0,0.0,0.0,0.0,0.0,0.0,0.0,0.0,0.0,0.0,0.0,0.0,0.0,0.0,0.0,0.0,0.0,0.0,0.0,0.0,0.0,0.0,0.0,0.0,0.0,0.0,0.0,0.0,0.0,0.0,0.0,0.0,0.0,0.0,0.0,0.0,0.0,0.0,0.0,0.0,0.0,0.0,0.0,0.0,0.0,0.0,0.0,0.0,0.0,0.0,0.0,0.0,0.0,0.0,0.0,0.0,0.0,-0.3546,-0.2953,-0.4531,-0.5458,-0.559,-0.785,-0.63,0.0,0.0,0.0,0.0,0.0,0.0,0.0,0.0,0.0,0.0,0.0,0.0,0.0,0.0,0.0,0.0,0.0,0.0,0.0,0.0,0.0,0.0,0.0,0.0,0.0,0.0,0.0,0.0,0.0,0.0,0.0,0.0,0.0,0.0,0.0,0.0,0.0,0.0,0.0,0.0,0.0,0.0,0.0,0.0,0.0,0.0,0.0,0.0,0.0,0.0,0.0,0.0,0.0,0.0,0.0,0.0,0.0,0.0,0.0,0.0,0.0,0.0,0.0,0.0,0.0,0.0,0.0,0.0,0.0,0.0,0.0,0.0,0.0,0.0,0.0,0.0,0.0,0.0,0.0,0.0,0.0,0.0,0.0,0.0,0.0,0.0,0.0,0.0,0.0,0.0,0.0,0.0,0.0,0.0,0.0,0.0,0.0,0.0,0.0,0.0,0.0,0.0,0.0,0.0,0.0,0.0,0.0,0.0,0.0,-0.3923,-0.4627,-0.5534,-0.6576,-0.5232,-0.3953,0.0,0.0,0.0,0.0,0.0,0.0,0.0,0.0,0.0,0.0,0.0,0.0,0.0,0.0,0.0,0.0,0.0,0.0,0.0,0.0,0.0,0.0,0.0,0.0,0.0,0.0,0.0,0.0,0.0,0.0,0.0,0.0,0.0,0.0,0.0,0.0,0.0,0.0,0.0,0.0,0.0,0.0,0.0,0.0,0.0,0.0,0.0,0.0,0.0,0.0,0.0,0.0,0.0,0.0,0.0,0.0,0.0,0.0,0.0,0.0,0.0,0.0,0.0,0.0,0.0,0.0,0.0,0.0,0.0,0.0,0.0,0.0,0.0,0.0,0.0,0.0,0.0,0.0,0.0,0.0,0.0,0.0,0.0,0.0,0.0,0.0,0.0,0.0,0.0,0.0,0.0,0.0,0.0,0.0,0.0,0.0,0.0,0.0,0.0,0.0,0.0,0.0,0.0,0.0,0.0,0.0,0.0,0.0,0.0,-0.6231,-0.6297,-0.6316,-0.639,-0.4803,-0.4217,-0.4709,0.0,0.0,0.0,0.0,0.0,0.0,0.0,0.0,0.0,0.0,0.0,0.0,0.0,0.0,0.0,0.0,0.0,0.0,0.0,0.0,0.0,0.0,0.0,0.0,0.0,0.0,0.0,0.0,0.0,0.0,0.0,0.0,0.0,0.0,0.0,0.0,0.0,0.0,0.0,0.0,0.0,0.0,0.0,0.0,0.0,0.0,0.0,0.0,0.0,0.0,0.0,0.0,0.0,0.0,0.0,0.0,0.0,0.0,0.0,0.0,0.0,0.0,0.0,0.0,0.0,0.0,0.0,0.0,0.0,0.0,0.0,0.0,0.0,0.0,0.0,0.0,0.0,0.0,0.0,0.0,0.0,0.0,0.0,0.0,0.0,0.0,0.0,0.0,0.0,0.0,0.0,0.0,0.0,0.0,0.0,0.0,0.0,0.0,0.0,0.0,0.0,0.0,0.0,0.0,0.0,0.0,0.0,0.0,-0.9362,-0.9163,-0.7812,-0.535,-0.6146,-0.6412,0.0,0.0,0.0,0.0,0.0,0.0,0.0,0.0,0.0,0.0,0.0,0.0,0.0,0.0,0.0,0.0,0.0,0.0,0.0,0.0,0.0,0.0,0.0,0.0,0.0,0.0,0.0,0.0,0.0,0.0,0.0,0.0,0.0,0.0,0.0,0.0,0.0,0.0,0.0,0.0,0.0,0.0,0.0,0.0,0.0,0.0,0.0,0.0,0.0,0.0,0.0,0.0,0.0,0.0,0.0,0.0,0.0,0.0,0.0,0.0,0.0,0.0,0.0,0.0,0.0,0.0,0.0,0.0,0.0,0.0,0.0,0.0,0.0,0.0,0.0,0.0,0.0,0.0,0.0,0.0,0.0,0.0,0.0,0.0,0.0,0.0,0.0,0.0,0.0,0.0,0.0,0.0,0.0,0.0,0.0,0.0,0.0,0.0,0.0,0.0,0.0,0.0,0.0,0.0,0.0,0.0,0.0,0.0,0.0,-1.0123,-1.0397,-0.9548,-0.7576,-0.6101,-0.5574,0.0,0.0,0.0,0.0,0.0,0.0,0.0,0.0,0.0,0.0,0.0,0.0,0.0,0.0,0.0,0.0,0.0,0.0,0.0,0.0,0.0,0.0,0.0,0.0,0.0,0.0,0.0,0.0,0.0,0.0,0.0,0.0,0.0,0.0,0.0,0.0,0.0,0.0,0.0,0.0,0.0,0.0,0.0,0.0,0.0,0.0,0.0,0.0,0.0,0.0,0.0,0.0,0.0,0.0,0.0,0.0,0.0,0.0,0.0,0.0,0.0,0.0,0.0,0.0,0.0,0.0,0.0,0.0,0.0,0.0,0.0,0.0,0.0,0.0,0.0,0.0,0.0,0.0,0.0,0.0,0.0,0.0,0.0,0.0,0.0,0.0,0.0,0.0,0.0,0.0,0.0,0.0,0.0,0.0,0.0,0.0,0.0,0.0,0.0,0.0,0.0,0.0,0.0,0.0,0.0,0.0,0.0,0.0,-0.9627,-1.0754,-1.0916,-1.039,-0.9107,-0.7122,-0.5939,0.0,0.0,0.0,0.0,0.0,0.0,0.0,0.0,0.0,0.0,0.0,0.0,0.0,0.0,0.0,0.0,0.0,0.0,0.0,0.0,0.0,0.0,0.0,0.0,0.0,0.0,0.0,0.0,0.0,0.0,0.0,0.0,0.0,0.0,0.0,0.0,0.0,0.0,0.0,0.0,0.0,0.0,0.0,0.0,0.0,0.0,0.0,0.0,0.0,0.0,0.0,0.0,0.0,0.0,0.0,0.0,0.0,0.0,0.0,0.0,0.0,0.0,0.0,0.0,0.0,0.0,0.0,0.0,0.0,0.0,0.0,0.0,0.0,0.0,0.0,0.0,0.0,0.0,0.0,0.0,0.0,0.0,0.0,0.0,0.0,0.0,0.0,0.0,0.0,0.0,0.0,0.0,0.0,0.0,0.0,0.0,0.0,0.0,0.0,0.0,0.0,0.0,0.0,0.0,0.0,0.0,0.0,0.0,-0.8818,-1.1187,-1.1032,-1.0662,-0.9938,-0.8471,-0.6823,0.0,0.0,0.0,0.0,0.0,0.0,0.0,0.0,0.0,0.0,0.0,0.0,0.0,0.0,0.0,0.0,0.0,0.0,0.0,0.0,0.0,0.0,0.0,0.0,0.0,0.0,0.0,0.0,0.0,0.0,0.0,0.0,0.0,0.0,0.0,0.0,0.0,0.0,0.0,0.0,0.0,0.0,0.0,0.0,0.0,0.0,0.0,0.0,0.0,0.0,0.0,0.0,0.0,0.0,0.0,0.0,0.0,0.0,0.0,0.0,0.0,0.0,0.0,0.0,0.0,0.0,0.0,0.0,0.0,0.0,0.0,0.0,0.0,0.0,0.0,0.0,0.0,0.0,0.0,0.0,0.0,0.0,0.0,0.0,0.0,0.0,0.0,0.0,0.0,0.0,0.0,0.0,0.0,0.0,0.0,0.0,0.0,0.0,0.0,0.0,0.0,0.0,0.0,0.0,0.0,0.0,0.0,0.0,-0.9129,-1.1069,-1.1552,-1.1185,-0.9837,-0.7883,-0.6266,0.0,0.0,0.0,0.0,0.0,0.0,0.0,0.0,0.0,0.0,0.0,0.0,0.0,0.0,0.0,0.0,0.0,0.0,0.0,0.0,0.0,0.0,0.0,0.0,0.0,0.0,0.0,0.0,0.0,0.0,0.0,0.0,0.0,0.0,0.0,0.0,0.0,0.0,0.0,0.0,0.0,0.0,0.0,0.0,0.0,0.0,0.0,0.0,3.3846,0.0,0.0,0.0,0.0,0.0,0.0,0.0,0.0,0.0,0.0,0.0,0.0,0.0,0.0,0.0,0.0,0.0,0.0,0.0,0.0,0.0,0.0,0.0,0.0,0.0,0.0,0.0,0.0,0.0,0.0,0.0,0.0,0.0,0.0,0.0,0.0,0.0,0.0,0.0,0.0,0.0,0.0,0.0,0.0,0.0,0.0,0.0,0.0,0.0,0.0,0.0,0.0,0.0,0.0,0.0,0.0,0.0,0.0,0.0,-0.9634,-1.188,-1.2417,-1.2182,-1.1016,-0.9332,-0.7324,0.0,0.0,0.0,0.0,0.0,0.0,0.0,0.0,0.0,0.0,0.0,0.0,0.0,0.0,0.0,0.0,0.0,0.0,0.0,0.0,0.0,0.0,0.0,0.0,0.0,0.0,0.0,0.0,0.0,0.0,0.0,0.0,0.0,0.0,0.0,0.0,0.0,0.0,0.0,0.0,0.0,0.0,0.0,0.0,0.0,0.0,0.0,0.0,0.0,0.0,0.0,0.0,0.0,0.0,0.0,0.0,0.0,0.0,0.0,0.0,0.0,0.0,0.0,0.0,0.0,0.0,0.0,0.0,0.0,0.0,0.0,0.0,0.0,0.0,0.0,0.0,0.0,0.0,0.0,0.0,0.0,0.0,0.0,0.0,0.0,0.0,0.0,0.0,0.0,0.0,0.0,0.0,0.0,0.0,0.0,0.0,0.0,0.0,0.0,0.0,0.0,0.0,0.0,0.0,0.0,0.0,0.0,-0.7196,-1.0115,-1.2881,-1.3294,-1.3217,-1.2696,-1.1359,-0.9042,-0.5653,0.0,0.0,0.0,0.0,0.0,0.0,0.0,0.0,0.0,0.0,0.0,0.0,0.0,0.0,0.0,0.0,0.0,0.0,0.0,0.0,0.0,0.0,0.0,0.0,0.0,0.0,0.0,0.0,0.0,0.0,0.0,0.0,0.0,0.0,0.0,0.0,0.0,0.0,3.4211,3.7368,0.0,0.0,0.0,0.0,0.0,0.0,0.0,0.0,3.5996,0.0,0.0,0.0,0.0,0.0,0.0,0.0,0.0,0.0,0.0,0.0,0.0,0.0,0.0,0.0,0.0,0.0,0.0,0.0,0.0,0.0,0.0,0.0,0.0,0.0,0.0,0.0,0.0,0.0,0.0,0.0,0.0,0.0,0.0,0.0,0.0,0.0,0.0,0.0,0.0,0.0,0.0,0.0,0.0,0.0,0.0,0.0,0.0,0.0,0.0,0.0,0.0,0.0,0.0,0.0,0.0,-0.7289,-0.7914,-0.9908,-1.3333,-1.3888,-1.4027,-1.368,-1.249,-1.0517,-0.7683,0.0,0.0,0.0,0.0,0.0,0.0,0.0,0.0,0.0,0.0,0.0,0.0,0.0,0.0,0.0,0.0,0.0,0.0,0.0,0.0,0.0,0.0,0.0,0.0,0.0,0.0,0.0,0.0,0.0,0.0,0.0,0.0,0.0,0.0,0.0,0.0,0.0,0.0,0.0,4.164,4.3396,0.0,0.0,0.0,0.0,0.0,0.0,0.0,0.0,3.6501,0.0,0.0,0.0,0.0,0.0,0.0,0.0,0.0,0.0,0.0,0.0,0.0,0.0,0.0,0.0,0.0,0.0,0.0,0.0,0.0,0.0,0.0,0.0,0.0,0.0,0.0,0.0,0.0,0.0,0.0,0.0,0.0,0.0,0.0,0.0,0.0,0.0,0.0,0.0,0.0,0.0,0.0,0.0,0.0,0.0,0.0,0.0,0.0,0.0,0.0,0.0,0.0,0.0,0.0,0.0,-0.6048,-0.8438,-1.0878,-1.3456,-1.4413,-1.4588,-1.4004,-1.214,-1.0308,0.0,0.0,0.0,0.0,0.0,0.0,0.0,0.0,0.0,0.0,0.0,0.0,0.0,0.0,0.0,0.0,0.0,0.0,0.0,0.0,0.0,0.0,0.0,0.0,0.0,0.0,0.0,0.0,0.0,0.0,0.0,0.0,0.0,0.0,0.0,0.0,0.0,0.0,0.0,0.0,4.1052,4.2107,4.3233,0.0,0.0,0.0,0.0,0.0,0.0,3.6811,3.7326,0.0,0.0,0.0,0.0,0.0,0.0,0.0,0.0,0.0,0.0,0.0,0.0,0.0,0.0,0.0,0.0,0.0,0.0,0.0,0.0,0.0,0.0,0.0,0.0,0.0,0.0,0.0,0.0,0.0,0.0,0.0,0.0,0.0,0.0,0.0,0.0,0.0,0.0,0.0,0.0,0.0,0.0,0.0,0.0,0.0,0.0,0.0,0.0,0.0,0.0,0.0,0.0,0.0,0.0,0.0,-0.4021,-0.7965,-1.0988,-1.298,-1.4199,-1.4458,-1.3785,-1.1563,-0.9642,0.0,0.0,0.0,0.0,0.0,0.0,0.0,0.0,0.0,0.0,0.0,0.0,0.0,0.0,0.0,0.0,0.0,0.0,0.0,0.0,0.0,0.0,0.0,0.0,0.0,0.0,0.0,0.0,0.0,0.0,0.0,0.0,0.0,0.0,0.0,0.0,0.0,0.0,0.0,0.0,0.0,4.0933,4.2613,4.0773,0.0,0.0,0.0,0.0,3.6492,3.7513,0.0,0.0,0.0,0.0,0.0,0.0,0.0,0.0,0.0,0.0,0.0,0.0,0.0,0.0,0.0,0.0,0.0,0.0,0.0,0.0,0.0,0.0,0.0,0.0,0.0,0.0,0.0,0.0,0.0,0.0,0.0,0.0,0.0,0.0,0.0,0.0,0.0,0.0,0.0,0.0,0.0,0.0,0.0,0.0,0.0,0.0,0.0,0.0,0.0,0.0,0.0,0.0,0.0,0.0,0.0,0.0,-0.2516,-0.5183,-0.8119,-1.127,-1.2137,-1.249,-1.2443,-1.1293,-0.9266,0.0,0.0,0.0,0.0,0.0,0.0,0.0,0.0,0.0,0.0,0.0,0.0,0.0,0.0,0.0,0.0,0.0,0.0,0.0,0.0,0.0,0.0,0.0,0.0,0.0,0.0,0.0,0.0,0.0,0.0,0.0,0.0,0.0,0.0,0.0,0.0,0.0,0.0,0.0,0.0,0.0,4.316,4.3467,4.2624,4.1071,0.0,0.0,3.9055,3.7339,3.7854,0.0,0.0,0.0,0.0,0.0,0.0,0.0,0.0,0.0,0.0,0.0,0.0,0.0,0.0,0.0,0.0,0.0,0.0,0.0,0.0,0.0,0.0,0.0,0.0,0.0,0.0,0.0,0.0,0.0,0.0,0.0,0.0,0.0,0.0,0.0,0.0,0.0,0.0,0.0,0.0,0.0,0.0,0.0,0.0,0.0,0.0,0.0,0.0,0.0,0.0,0.0,0.0,0.0,0.0,0.0,0.3878,0.0295,-0.2923,-0.5398,-0.7306,-0.8876,-0.9399,-0.8618,-0.7015,-0.5094,0.0,0.0,0.0,0.0,0.0,0.0,0.0,0.0,0.0,0.0,0.0,0.0,0.0,0.0,0.0,0.0,0.0,0.0,0.0,0.0,0.0,0.0,0.0,0.0,0.0,0.0,0.0,0.0,0.0,0.0,0.0,0.0,0.0,0.0,0.0,0.0,0.0,0.0,0.0,0.0,0.0,0.0,4.3731,4.3293,0.0,0.0,0.0,4.0543,3.8812,0.0,0.0,0.0,0.0,0.0,0.0,0.0,0.0,0.0,0.0,0.0,0.0,0.0,0.0,0.0,0.0,0.0,0.0,0.0,0.0,0.0,0.0,0.0,0.0,0.0,0.0,0.0,0.0,0.0,0.0,0.0,0.0,0.0,0.0,0.0,0.0,0.0,0.0,0.0,0.0,0.0,0.0,0.0,0.0,0.0,0.0,0.0,0.0,0.0,0.0,0.0,0.0,0.0,0.0,0.0,0.0,0.0,0.3585,0.0,-0.2295,-0.3187,-0.4993,-0.5447,-0.4358,-0.258,0.0,0.0,0.0,0.0,0.0,0.0,0.0,0.0,0.0,0.0,0.0,0.0,0.0,0.0,0.0,0.0,0.0,0.0,0.0,0.0,0.0,0.0,0.0,0.0,0.0,0.0,0.0,3.5207,0.0,0.0,0.0,0.0,0.0,0.0,0.0,0.0,0.0,0.0,0.0,0.0,0.0,0.0,4.6729,4.5162,4.5108,4.5245,0.0,0.0,4.2558,4.1111,4.0291,3.8748,0.0,0.0,0.0,0.0,0.0,0.0,0.0,0.0,0.0,0.0,0.0,0.0,0.0,0.0,0.0,0.0,0.0,0.0,0.0,0.0,0.0,0.0,0.0,0.0,0.0,0.0,0.0,0.0,0.0,0.0,0.0,0.0,0.0,0.0,0.0,0.0,0.0,0.0,0.0,0.0,0.0,0.0,0.0,0.0,0.0,0.0,0.0,0.0,0.0,0.0,0.0,0.0,0.0,0.0,0.8508,0.7073,0.429,0.1846,0.025,-0.0363,-0.0581,-0.022,0.0773,0.2866,0.0,0.0,0.0,0.0,0.0,0.0,0.0,0.0,0.0,0.0,0.0,0.0,0.0,0.0,0.0,0.0,0.0,0.0,0.0,0.0,0.0,0.0,0.0,0.0,0.0,0.0,0.0,0.0,0.0,0.0,0.0,0.0,0.0,0.0,0.0,0.0,0.0,0.0,0.0,0.0,0.0,5.0078,4.8746,4.9223,5.0023,0.0,4.7917,4.5436,4.4603,4.2821,3.9841,3.4831,0.0,0.0,0.0,0.0,0.0,0.0,0.0,0.0,0.0,0.0,0.0,0.0,0.0,0.0,0.0,0.0,0.0,0.0,0.0,0.0,0.0,0.0,0.0,0.0,0.0,0.0,0.0,0.0,0.0,0.0,0.0,0.0,0.0,0.0,0.0,0.0,0.0,0.0,0.0,0.0,0.0,0.0,0.0,0.0,0.0,0.0,0.0,0.0,0.0,0.0,0.0,0.0,0.0,1.1651,1.0144,0.7611,0.5859,0.4949,0.4215,0.4261,0.5282,0.6267,0.7944,0.0,0.0,0.0,0.0,0.0,0.0,0.0,0.0,0.0,0.0,0.0,0.0,0.0,0.0,0.0,0.0,0.0,0.0,0.0,0.0,0.0,0.0,0.0,0.0,0.0,0.0,0.0,0.0,3.673,3.6654,3.8963,0.0,0.0,0.0,0.0,0.0,0.0,0.0,0.0,0.0,0.0,5.6162,5.4991,5.5451,0.0,0.0,5.4559,5.2205,4.9353,4.6639,4.3083,3.7948,3.4121,0.0,0.0,0.0,0.0,0.0,0.0,0.0,0.0,0.0,0.0,0.0,0.0,0.0,0.0,0.0,0.0,0.0,0.0,0.0,0.0,0.0,0.0,0.0,0.0,0.0,0.0,0.0,0.0,0.0,0.0,0.0,0.0,0.0,0.0,0.0,0.0,0.0,0.0,0.0,0.0,0.0,0.0,0.0,0.0,0.0,0.0,0.0,0.0,0.0,0.0,0.0,0.0,1.4177,1.2966,1.0671,0.9347,0.894,0.859,0.9068,1.0501,1.1466,1.3051,0.0,0.0,0.0,0.0,0.0,0.0,0.0,0.0,0.0,0.0,0.0,0.0,0.0,0.0,0.0,0.0,0.0,0.0,0.0,0.0,0.0,0.0,0.0,0.0,0.0,0.0,0.0,0.0,3.9868,3.9823,4.1407,0.0,0.0,0.0,0.0,0.0,0.0,0.0,0.0,0.0,0.0,6.1945,6.1189,6.1288,6.1879,6.3075,6.0591,5.7528,5.4593,5.1538,4.7484,4.1384,0.0,0.0,0.0,0.0,0.0,0.0,0.0,0.0,0.0,0.0,0.0,0.0,0.0,0.0,0.0,0.0,0.0,0.0,0.0,0.0,0.0,0.0,0.0,0.0,0.0,0.0,0.0,1.8663,0.0,0.0,1.9373,0.0,0.0,0.0,0.0,0.0,0.0,0.0,0.0,0.0,0.0,0.0,0.0,0.0,0.0,0.0,0.0,0.0,0.0,0.0,0.0,0.0,0.0,1.5965,1.5444,1.3706,1.2445,1.1805,1.2668,1.3726,1.5052,1.6131,1.7944,2.0391,0.0,0.0,0.0,0.0,0.0,0.0,0.0,0.0,0.0,0.0,0.0,0.0,0.0,0.0,0.0,0.0,0.0,0.0,0.0,0.0,0.0,0.0,0.0,0.0,0.0,0.0,4.2369,4.1175,4.0617,0.0,0.0,0.0,0.0,0.0,0.0,0.0,0.0,0.0,6.1898,6.5023,6.6975,6.6975,6.6378,6.7346,7.118,6.5453,6.053,6.0227,5.7649,5.2974,0.0,0.0,0.0,0.0,0.0,0.0,0.0,0.0,0.0,0.0,0.0,0.0,0.0,0.0,0.0,0.0,0.0,0.0,0.0,0.0,0.0,0.0,0.0,0.0,0.0,0.0,0.0,1.6278,1.7172,0.0,0.0,0.0,0.0,0.0,0.0,0.0,0.0,0.0,0.0,0.0,0.7753,0.7324,0.0,0.0,0.0,0.0,0.0,0.0,0.0,0.0,0.0,0.0,0.0,0.0,1.7621,1.683,1.5336,1.4574,1.4378,1.5843,1.7292,1.8312,2.0,2.1483,2.2848,0.0,0.0,0.0,0.0,0.0,0.0,0.0,0.0,0.0,0.0,0.0,0.0,0.0,0.0,0.0,0.0,0.0,0.0,0.0,0.0,0.0,0.0,0.0,0.0,0.0,4.5806,0.0,0.0,0.0,0.0,0.0,0.0,0.0,0.0,0.0,0.0,0.0,6.1305,6.5065,6.9086,7.2222,7.3605,7.2671,7.2684,0.0,0.0,0.0,0.0,0.0,0.0,0.0,0.0,0.0,0.0,0.0,0.0,0.0,0.0,4.4304,4.2927,4.4554,4.6255,4.6812,0.0,0.0,0.0,0.0,0.0,0.0,0.0,0.0,0.0,0.0,0.0,0.0,0.0,0.0,1.6038,1.7008,1.8139,0.0,0.0,0.0,0.0,0.0,0.0,0.0,0.0,0.5882,0.4854,0.5474,0.6198,0.8712,0.0,1.5116,1.6852,0.0,0.0,0.0,0.0,0.0,0.0,0.0,0.0,1.9486,1.848,1.7391,1.6847,1.6967,1.8927,2.0429,2.152,2.3489,2.4786,2.5306,2.6187,2.6696,0.0,0.0,0.0,0.0,0.0,0.0,0.0,0.0,0.0,0.0,0.0,0.0,0.0,0.0,0.0,0.0,0.0,0.0,0.0,0.0,0.0,0.0,0.0,4.6214,0.0,0.0,0.0,0.0,0.0,0.0,0.0,0.0,0.0,5.611,6.0195,6.4594,6.807,7.2466,7.6206,7.8789,0.0,0.0,0.0,0.0,0.0,0.0,0.0,6.2661,5.6937,5.2427,4.803,4.3439,4.1001,4.0469,4.2893,0.0,0.0,4.5635,4.664,4.8126,4.9127,5.0398,5.1443,5.1007,5.0912,5.077,0.0,0.0,0.0,0.0,0.0,0.0,0.0,0.0,1.3407,1.6028,0.0,1.8192,0.0,0.0,0.0,0.0,1.2543,0.7775,0.0,0.0,0.2263,0.1235,0.3115,0.5826,0.889,1.2131,1.486,1.7931,2.1337,2.148,0.0,0.0,0.0,0.0,0.0,0.0,2.1474,2.0561,1.9697,1.9413,1.9692,2.176,2.3476,2.4417,2.6507,2.7662,2.7778,2.8351,2.8811,2.9052,2.9961,0.0,0.0,0.0,0.0,0.0,0.0,0.0,0.0,0.0,0.0,0.0,0.0,0.0,0.0,0.0,0.0,0.0,0.0,0.0,0.0,4.566,0.0,0.0,0.0,0.0,0.0,0.0,0.0,0.0,0.0,0.0,5.975,6.3471,6.7974,7.1022,0.0,0.0,0.0,0.0,7.9616,8.253,8.0285,7.7375,7.5109,7.2331,6.8449,6.2649,0.0,0.0,4.9486,4.7957,4.752,4.6912,4.8464,4.9133,4.7719,4.8304,4.9335,5.0315,5.1959,5.3359,5.3504,5.3359,5.3091,-1.1702,0.0,0.0,0.0,0.0,0.2635,0.5576,0.8387,1.2825,1.4998,1.5207,1.5431,0.0,0.0,0.0,0.0,0.0,0.0,0.7229,0.6131,0.4754,0.419,0.4266,0.6694,0.966,1.2978,1.6391,1.9842,2.3299,2.4732,2.4835,2.3797,0.0,0.0,0.0,0.0,2.3682,2.2879,2.2108,2.1852,2.2468,2.4371,2.6295,2.8015,2.9398,2.9698,2.9144,3.0673,3.1614,3.1716,3.2853,0.0,0.0,0.0,0.0,0.0,0.0,0.0,0.0,0.0,0.0,0.0,0.0,0.0,0.0,0.0,0.0,0.0,0.0,0.0,4.3169,4.5056,4.6435,0.0,0.0,0.0,0.0,0.0,0.0,0.0,0.0,0.0,7.1881,7.1144,7.1812,0.0,0.0,8.1927,8.3558,8.3456,8.3265,8.3365,8.0936,0.0,7.5865,7.3141,6.9967,6.6058,6.1668,5.7525,5.4451,5.3057,5.2748,5.3677,5.3334,5.2978,5.3654,5.1819,5.0586,5.0696,5.2155,5.3885,5.4761,5.5313,5.5761,-0.7245,-0.5843,-0.5066,-0.2548,0.1321,0.4459,0.7248,0.9742,1.3141,1.4457,1.4131,1.3817,1.3321,1.2514,1.1747,0.0,0.0,0.0,0.8301,0.7106,0.7301,0.7346,0.7245,0.9504,1.2227,1.525,1.8759,2.2024,2.5036,2.7191,2.7952,2.7274,0.0,0.0,2.7515,2.6849,2.6077,2.5381,2.482,2.4651,2.5268,2.7077,2.9074,3.0806,3.1577,3.174,3.1444,3.3257,3.4427,3.4822,3.6274,3.7405,0.0,0.0,0.0,0.0,0.0,0.0,0.0,0.0,0.0,0.0,0.0,4.262,4.4234,0.0,0.0,0.0,4.3045,4.2891,4.3872,4.6134,0.0,0.0,0.0,0.0,0.0,0.0,0.0,6.4382,7.0156,7.514,7.916,7.8193,7.7462,7.8636,8.149,8.375,8.4583,0.0,8.5201,8.43,8.1378,7.8741,7.7422,7.4837,7.1898,6.8742,6.4701,6.1433,6.0147,5.8543,5.7574,5.7658,5.7066,5.6541,5.6999,5.4928,5.2876,5.2187,5.2944,5.4239,5.5701,5.6598,5.7512,-0.1361,0.133,0.1114,0.231,0.4804,0.7906,1.0718,1.2904,1.4129,1.4356,1.3907,1.2926,1.1896,1.0799,0.9592,0.0,0.9317,0.9331,0.9333,0.9003,1.0032,1.0816,1.1496,1.3742,1.6138,1.8611,2.1756,2.4478,2.6664,2.9064,3.0815,3.1651,3.1085,3.0756,3.0598,2.9559,2.8563,2.794,2.7538,2.7704,2.8177,3.0148,3.18,3.3165,3.3374,3.3875,3.4428,3.5939,3.7269,3.8315,4.0042,4.0997,4.1031,0.0,0.0,0.0,0.0,0.0,0.0,0.0,0.0,0.0,0.0,0.0,0.0,0.0,0.0,0.0,4.6006,0.0,4.5832,4.8242,0.0,0.0,0.0,5.5014,5.7791,6.1426,6.5817,7.137,0.0,0.0,8.2863,8.4368,8.4368,8.1839,8.3493,8.512,8.5834,8.6246,8.6181,8.5585,8.2015,7.9374,7.9325,7.7005,7.4158,7.13,6.9011,6.7213,6.5929,6.4172,6.2119,6.0528,6.0307,6.0132,5.873,5.7716,5.634,5.4844,5.4358,5.4817,5.657,5.774,5.9171,0.2509,0.6259,0.8137,0.8548,0.8502,1.2479,1.4342,1.449,1.4708,1.4296,1.3264,1.1998,1.0675,0.9454,0.9428,1.018,1.1513,1.2228,1.2936,1.3268,1.4119,1.499,1.6028,1.8417,2.0142,2.1829,2.4704,2.705,2.875,3.0385,3.2194,3.3916,3.3771,3.3247,3.2385,3.1732,3.105,3.0095,3.0131,3.0743,3.2175,3.3462,3.4527,3.5602,3.6231,3.6752,3.7185,3.9118,4.0639,4.136,4.2478,4.3318,4.3772,4.1878,0.0,0.0,0.0,0.0,0.0,0.0,0.0,0.0,0.0,4.99,4.9457,0.0,4.9373,0.0,5.1522,4.8955,4.4989,4.8176,0.0,0.0,5.7332,6.1002,6.5318,6.9574,7.3416,7.6731,8.4498,8.905,8.7387,9.0133,9.149,8.9549,8.8668,8.8317,8.8692,8.9058,8.882,8.7159,8.476,8.2334,8.0738,7.8233,7.6093,7.5142,7.3094,7.1115,6.9713,6.8766,6.7612,6.6138,6.5933,6.5287,6.3904,6.1821,5.9668,5.7881,5.6553,5.6321,5.8732,6.0195,6.1968,0.5921,0.9552,1.2417,1.3457,1.321,1.572,1.6405,1.6015,1.5432,1.4238,1.2644,1.1026,1.0117,0.9914,1.0971,1.2566,1.451,1.5836,1.6803,1.7421,1.8286,1.9098,2.002,2.186,2.3629,2.5242,2.7736,2.9657,3.1003,3.2208,3.3528,3.5008,3.5301,3.5054,3.4423,3.3566,3.2995,3.2423,3.2964,3.4163,3.5874,3.6607,3.7606,3.859,3.9192,3.9904,4.0508,4.2102,4.3377,4.4036,4.4475,4.4826,4.5057,4.3577,4.2875,0.0,0.0,0.0,0.0,0.0,0.0,0.0,0.0,0.0,0.0,0.0,5.5657,5.9799,5.6485,5.2147,4.754,5.2319,5.6713,5.9125,6.3376,6.7818,7.2152,7.6555,8.0495,8.3652,8.9294,9.3076,9.3153,9.6671,9.8322,9.6127,9.537,9.419,9.2304,9.2303,9.1873,8.9749,8.825,8.5598,8.1387,8.0036,7.9533,7.9131,7.7467,7.5485,7.3854,7.3238,7.2466,7.1097,7.0367,6.9678,6.8614,6.6011,6.3486,6.2141,6.1197,6.1148,6.1853,6.3296,6.5653,0.8594,1.1786,1.508,1.6879,1.7664,1.7683,1.747,1.704,1.5677,1.3833,1.1564,1.0224,1.011,1.1144,1.3481,1.5715,1.789,1.9637,2.0598,2.0955,2.1832,2.2802,2.3665,2.4798,2.6481,2.8777,3.0723,3.2142,3.3221,3.4078,3.4881,3.5612,3.6015,3.6289,3.6529,3.5328,3.4882,3.4917,3.594,3.7378,3.9172,3.9853,4.0716,4.1954,4.2268,4.293,4.3896,4.4991,4.5892,4.648,4.6419,4.6326,4.6152,4.5653,4.5377,0.0,4.4651,0.0,0.0,0.0,0.0,0.0,0.0,0.0,0.0,6.0066,6.2563,6.6934,6.1468,5.6117,5.2244,5.8495,6.3898,6.6584,7.0783,7.499,7.8634,8.2831,8.6923,9.069,9.2968,9.5713,9.9313,10.3096,10.4368,10.2157,10.1918,10.091,9.739,9.6323,9.5273,9.2841,9.1987,8.894,8.3202,8.2715,8.3723,8.3363,8.1818,8.0047,7.8354,7.7841,7.7017,7.554,7.4393,7.3637,7.3293,7.0337,6.7756,6.6972,6.7061,6.6997,6.637,6.7538,7.0217,0.9542,1.3359,1.5906,1.7566,1.85,1.7971,1.7328,1.6833,1.4899,1.2074,0.8847,0.9393,1.0936,1.2825,1.5616,1.7845,1.9903,2.1646,2.2606,2.2595,2.3479,2.4534,2.5542,2.7149,2.8837,3.0669,3.2647,3.3981,3.4495,3.5115,3.5865,3.6695,3.6596,3.6939,3.7824,0.0,0.0,0.0,3.8326,3.992,4.2436,4.271,4.3574,4.497,4.5177,0.0,4.586,4.7901,4.899,4.8807,4.9542,0.0,0.0,0.0,0.0,0.0,0.0,0.0,0.0,0.0,0.0,0.0,6.0614,6.0934,6.1179,6.6229,6.995,7.0707,6.8187,6.386,5.7719,6.3617,7.1605,8.0236,8.0817,8.1839,8.5428,8.865,9.1853,9.5091,9.8178,10.135,10.4515,10.695,10.7908,10.7313,10.631,10.596,10.6294,10.2053,9.8763,9.715,9.4751,9.1446,8.7271,8.6892,8.7224,8.7592,8.5827,8.3851,8.2991,8.2743,8.1704,7.9447,7.9106,7.8767,7.7372,7.4856,7.2837,7.2265,7.2413,7.25,7.2377,7.3531,7.5987,0.9636,1.3415,1.6317,1.753,0.0,1.6576,1.4703,1.2181,1.1828,0.9489,0.6295,0.7974,1.0136,1.2711,1.6057,1.8673,2.0809,2.2578,2.3197,2.3019,2.3908,2.494,2.6068,2.7852,2.9849,3.2358,3.4201,3.5434,3.6148,3.6413,3.6894,3.7641,3.7651,3.8063,3.9107,4.0236,4.0658,4.0187,4.1124,4.288,4.5242,4.5847,4.6699,4.8035,4.8655,0.0,0.0,0.0,0.0,0.0,0.0,0.0,0.0,0.0,0.0,5.1315,5.2096,5.3987,5.7439,6.0142,6.2565,6.4638,6.7541,6.7773,6.4457,7.0108,7.4761,7.6737,7.4728,7.061,6.453,7.1103,8.0004,8.9029,8.8537,8.8209,9.0666,9.3411,9.5731,9.7597,10.1271,10.5001,10.8034,10.9244,11.0414,11.1267,10.8583,10.6683,10.724,10.4906,10.2073,10.0132,9.7564,9.4874,9.2563,9.0537,8.9906,9.0454,8.8836,8.7321,8.6886,8.6666,8.5777,8.3564,8.2858,8.1973,8.0974,7.8714,7.6634,7.6713,7.7093,7.8097,7.9101,7.9645,8.0854,0.9253,1.2996,1.5975,1.6533,1.5511,1.4077,1.0216,0.5184,0.6631,0.0,0.0,0.5358,0.8216,1.1116,1.4909,1.797,2.025,2.2138,2.2789,2.2394,2.3668,2.5023,2.6376,2.8152,3.0766,3.3993,3.5596,3.684,3.7942,3.782,3.8073,3.8638,3.8974,3.9725,4.1047,4.3498,4.4382,4.3532,4.4313,4.5773,4.7921,4.8763,4.9737,5.1027,5.1946,5.266,5.2853,5.2892,5.2406,5.1447,5.0084,4.9449,4.9615,5.032,5.173,5.3924,5.6803,5.9412,6.1552,6.484,6.7368,6.8846,7.3602,7.4246,6.8991,7.3881,7.8943,8.3203,8.0986,7.7174,7.2013,7.9588,8.8267,9.6057,9.5057,9.4212,9.5302,9.7494,9.9138,9.9875,10.3547,10.7581,11.0612,11.0285,11.1768,11.4198,10.9599,10.5292,10.5343,10.4975,10.4042,10.2064,9.975,9.7932,9.6213,9.3624,9.2193,9.2528,9.1189,9.0198,9.029,9.013,8.9133,8.763,8.5894,8.4397,8.3766,8.1426,7.9808,7.9952,8.0878,8.2397,8.4389,8.4275,8.453,0.7961,1.1855,1.3546,1.4109,1.3355,0.9526,0.367,-0.3063,-0.1307,-0.0874,-0.1101,0.1743,0.4473,0.7821,1.1483,1.4737,1.7223,1.9432,2.0557,2.0787,2.321,2.515,2.6881,2.9649,3.2709,3.5845,3.7337,3.8489,3.9319,3.9253,3.9407,4.0115,4.0672,4.2312,4.5005,4.7376,4.8814,4.9473,4.7892,4.8117,5.0241,5.08,5.19,5.3521,5.4639,5.5069,5.486,5.6197,5.6414,5.536,5.5206,5.4987,5.4702,5.4769,5.5395,5.6715,5.8745,6.0771,6.2716,6.6903,7.0926,7.4388,7.7433,7.8132,7.6053,7.984,8.4284,8.8225,8.678,8.4591,8.2685,8.8444,9.5113,10.0803,10.0736,9.9904,9.9707,10.0883,10.2109,10.2943,10.563,10.911,11.2472,10.9553,11.0019,11.6706,10.8592,10.1104,10.2508,10.4085,10.4235,10.3,10.1137,9.9103,9.6784,9.4736,9.3421,9.3701,9.2917,9.2494,9.367,9.3171,9.2112,9.0682,8.8593,8.6472,8.4499,8.3314,8.2106,8.1873,8.2123,8.3169,8.4722,8.4689,8.5762,0.4829,0.8733,1.082,1.053,0.8523,0.1626,-0.4108,-0.9104,-0.9168,-0.7773,-0.4987,-0.2683,0.0219,0.3414,0.7259,1.0515,1.3447,1.6398,1.8222,1.9517,2.2339,2.5079,2.7746,3.0866,3.4266,3.789,3.8834,3.9821,4.0648,4.0079,4.0238,4.1304,4.3433,4.6036,4.8752,5.0409,5.1906,5.3185,5.0956,5.063,5.2468,5.3218,5.4345,5.583,5.7188,5.7939,5.8008,5.8661,5.8604,5.7603,5.7901,5.7978,5.7716,5.8196,5.9005,5.9933,6.1492,6.305,6.4508,6.9026,7.329,7.6916,8.0023,8.1691,8.1396,8.4401,8.8147,9.2134,9.1964,9.1954,9.2605,9.6175,10.0397,10.5027,10.3908,10.298,10.3339,10.3816,10.4241,10.4462,10.6216,10.8861,11.2046,10.6566,10.3651,10.8524,10.1477,9.7393,9.8902,10.0684,10.2064,10.2134,10.0819,9.8874,9.6674,9.4512,9.3484,9.368,9.3344,9.3776,9.5228,9.5216,9.4441,9.2895,9.0726,8.7432,8.3612,8.2734,8.2302,8.144,8.1248,8.1845,8.2205,8.0648,8.0399,0.1306,0.5477,0.7307,0.6033,0.1814,-0.6266,-1.1346,-1.4285,-1.619,-1.4765,-1.0575,-0.7816,-0.45,-0.1102,0.2767,0.6425,1.0189,1.386,1.6825,1.9296,2.2557,2.6048,2.9686,3.2976,3.6572,4.0007,4.078,4.1288,4.1693,4.071,4.1003,4.2726,4.6191,4.9225,5.1624,5.2989,5.4506,5.57,5.4097,5.3583,5.4516,5.5563,5.6809,5.8078,5.9573,6.0563,6.1016,6.0901,6.0588,6.012,6.0304,6.0529,6.0786,6.1431,6.2211,6.3072,6.3986,6.5243,6.7017,7.058,7.4513,7.8433,8.1847,8.4277,8.5534,8.8735,9.2212,9.5528,9.6524,9.7748,9.9906,10.2205,10.4775,10.781,10.6591,10.5899,10.6879,10.7366,10.6701,10.556,10.6445,10.7713,10.6434,10.1884,9.776,9.6106,9.4044,9.3311,9.4609,9.6119,9.7697,9.8883,9.8891,9.7516,9.5619,9.3083,9.1997,9.2554,9.2816,9.3929,9.571,9.6649,9.6448,9.5132,9.2024,8.729,8.1948,8.0646,8.0196,7.862,7.7682,7.7111,7.5168,7.1993,7.144,-0.1816,0.191,0.313,-0.06,-0.6959,-1.2663,-1.6621,-1.9305,-2.1321,-2.1453,-1.9111,-1.344,-0.9138,-0.6009,-0.1723,0.2939,0.7619,1.2217,1.6544,2.1047,2.5397,2.9555,3.351,3.7165,4.0252,4.2772,4.3434,4.3035,4.2245,4.127,4.1929,4.4369,4.8196,5.0887,5.2649,5.4968,5.6622,5.7433,5.759,5.7214,5.6526,5.7459,5.873,6.0257,6.1497,6.2538,6.3356,6.302,6.3163,6.3761,6.3314,6.3691,6.4898,6.4634,6.4783,6.5752,6.5665,6.6758,6.9645,7.1256,7.4295,7.914,8.2851,8.5537,8.7368,9.3146,9.7609,9.9686,10.0294,10.1168,10.2847,10.5738,10.8422,11.0441,10.9866,10.9436,11.1114,11.2251,11.1167,10.6255,10.7066,10.5384,10.1176,9.6043,9.1534,8.8342,8.7988,8.8232,8.9382,8.9678,9.0882,9.2601,9.4391,9.4892,9.2716,9.0069,8.9508,9.0196,9.1572,9.356,9.5954,9.7498,9.8124,9.7179,9.2702,8.6616,7.9823,7.7233,7.6241,7.3687,7.1815,6.9509,6.5115,6.1233,6.1613,-0.3775,-0.0691,-0.0739,-0.5678,-1.387,-1.9871,-2.385,-2.608,-2.7219,-2.6855,-2.495,-1.9887,-1.5053,-1.0034,-0.4651,0.1078,0.6502,1.2389,1.7891,2.3075,2.8178,3.2767,3.6687,4.0264,4.307,4.4948,4.4499,4.351,4.2497,4.1323,4.1891,4.43,4.7926,5.098,5.3568,5.5946,5.7882,5.917,6.0283,6.1037,6.1359,6.0815,6.1368,6.2923,6.3764,6.4733,6.5734,6.5485,6.5575,6.6144,6.6824,6.7468,6.7954,6.8675,6.9095,6.9129,6.8579,6.9106,7.1034,7.2574,7.5662,8.0782,8.5283,8.8554,9.0615,9.7206,10.3539,10.8055,10.6552,10.5049,10.616,10.8906,11.143,11.3069,11.4372,11.5543,11.6362,11.7253,11.6434,11.3358,10.9302,10.6207,10.2367,9.3095,8.5648,8.2735,8.2374,8.2733,8.4611,8.4004,8.4379,8.6625,8.8252,8.928,8.9625,8.8873,8.8443,8.9533,9.1548,9.4068,9.6185,9.7216,9.7929,9.9241,9.3297,8.4703,7.3825,7.2811,7.1988,6.8484,6.3381,5.9556,5.446,5.0869,5.0096,-0.49,-0.4005,-0.689,-1.352,-2.2008,-2.8109,-3.1564,-3.3205,-3.3412,-3.217,-2.9312,-2.4403,-1.8353,-1.1706,-0.5579,0.0865,0.7274,1.4273,2.08,2.661,3.1842,3.648,4.0542,4.3255,4.5655,4.6839,4.5731,4.3973,4.2156,4.0813,4.1381,4.3848,4.7471,5.0974,5.3986,5.6593,5.888,6.0703,6.2385,6.4022,6.5377,6.5161,6.5221,6.5912,6.6195,6.7026,6.8306,6.7906,6.7914,6.8517,6.9733,7.0498,7.0682,7.1852,7.2393,7.2081,7.1668,7.1824,7.2694,7.4484,7.7611,8.2494,8.7789,9.1818,9.495,10.1905,11.0364,11.7695,11.5244,11.2569,11.0421,11.2192,11.4248,11.6264,11.8724,12.0222,12.0982,12.1486,12.0561,11.8101,11.1088,10.5136,10.1393,9.0767,8.1762,7.8968,7.6564,7.6196,7.8321,7.721,7.6633,8.1281,8.2464,8.4525,8.7383,8.8227,8.8393,9.0455,9.2733,9.484,9.6242,9.6247,9.6496,9.6722,9.1817,8.3591,7.1031,6.7783,6.5546,6.0665,5.5594,5.0229,4.5611,4.1893,3.9002,-0.4399,-0.7349,-1.7016,-2.531,-3.2557,-3.7333,-3.9875,-4.0618,-4.0019,-3.748,-3.2117,-2.5242,-1.8065,-1.0285,-0.345,0.2908,1.0482,1.8473,2.5773,3.2316,3.6534,4.1156,4.5821,4.7012,4.8122,4.9016,4.7564,4.4732,4.0691,3.9746,4.0444,4.296,4.7277,5.0878,5.3628,5.6915,5.9708,6.1475,6.3618,6.5918,6.8295,7.043,7.0609,6.9527,6.8974,6.965,7.0741,7.0186,7.0372,7.1489,7.1578,7.2124,7.3269,7.3374,7.3611,7.4197,7.4576,7.496,7.5542,7.7131,8.001,8.4427,9.0119,9.4622,9.7765,10.7288,11.7562,12.7175,12.6174,12.2533,11.7567,11.675,11.7807,12.0313,12.1236,12.2609,12.4435,12.369,12.2165,11.8228,11.0995,10.2285,9.2025,8.6607,8.0155,7.4917,7.0148,6.803,6.9309,6.7698,6.9718,7.5585,7.9598,8.2211,8.5555,8.9154,9.0911,9.2929,9.5452,9.5788,9.5079,9.4684,9.4643,9.3189,8.7377,7.8938,6.7508,6.0462,5.6875,5.2289,4.6879,4.1733,3.8073,3.4652,3.2442,-0.7473,-1.6475,-2.591,-3.3904,-4.0468,-4.5147,-4.7107,-4.6946,-4.4194,-3.9162,-3.2034,-2.3041,-1.3603,-0.3849,0.5564,1.1956,1.6159,2.3932,3.1019,3.6789,4.0815,4.4383,4.7346,4.8348,4.9173,4.9584,4.7903,4.4722,4.1094,4.0389,4.1301,4.3407,4.6462,4.9719,5.2979,5.616,5.8941,6.1388,6.4015,6.702,7.0236,7.2811,7.4833,7.6599,7.4808,7.4338,7.5689,7.4829,7.4542,7.5091,7.4924,7.4711,7.4444,7.4897,7.597,7.7393,7.761,7.8184,7.9567,8.0806,8.3579,8.8257,9.3042,9.7238,10.1891,11.1171,12.3174,13.3717,13.2889,12.9374,12.8453,12.4934,12.2757,12.3982,12.4346,12.487,12.5753,12.4669,12.1691,11.6278,10.754,9.7232,8.8824,8.0025,7.2901,6.8518,6.3312,5.9862,5.8556,5.8988,6.431,7.3842,7.9698,8.4512,9.1349,9.3964,9.6073,9.7689,9.8919,9.6366,9.4921,8.8367,8.6629,8.6611,8.1773,7.2314,6.0495,5.327,4.942,4.4686,3.9126,3.5736,3.1275,3.0103,2.8626,-1.335,-2.5121,-3.3971,-4.1312,-4.7542,-5.0719,-5.1271,-4.9875,-4.5011,-3.7717,-2.8344,-1.7452,-0.6209,0.4753,1.5676,2.2408,2.5608,3.0988,3.5914,4.0536,4.4046,4.6781,4.8602,4.9328,4.9887,4.9953,4.7864,4.5031,4.2519,4.2157,4.2847,4.421,4.6769,4.9671,5.2817,5.5648,5.8462,6.1258,6.4147,6.7515,7.1304,7.446,7.7814,8.0934,8.0795,8.0414,8.0684,7.9779,7.9186,7.8922,7.825,7.7227,7.6224,7.6463,7.7982,8.0392,8.0779,8.1582,8.3395,8.449,8.6787,9.0841,9.4834,9.8658,10.2702,11.2447,12.5673,13.6281,13.727,13.4296,13.5195,13.3229,13.0663,12.8679,12.6896,12.6438,12.734,12.4839,11.9515,11.1748,10.3263,9.4285,8.5578,7.6027,6.8565,6.2909,5.7055,5.2462,4.8989,5.4319,6.3858,7.6577,8.3114,8.8663,9.4287,9.7806,9.7943,9.927,9.5452,9.3883,8.7832,8.1426,7.798,7.8314,7.3175,6.3595,5.5091,4.7389,4.2069,3.7531,3.4043,3.0807,2.8315,2.6949,2.7085,-2.1714,-3.2249,-4.0741,-4.6981,-5.2024,-5.2792,-5.2281,-4.8013,-4.1042,-3.1343,-2.0221,-0.7708,0.4311,1.4829,2.5063,3.3002,3.7262,3.8566,4.0489,4.3666,4.6036,4.806,4.9659,4.9608,5.002,5.0628,4.8251,4.6293,4.4996,4.4906,4.5064,4.5803,4.8332,5.0861,5.3123,5.5794,5.8474,6.1335,6.41,6.7456,7.1417,7.5206,7.898,8.2647,8.6032,8.7222,8.5627,8.501,8.4202,8.3027,8.1307,7.9654,7.8622,7.8179,7.9626,8.268,8.3876,8.5071,8.6793,8.7711,8.9095,9.185,9.4945,9.7673,10.1363,11.0538,12.1989,13.2022,13.5198,13.5429,13.6867,13.9661,13.9168,13.3792,12.8627,12.6511,12.6958,12.4559,11.7418,10.5711,9.868,9.2031,8.2368,7.2432,6.474,5.785,5.2821,4.838,4.4886,5.3176,6.7589,8.1658,8.8264,9.1701,9.6703,10.0927,10.0089,9.8655,9.2501,8.7646,7.6655,6.8929,6.6668,6.6187,6.2035,5.3052,4.7633,4.0676,3.7854,3.3794,3.0141,2.8188,2.7395,2.6993,2.824,-2.407,-3.3726,-4.0344,-4.5205,-4.8565,-4.797,-4.4939,-3.9569,-3.0613,-2.0139,-0.8389,0.4224,1.5767,2.5172,3.3539,3.9273,4.3586,4.4896,4.5878,4.6434,4.7506,4.8273,4.8817,4.8626,4.8952,4.9768,4.9859,4.9299,4.8448,4.7812,4.7905,4.8893,4.9365,5.127,5.4128,5.5858,5.7913,6.0448,6.3182,6.6439,7.0221,7.4113,7.8519,8.3475,8.7427,9.0033,9.1682,9.0531,8.896,8.7305,8.5247,8.3063,8.0883,7.9616,8.0666,8.3498,8.4824,8.6466,8.8629,8.9251,9.0369,9.2364,9.3375,9.3756,9.5635,10.3765,11.1975,11.931,12.3753,12.8689,13.3908,13.9124,13.89,13.3865,12.8515,12.5027,12.4217,11.7493,10.8274,9.9897,9.4529,8.7271,7.5947,6.5076,5.5759,5.4713,5.1026,4.7097,4.5901,5.5825,7.2283,8.8837,9.145,9.2385,9.4958,9.2268,8.6927,8.376,7.894,7.199,6.2125,5.5198,5.3597,5.3557,4.934,4.5556,3.9916,3.6569,3.4564,3.2431,3.0111,2.8835,2.7792,2.8989,3.1294,-2.5033,-3.2979,-3.6998,-3.8979,-3.9635,-3.7459,-3.2451,-2.5728,-1.6263,-0.5716,0.5636,1.74,2.7415,3.5411,4.1693,4.5666,4.8254,4.9658,4.9662,4.8766,4.8139,4.8046,4.7922,4.8301,4.9158,5.0526,5.1903,5.2336,5.1852,5.1356,5.1256,5.1485,5.1576,5.274,5.506,5.6314,5.7913,5.9767,6.2079,6.5005,6.8429,7.2164,7.6691,8.1815,8.6209,8.994,9.2984,9.3366,9.2881,9.1012,8.8349,8.5328,8.2798,8.1516,8.1929,8.4164,8.5503,8.6897,8.91,8.9555,9.0326,9.1489,9.0695,8.8468,8.8445,9.4301,9.9994,10.2318,10.9493,11.7297,12.3368,13.1954,13.3391,12.8168,12.4382,12.1508,11.8709,11.011,10.1013,9.4217,8.9846,8.1929,6.9371,5.7936,4.8738,5.0501,5.0519,4.9777,5.0618,6.0327,7.6373,8.8147,9.1026,9.1563,9.1717,8.4516,7.4024,6.7769,6.1804,5.2842,4.3048,3.7624,3.4564,4.1697,4.1054,4.2691,3.82,3.6837,3.5046,3.2793,3.1925,3.2243,3.2896,3.4672,3.6703,-2.4379,-2.9845,-3.0084,-2.8928,-2.6944,-2.2281,-1.6199,-0.8654,0.0394,1.0207,2.0457,3.0535,3.8551,4.4565,4.9163,5.1629,5.2614,5.2361,5.1897,5.0614,4.9143,4.772,4.6988,4.8707,5.0526,5.2225,5.4296,5.5174,5.5061,5.498,5.4712,5.4056,5.4643,5.5439,5.6254,5.7256,5.8202,5.9214,6.0898,6.3179,6.5841,6.9383,7.3455,7.7949,8.293,8.7133,9.0298,9.3791,9.5627,9.4426,9.0266,8.7073,8.4998,8.3564,8.3773,8.5477,8.5857,8.6775,8.824,8.888,8.9369,8.9418,8.6824,8.3289,7.892,8.2367,8.5924,8.6068,9.3697,10.1142,10.7492,11.7857,12.0794,11.613,11.4674,11.4031,10.908,10.2361,9.5337,8.7688,8.4003,7.7752,6.1807,5.2435,4.7951,4.8405,4.9868,5.119,5.5904,6.4554,7.6557,8.2795,8.5714,8.2413,7.9789,6.9818,5.7799,3.9992,3.6288,3.0995,2.5457,2.1373,2.2809,2.9547,3.7073,3.804,3.8804,3.7739,3.7735,3.7623,3.7379,3.7634,3.8954,4.093,4.0522,-1.6338,-1.8615,-1.635,-1.3797,-1.0402,-0.5211,0.1023,0.7809,1.6538,2.4764,3.3019,4.101,4.6723,5.108,5.3379,5.4815,5.5062,5.4575,5.3601,5.2415,5.0356,4.8537,4.7856,4.9598,5.1668,5.3508,5.6394,5.7845,5.7806,5.7857,5.7651,5.7363,5.6807,5.723,5.8234,5.8539,5.8728,5.8957,5.9483,6.0617,6.2372,6.5089,6.8544,7.2534,7.7891,8.2806,8.7194,9.344,9.6052,9.447,9.2154,8.9726,8.766,8.5913,8.5214,8.5603,8.5453,8.5856,8.718,8.7369,8.733,8.7078,8.2028,7.5973,7.071,7.0817,7.1304,7.1699,7.6883,8.2689,8.835,9.9079,9.9016,8.8612,9.7054,10.4273,9.9368,9.6516,9.1168,7.9114,6.9648,6.1035,5.3377,4.447,3.9616,4.4269,4.8187,5.1901,5.7066,6.4695,7.4866,7.4231,7.4753,6.9943,6.3919,5.4086,3.8555,1.4602,0.7676,0.7269,0.561,0.6244,1.311,2.2102,3.3649,3.7755,3.9523,4.0058,4.0745,4.2168,4.3775,4.4507,4.5723,4.7206,4.4561,-0.5685,-0.5744,-0.1704,0.2318,0.6591,1.2189,1.7862,2.3633,3.0711,3.702,4.2861,4.8326,5.259,5.5442,5.6974,5.7592,5.7528,5.6987,5.6148,5.4855,5.269,5.015,4.8777,5.0334,5.2824,5.5048,5.8687,6.0501,6.0837,6.0708,6.0358,5.9762,5.8838,5.8789,5.936,5.9727,5.9163,5.8434,5.8304,5.8489,5.8607,6.0267,6.2754,6.6503,7.1758,7.7923,8.6317,9.3639,9.6673,9.5603,9.4516,9.2984,9.0557,8.8473,8.695,8.6143,8.5223,8.5175,8.5661,8.5849,8.5512,8.3402,7.7376,7.0238,6.4131,6.0651,5.8449,5.7871,6.1795,6.6159,7.1053,7.8573,7.6224,6.8894,7.6988,8.5903,8.6417,8.4933,8.0493,7.0793,5.9558,4.8143,4.3501,3.3925,3.3984,3.8901,4.3865,4.9132,5.5176,6.3609,6.5755,6.1549,5.5465,4.8479,3.9791,2.9886,2.0404,-0.2598,-1.0607,-1.2415,-0.7262,-0.4075,0.6244,1.7477,2.9058,3.7623,3.9131,4.176,4.5117,4.6873,4.9285,5.0356,5.0712,4.7759,4.5616,0.6731,0.8493,1.328,1.8033,2.2566,2.847,3.2495,3.745,4.1999,4.6277,5.0084,5.3629,5.6203,5.8475,5.9564,6.0295,5.9608,5.9191,5.8276,5.6783,5.478,5.2271,5.0062,5.2232,5.463,5.7105,6.1031,6.2973,6.3464,6.3223,6.2743,6.1992,6.1019,6.0372,6.0507,6.0672,5.9495,5.768,5.6831,5.593,5.5034,5.5449,5.6816,5.966,6.6796,7.6006,8.6086,9.3697,9.7262,9.7882,9.7699,9.6227,9.3685,9.143,8.8845,8.6579,8.5345,8.4368,8.4022,8.487,8.3972,8.0246,7.344,6.5202,5.7075,5.1445,4.758,4.5777,4.8279,5.2636,5.6246,5.8503,5.8632,5.5539,5.7454,6.233,6.8411,6.748,6.3733,6.195,4.7262,3.4193,3.0568,2.6087,2.4651,3.1842,3.6994,4.2351,4.8536,5.5857,5.0599,3.9595,3.2458,2.4334,1.472,0.4643,-0.4706,-1.7683,-2.2374,-2.2773,-1.3795,-0.7795,0.2022,1.2668,2.3844,3.2546,3.8323,4.2058,4.63,4.9468,5.0283,5.1643,5.2323,4.6339,4.2733,2.0935,2.2664,2.676,3.0734,3.4727,3.8957,4.2384,4.5244,4.9121,5.1809,5.4202,5.6711,5.8843,6.0771,6.1061,6.1244,6.1516,6.041,5.869,5.6786,5.629,5.5449,5.4451,5.576,5.7338,5.9769,6.3524,6.5264,6.5141,6.5556,6.5399,6.4587,6.3419,6.2844,6.2084,6.107,5.9933,5.7546,5.545,5.3517,5.18,5.074,5.1183,5.3776,6.3317,7.4443,8.4748,9.2411,9.7394,10.0041,10.0518,9.9104,9.6819,9.3647,9.0574,8.7867,8.5253,8.4073,8.417,8.2974,8.1102,7.7751,6.793,5.7794,4.9965,4.3014,3.8545,3.6779,3.8532,4.1818,4.4096,4.6899,4.9207,4.9381,4.5185,4.02,3.6271,3.2659,3.1987,2.5278,0.8718,-0.5527,1.1392,1.5108,1.7772,2.4377,2.9464,3.4505,4.0558,4.7081,3.6582,2.3071,-0.3595,-1.2129,-0.9557,-1.7887,-2.4309,-2.9837,-3.2991,-3.3567,-2.4503,-1.5298,-0.6904,0.5038,1.8229,2.6187,3.3387,3.9739,4.3521,4.7313,4.9742,4.7898,4.5635,4.1746,3.545,3.4143,3.5357,3.8146,4.0958,4.3739,4.6704,4.9059,5.1006,5.3254,5.5386,5.6932,5.8627,6.0467,6.2463,6.2691,6.3099,6.281,6.1097,5.9017,5.7368,5.668,5.6562,5.7242,5.8506,6.0046,6.2008,6.5606,6.7229,6.7665,6.7864,6.7793,6.6596,6.5035,6.3343,6.2157,6.0717,5.8493,5.5695,5.3137,5.0717,4.8359,4.66,4.8255,5.2617,6.2366,7.2984,8.2641,9.0526,9.6324,9.998,10.1136,10.0534,9.8719,9.5236,9.1637,8.8227,8.578,8.3659,8.2871,8.1278,7.8519,7.3987,6.2795,5.3093,4.4637,3.7097,3.2961,3.1584,3.2705,3.4415,3.6082,3.99,4.3746,4.5227,3.5974,2.5116,1.7412,1.1885,0.3676,-0.2897,-1.3761,-1.5585,-0.9107,0.0169,0.922,1.5064,1.821,2.3101,2.7648,3.1343,2.1431,0.2549,-3.4029,-4.8566,-3.9893,-3.9975,-4.2585,-4.4214,-4.3159,-4.1884,-3.6166,-2.6907,-1.7734,-0.451,0.8765,1.9872,2.7122,3.3697,3.822,4.3067,4.3919,4.1274,3.6449,2.9721,2.2641,4.6478,4.6737,4.8303,4.9717,5.1116,5.2965,5.419,5.517,5.626,5.7529,5.9005,5.992,6.1495,6.3397,6.4138,6.4412,6.3497,6.1578,5.9256,5.7376,5.6133,5.6143,5.7107,5.9142,6.1733,6.4036,6.7462,6.9382,7.0188,7.0265,6.8837,6.7381,6.4622,6.1972,6.0403,5.8316,5.5664,5.2841,5.0252,4.7854,4.5428,4.3903,4.6674,5.3845,6.174,7.1069,8.0075,8.7881,9.4366,9.8841,9.9549,9.9374,9.8179,9.5679,9.167,8.7531,8.5273,8.2959,8.0465,7.8572,7.5022,6.8086,5.7882,4.8255,3.9727,3.3594,2.9952,2.9006,2.9546,3.0996,3.277,3.7107,4.0407,3.9171,2.5971,1.2357,0.18,-0.5702,-2.1498,-3.1447,-3.679,-3.7066,-2.446,-1.254,-0.3064,0.5232,0.8365,1.1348,1.5638,1.4925,0.5553,-1.5277,-5.0767,-6.4374,-5.7009,-5.4116,-5.7748,-5.6652,-5.442,-5.1041,-4.7506,-4.087,-3.0799,-1.4991,-0.1833,0.6753,1.2298,1.4641,2.148,3.3098,3.1223,2.1474,1.7576,1.6006,0.932,5.6959,5.6585,5.6854,5.721,5.7588,5.8063,5.8371,5.8695,5.8892,5.9452,6.0351,6.0921,6.2398,6.399,6.4076,6.3766,6.3171,6.1091,5.8675,5.6227,5.453,5.3881,5.4905,5.7689,6.1446,6.5819,6.8953,7.097,7.1564,7.0914,6.8163,6.5556,6.1619,5.8562,5.5576,5.3215,5.1005,4.9157,4.6937,4.4937,4.3866,4.4413,4.7182,5.4479,6.1715,6.9601,7.7834,8.485,9.0449,9.451,9.4753,9.4621,9.4091,9.29,9.0013,8.6718,8.3911,8.1234,7.7931,7.4459,6.9383,6.1717,5.2416,4.341,3.5968,3.0675,2.7608,2.7255,2.8042,2.9703,3.1542,3.6108,3.3282,2.6456,1.2899,-0.4467,-2.4321,-3.977,-4.798,-5.3446,-5.7995,-5.8324,-4.2386,-2.6905,-1.5018,-0.6731,-0.1942,-0.0473,0.181,-0.1123,-0.8345,-3.466,-6.6364,-7.1156,-6.9906,-6.8472,-6.8849,-6.749,-6.5152,-6.1588,-5.8038,-5.451,-4.4482,-3.423,-2.4055,-1.5946,-1.08,-0.5871,-0.2615,0.3443,0.1126,-0.1627,-0.4107,-0.6426,-0.6347,6.5058,6.4013,6.3391,6.3144,6.3026,6.231,6.1998,6.1967,6.1606,6.1661,6.2063,6.2596,6.3778,6.5337,6.6217,6.5531,6.3592,6.0288,5.6892,5.3377,5.0059,4.8785,5.0019,5.3471,5.8868,6.3899,6.839,7.1353,7.2244,6.9528,6.5601,6.0689,5.6484,5.2602,4.9588,4.7517,4.592,4.4603,4.3344,4.2598,4.2811,4.4918,5.0412,5.5782,6.1833,6.8897,7.5644,8.0839,8.5446,8.8621,8.91,8.8928,8.8412,8.7225,8.5701,8.3737,8.1782,7.88,7.4685,7.0557,6.4754,5.6796,4.7568,3.9444,3.2783,2.7904,2.5651,2.6891,2.8222,3.0633,3.3861,3.642,3.2138,2.042,0.3169,-1.8258,-3.9499,-6.1016,-6.8235,-7.1029,-7.664,-7.325,-5.9112,-4.3653,-2.8678,-1.9443,-1.318,-1.1974,-1.2047,-1.6937,-2.3348,-4.7107,-7.4161,-7.8833,-7.8901,-7.8025,-7.7697,-7.679,-7.5519,-7.1871,-7.0451,-6.773,-6.6665,-6.1858,-5.1549,-3.8751,-3.1255,-2.5644,-2.5844,-2.6065,-2.4857,-2.46,-2.7019,-2.8603,-2.7324,7.1833,7.0429,6.9269,6.8625,6.8218,6.6572,6.5706,6.5195,6.4217,6.3759,6.3854,6.4275,6.5356,6.7016,6.7859,6.7422,6.4579,5.9356,5.3786,4.806,4.345,4.1657,4.3315,4.7481,5.2941,5.9679,6.5942,7.008,7.0502,6.6408,6.0777,5.5065,5.0094,4.5898,4.2868,4.2173,4.0967,4.0025,3.9169,3.9409,4.2477,4.7361,5.2879,5.7157,6.2557,6.7856,7.2814,7.6041,7.906,8.133,8.1898,8.1583,8.1382,7.9528,7.8467,7.8682,7.8131,7.5391,7.0767,6.5581,5.9213,5.1249,4.3423,3.6303,3.0686,2.6435,2.4522,2.7501,3.0069,3.2163,3.4903,3.4351,2.6647,1.1943,-0.9141,-3.1116,-5.0377,-6.8199,-8.0805,-8.6333,-9.3785,-8.6405,-7.0411,-5.8495,-4.2959,-3.6024,-2.9959,-2.8935,-2.9386,-3.2166,-4.0881,-5.9698,-7.7424,-8.4764,-8.6401,-8.5129,-8.487,-8.4571,-8.3817,-8.1809,-8.2007,-8.2033,-8.063,-7.7953,-7.2334,-6.0131,-5.2601,-4.7909,-4.9992,-5.0206,-4.7713,-4.6714,-4.7581,-4.6133,-4.4032,7.7108,7.6197,7.5121,7.4428,7.3438,7.1376,6.9866,6.8628,6.6782,6.565,6.5299,6.5628,6.6775,6.8302,6.9426,6.734,6.2375,5.6124,4.9407,4.2589,3.6875,3.4175,3.5269,4.0522,4.6445,5.3271,6.0507,6.6398,6.6042,6.0465,5.4576,4.8748,4.2307,3.8096,3.6979,3.6601,3.6329,3.5113,3.3835,3.6229,4.2208,4.7533,5.2536,5.7255,6.1116,6.4325,6.7173,6.9401,7.1335,7.238,7.2378,7.2143,7.1889,7.0467,6.8975,6.9357,7.0231,7.0711,6.4922,5.9616,5.3182,4.5844,3.9011,3.3248,2.8737,2.6563,2.5909,2.7905,3.0938,3.2214,3.1559,2.5989,1.3338,-0.4297,-2.3822,-4.5239,-6.4379,-7.1928,-8.473,-8.8607,-9.1948,-8.8828,-7.8985,-6.8541,-5.8196,-5.2366,-4.7526,-4.6127,-4.6223,-4.8437,-5.3922,-7.1316,-7.9779,-8.6561,-8.8725,-8.8209,-8.85,-8.9468,-8.9375,-8.8956,-8.8577,-8.8129,-8.9995,-8.693,-8.2606,-8.0376,-7.3963,-7.1787,-7.4703,-7.2707,-6.7975,-6.6682,-6.6727,-6.4251,-6.0617,8.1474,8.0153,7.8677,7.7961,7.7408,7.4729,7.2696,7.1253,6.9578,6.8234,6.7526,6.805,6.9111,6.9933,6.9211,6.4755,5.8548,5.1178,4.3415,3.6125,3.0241,2.7017,2.8126,3.2352,3.8364,4.5484,5.1139,5.398,5.5034,5.3263,4.7959,3.9986,3.4388,3.0417,3.0466,3.018,2.9179,2.8473,2.8851,3.2158,3.7815,4.3072,4.7885,5.2391,5.4977,5.7193,5.9033,5.9721,6.0319,6.0689,6.0126,5.967,5.9492,5.8753,5.7839,5.7071,5.9688,6.0188,5.7962,5.3376,4.712,4.0709,3.5084,3.0761,2.7342,2.678,2.8902,3.3335,3.0966,2.8805,2.4079,1.5245,-0.2966,-2.1187,-3.8014,-5.4338,-7.0519,-7.7998,-8.5614,-8.7877,-8.9688,-8.7747,-8.5738,-7.906,-7.0448,-6.4964,-6.0618,-5.8742,-6.0123,-6.3034,-6.9849,-7.9931,-8.4793,-8.7827,-8.8274,-8.8012,-8.8155,-8.8935,-8.9717,-8.9703,-9.0885,-9.164,-9.2371,-9.3435,-9.057,-8.9687,-9.0568,-8.9727,-8.7311,-8.7158,-8.7273,-8.3753,-8.0329,-7.9443,-7.5494,8.4332,8.2754,8.1151,8.0392,8.0011,7.7074,7.4822,7.3161,7.1708,7.0285,6.9631,7.0215,7.1072,7.0145,6.6728,6.1145,5.3689,4.4959,3.6801,2.957,2.4025,2.1153,2.2085,2.5344,3.0364,3.7316,4.2595,4.4288,4.3458,4.1911,3.8464,3.149,2.7748,2.5078,2.4024,2.4736,2.49,2.2379,2.3737,2.7147,3.1874,3.6163,4.0391,4.3713,4.5997,4.7356,4.8606,5.0303,5.0391,4.9964,5.1023,5.1249,5.0438,5.0258,4.7758,4.7758,5.0664,5.2005,4.8587,4.4072,4.0805,3.5971,3.1917,2.898,2.7424,2.7605,3.0595,3.6322,2.7316,2.0237,1.1109,0.0314,-1.6636,-3.3917,-4.9704,-6.4094,-7.585,-8.0839,-8.4881,-8.7078,-8.9267,-9.1331,-8.931,-8.7134,-8.2279,-7.7195,-7.3954,-7.1509,-7.2573,-7.4984,-7.8647,-8.533,-8.6064,-8.7595,-8.7439,-8.7507,-8.7808,-8.7723,-8.8473,-8.9327,-8.9745,-9.1042,-9.1997,-9.3319,-9.4558,-9.4786,-9.3239,-9.6089,-9.8583,-9.6165,-9.4275,-9.4216,-9.2608,-9.1458,-9.0079,8.5123,8.3616,8.2494,8.1407,8.0476,7.8696,7.6437,7.4037,7.2685,7.1456,7.0788,7.1585,7.1662,6.8914,6.3431,5.6582,4.8191,3.9078,3.1276,2.4482,1.9028,1.6967,1.754,1.9751,2.3221,2.8536,3.3654,3.4748,3.3182,3.2375,2.9965,2.7058,2.3328,2.2054,2.1804,2.2287,2.1094,1.8949,1.9373,2.1711,2.5468,2.8908,3.1923,3.4543,3.5543,3.5712,3.6125,3.9738,4.1264,4.0539,4.1931,4.2654,4.0944,4.1069,3.8132,3.6601,4.2821,4.2091,3.5864,3.4798,3.4398,3.1011,2.8766,2.7981,2.7901,2.7445,3.1061,3.1974,2.0022,0.8698,-0.4395,-1.9404,-3.2278,-4.57,-5.8668,-6.8365,-7.7314,-8.0163,-8.3942,-8.6356,-8.8649,-9.0933,-9.309,-9.0936,-9.1054,-8.6328,-8.5301,-8.297,-8.1724,-8.3201,-8.3673,-8.6505,-8.6398,-8.6743,-8.646,-8.6197,-8.5241,-8.4741,-8.5,-8.6234,-8.7356,-8.8843,-9.012,-9.1824,-9.2817,-9.4433,-9.591,-9.6674,-9.7987,-10.0419,-10.0601,-9.8864,-9.8342,-9.7058,-9.814,8.4956,8.3096,8.0678,7.9656,7.9505,7.7718,7.5803,7.414,7.3466,7.3773,7.4086,7.3744,7.1438,6.6516,5.9124,5.1124,4.2231,3.3268,2.668,2.1715,1.7471,1.4841,1.4695,1.5778,1.8227,2.2059,2.5742,2.7379,2.6488,2.5086,2.3529,2.1698,2.0258,2.0051,2.017,1.9609,1.7518,1.6122,1.5646,1.7311,1.933,2.1791,2.4144,2.6264,2.7317,2.6757,2.6489,2.7803,2.7891,2.7832,2.8828,2.9065,2.9252,2.9133,2.7286,2.4105,3.1833,2.943,2.5907,2.5473,2.6273,2.7822,2.684,2.7089,2.8009,2.5826,1.8172,1.3699,0.8291,-0.2197,-1.7978,-3.1837,-4.4607,-5.7178,-6.6728,-7.4338,-7.8706,-8.1193,-8.3709,-8.6338,-8.8727,-9.1037,-9.3157,-9.4848,-9.5571,-9.5646,-9.5213,-9.4037,-9.1119,-8.883,-8.8323,-8.7559,-8.7347,-8.6164,-8.5807,-8.4263,-8.2557,-8.2046,-8.1793,-8.301,-8.4419,-8.5582,-8.7001,-8.8956,-9.0559,-9.1347,-9.2733,-9.4868,-9.6902,-9.8934,-10.0712,-10.1444,-10.1471,-10.1255,-10.229,8.4327,8.1951,7.8698,7.7676,7.8004,7.6543,7.5113,7.4044,7.3956,7.5039,7.66,7.4312,6.9725,6.3008,5.4828,4.5087,3.6463,2.8835,2.3948,2.0252,1.7547,1.5193,1.4365,1.4599,1.6285,1.7906,1.9477,2.1183,2.1881,2.0784,2.0305,1.9691,1.8946,1.9001,1.8716,1.7143,1.5307,1.4148,1.3773,1.4259,1.601,1.6676,1.7855,1.9252,1.9725,1.8938,1.7732,1.7656,1.6438,1.5797,1.5627,1.5512,1.5587,1.5749,1.6138,1.6597,1.7324,1.7884,1.8528,2.0284,2.1859,2.4225,2.5177,2.6285,2.6315,2.234,1.3453,-0.4768,-0.7905,-1.4264,-3.069,-4.3975,-5.3673,-6.4747,-6.9156,-7.5727,-7.875,-8.1444,-8.3971,-8.65,-8.8411,-8.9862,-9.2198,-9.4079,-9.5383,-9.5732,-9.4638,-9.3796,-9.2802,-9.0916,-9.0031,-8.914,-8.8212,-8.6701,-8.5097,-8.3603,-8.198,-7.994,-7.978,-8.0087,-8.1266,-8.2527,-8.4104,-8.6196,-8.7399,-8.7931,-8.91,-9.0647,-9.3792,-9.7124,-9.8486,-9.9592,-10.0413,-10.0083,-10.1936,8.3125,8.0242,7.7014,7.6013,7.634,7.5563,7.4612,7.384,7.42,7.5248,7.6141,7.2913,6.665,5.8754,5.0153,3.9999,3.1057,2.5408,2.1668,1.9246,1.8508,1.7654,1.6505,1.5808,1.5863,1.5905,1.7608,1.8956,1.8897,1.9274,1.8951,1.9071,1.9237,1.908,1.9025,1.7747,1.6282,1.4946,1.4344,1.4623,1.4854,1.4509,1.4832,1.5035,1.445,1.3692,1.2481,1.0974,1.0102,0.9483,0.9386,0.9923,1.0781,1.0903,1.1639,1.2935,1.6137,1.7117,1.6636,1.9779,2.1791,2.2748,2.3795,2.443,2.3622,1.7829,0.6321,-1.2112,-1.7766,-2.7815,-4.1993,-5.4082,-6.1541,-6.7467,-7.1629,-7.4901,-7.7892,-8.0405,-8.2663,-8.5036,-8.6475,-8.8007,-9.046,-9.2657,-9.4212,-9.4483,-9.3483,-9.3071,-9.3,-9.2137,-9.0846,-8.971,-8.8502,-8.7001,-8.5208,-8.3244,-8.1343,-7.9076,-7.7791,-7.8085,-7.8684,-7.9903,-8.1643,-8.3452,-8.4242,-8.4689,-8.5349,-8.6163,-8.9801,-9.3224,-9.508,-9.6393,-9.7455,-9.8501,-9.9606,8.0733,7.7583,7.3766,7.2341,7.2695,7.3456,7.3229,7.2841,7.4272,7.5982,7.5755,7.1031,6.3949,5.5323,4.4812,3.4936,2.7455,2.2049,1.8953,1.8241,1.8373,1.7224,1.6303,1.631,1.6399,1.6931,1.7839,1.8218,1.8585,1.8806,1.9347,1.9617,2.0253,2.0342,1.9341,1.8449,1.8053,1.6952,1.6446,1.6276,1.6341,1.531,1.4573,1.4494,1.2954,1.158,1.0238,0.8624,0.7871,0.7236,0.7383,0.7984,0.905,0.943,1.0895,1.251,1.5349,1.7645,1.8903,2.1458,2.2115,2.2573,2.2639,2.2717,2.189,1.5123,0.0107,-1.4484,-2.1387,-3.1645,-4.435,-5.3803,-6.1193,-6.6556,-7.0534,-7.3212,-7.5976,-7.8138,-8.0376,-8.2921,-8.4805,-8.6831,-8.9181,-9.03,-9.1754,-9.2146,-9.1197,-9.2199,-9.2501,-9.1684,-9.0602,-8.9519,-8.8316,-8.7026,-8.5442,-8.3679,-8.117,-7.8618,-7.6843,-7.6014,-7.6736,-7.7644,-7.859,-8.0116,-8.0819,-8.1452,-8.2376,-8.3596,-8.6197,-8.8927,-9.1659,-9.382,-9.5141,-9.5394,-9.5246,7.7611,7.5077,7.1081,6.9414,6.9702,7.1029,7.1743,7.2429,7.4509,7.5885,7.4459,6.8071,5.9627,5.0329,4.0043,2.9786,2.3234,1.9502,1.8061,1.7375,1.7388,1.7497,1.741,1.6732,1.6857,1.7458,1.7795,1.8147,1.8124,1.8722,1.9414,2.0447,2.1708,2.1029,2.0172,2.0019,1.989,1.8863,1.8216,1.7887,1.739,1.6515,1.5689,1.4803,1.3526,1.2142,1.0545,0.9463,0.8715,0.7917,0.7749,0.8236,0.9247,1.0502,1.2007,1.3632,1.5879,1.8508,2.0779,2.1407,2.1938,2.2563,2.202,2.1014,1.9246,1.3924,0.2728,-1.0,-1.9674,-3.0651,-4.1518,-5.0818,-5.9575,-6.4855,-6.8894,-7.1559,-7.3727,-7.5935,-7.7983,-8.0557,-8.265,-8.4966,-8.694,-8.8108,-8.908,-8.9015,-8.8852,-9.0209,-9.1471,-9.0674,-8.9858,-8.9,-8.7999,-8.6789,-8.5615,-8.4338,-8.1567,-7.833,-7.6474,-7.4927,-7.492,-7.5864,-7.6254,-7.6736,-7.7704,-7.8706,-7.9628,-8.1259,-8.4135,-8.6957,-8.9742,-9.1523,-9.2844,-9.2848,-9.2326,7.3927,7.2688,6.9021,6.7503,6.7697,6.8072,6.9772,7.2652,7.4275,7.4006,7.2128,6.3854,5.4327,4.3812,3.4609,2.5823,1.8505,1.5988,1.5943,1.6433,1.5858,1.7218,1.7926,1.7583,1.7285,1.7265,1.7533,1.8051,1.7765,1.8721,1.9712,2.0545,2.1453,2.115,2.108,2.0863,2.0591,1.9546,1.9075,1.8467,1.7594,1.6653,1.5732,1.4682,1.3477,1.1916,1.0536,0.959,0.883,0.8301,0.817,0.9316,1.0593,1.2002,1.3748,1.5787,1.8128,1.9872,2.1009,2.1113,2.1331,2.1756,2.1343,1.9653,1.7644,1.4886,0.7441,-0.272,-1.2406,-2.4547,-3.6005,-4.6878,-5.7481,-6.2296,-6.6935,-6.9475,-7.1571,-7.365,-7.5611,-7.7653,-7.9437,-8.1397,-8.2925,-8.4287,-8.5071,-8.5819,-8.5917,-8.697,-8.8116,-8.8906,-8.8322,-8.8284,-8.7332,-8.6502,-8.5312,-8.3848,-8.1505,-7.8097,-7.5994,-7.4485,-7.4387,-7.4078,-7.4306,-7.471,-7.5135,-7.584,-7.6578,-7.8974,-8.2263,-8.5101,-8.7979,-9.0205,-9.1821,-9.0819,-9.014,6.9801,6.931,6.7914,6.72,6.6306,6.1935,6.3429,6.895,6.9158,6.7577,6.4488,5.5607,4.6435,3.7445,2.8109,2.0519,1.5671,1.2499,1.2105,1.2418,1.3176,1.3836,1.4833,1.5889,1.6681,1.7582,1.7914,1.8105,1.8613,1.9287,1.9832,2.0607,2.1172,2.1064,2.0654,2.0411,1.9679,1.911,1.8734,1.8093,1.7064,1.5893,1.5085,1.4186,1.239,1.0907,1.0035,0.883,0.8183,0.8386,0.8422,0.9426,1.1419,1.2772,1.4487,1.7486,1.9118,2.0189,2.0445,2.0742,2.0959,2.1127,2.1102,2.0891,1.9335,1.7363,1.4644,0.7527,-0.4498,-1.6822,-2.9531,-4.1136,-5.1861,-5.9049,-6.3187,-6.582,-6.7831,-6.9784,-7.1799,-7.4095,-7.5937,-7.7833,-7.9331,-7.953,-8.0376,-8.1725,-8.2929,-8.3921,-8.5068,-8.6008,-8.669,-8.669,-8.6233,-8.5302,-8.4013,-8.2573,-8.0387,-7.8023,-7.5894,-7.426,-7.3886,-7.3479,-7.2806,-7.2298,-7.2229,-7.2671,-7.3379,-7.6464,-8.0199,-8.336,-8.6256,-8.8625,-9.0183,-8.8984,-8.7351,6.5943,6.644,6.5251,6.3469,6.0427,5.4989,5.5033,5.815,5.9297,5.8123,5.4522,4.6425,3.8237,2.9965,2.109,1.436,1.0854,0.813,0.7508,0.8682,0.9628,1.0802,1.1954,1.3823,1.5486,1.6769,1.7772,1.8048,1.8695,1.9417,2.0053,2.0321,2.075,2.0147,1.9499,1.8838,1.7852,1.7376,1.7067,1.6901,1.5947,1.4819,1.4256,1.2966,1.0865,0.9946,0.9078,0.7837,0.7761,0.8025,0.8093,0.9583,1.1529,1.3037,1.5188,1.7815,1.8756,1.9461,1.985,2.0192,2.037,2.0648,2.1192,2.1801,2.1999,2.1044,2.2719,2.0705,0.5546,-0.9013,-2.2189,-3.4868,-4.5426,-5.5631,-5.8596,-6.1579,-6.3589,-6.5483,-6.782,-7.0269,-7.2366,-7.4371,-7.5287,-7.523,-7.591,-7.7667,-7.9352,-8.0742,-8.2209,-8.3728,-8.4552,-8.5018,-8.4582,-8.3917,-8.2601,-8.1344,-7.9618,-7.7756,-7.5928,-7.4487,-7.3747,-7.2593,-7.1566,-7.0161,-6.8892,-6.9916,-7.1369,-7.46,-7.8166,-8.1328,-8.3975,-8.5772,-8.6878,-8.639,-8.4613,6.1678,6.3289,6.1115,5.6691,5.1444,4.6875,4.3605,4.1707,4.3767,4.5595,4.2638,3.6829,2.9166,2.1003,1.3149,0.873,0.5973,0.3761,0.4237,0.5243,0.6494,0.8117,1.0781,1.2173,1.4111,1.5576,1.6698,1.7476,1.8101,1.8847,1.9643,1.99,1.9419,1.8827,1.8123,1.7197,1.6049,1.4882,1.5071,1.5164,1.4296,1.3642,1.312,1.1405,1.0157,0.9239,0.8126,0.7433,0.7088,0.7392,0.8112,0.9708,1.1692,1.3752,1.6136,1.7362,1.8432,1.8793,1.9169,1.9376,1.9877,2.0387,2.1172,2.1901,2.2232,2.3948,2.6317,2.6736,1.32,-0.1483,-1.4992,-2.4822,-3.4798,-4.7156,-5.4893,-5.7544,-5.9765,-6.2045,-6.4801,-6.7181,-6.9267,-7.0965,-7.0641,-7.0622,-7.2103,-7.3832,-7.5553,-7.7176,-7.8852,-8.0708,-8.1848,-8.2665,-8.2643,-8.205,-8.127,-8.0051,-7.8971,-7.7319,-7.558,-7.4351,-7.3417,-7.1902,-7.0246,-6.8567,-6.7008,-6.8345,-7.0153,-7.3216,-7.6224,-7.9442,-8.1694,-8.2934,-8.3398,-8.3529,-8.2155,5.3909,5.465,5.3685,4.9025,4.1727,3.57,2.9327,2.2983,1.8561,2.3497,3.019,2.5391,1.8398,1.0684,0.5998,0.2155,0.0137,-0.0136,0.1465,0.3213,0.4526,0.7311,1.0445,1.1821,1.3262,1.4564,1.5849,1.7208,1.834,1.8955,1.9106,1.9164,1.8426,1.7418,1.684,1.5683,1.4024,1.2787,1.2426,1.2715,1.2306,1.1852,1.122,1.0484,0.9756,0.8899,0.8046,0.7641,0.8124,0.8759,0.897,1.0674,1.3126,1.5461,1.68,1.7519,1.8221,1.8359,1.824,1.824,1.8467,1.8649,1.9275,2.0606,2.2421,2.5234,2.6521,2.6289,2.0826,0.6252,-0.6624,-1.5473,-2.5735,-3.9039,-5.1281,-5.3696,-5.606,-5.8913,-6.181,-6.4001,-6.6167,-6.6383,-6.6035,-6.6968,-6.8413,-7.0081,-7.1848,-7.352,-7.5073,-7.68,-7.83,-7.9205,-8.0279,-7.9961,-7.9387,-7.8844,-7.7803,-7.6722,-7.5107,-7.4027,-7.2936,-7.1369,-6.9581,-6.6891,-6.5531,-6.6936,-6.8683,-7.1275,-7.4356,-7.7744,-8.0059,-8.1478,-8.1347,-8.1364,-7.9757,4.8093,4.8625,4.4195,3.8062,3.059,2.2639,1.5478,0.9311,0.394,0.5579,1.1795,0.9937,0.6322,0.1153,-0.2039,-0.4026,-0.5467,-0.4649,-0.3711,-0.1399,0.3134,0.6497,0.8955,1.1525,1.3391,1.471,1.6266,1.7732,1.8772,1.8672,1.8539,1.8175,1.7077,1.6145,1.5452,1.3647,1.2278,1.1223,1.0157,0.9841,1.0127,0.9868,0.9839,0.948,0.8655,0.8085,0.8244,0.787,0.8075,0.9188,0.9869,1.1619,1.3702,1.5345,1.6363,1.6864,1.7323,1.7666,1.7143,1.6872,1.6816,1.6839,1.6761,1.7906,1.9104,2.1651,2.3905,2.3971,2.5404,1.3349,0.0404,-0.9551,-2.3585,-3.7359,-4.6079,-5.0997,-5.332,-5.5817,-5.8208,-6.0234,-6.1543,-6.1535,-6.1849,-6.3691,-6.5219,-6.7027,-6.8721,-7.0356,-7.1836,-7.3181,-7.4593,-7.5995,-7.7176,-7.804,-7.7927,-7.7403,-7.6728,-7.5624,-7.451,-7.2813,-7.135,-7.0368,-6.8803,-6.6277,-6.4911,-6.5456,-6.7419,-7.0313,-7.3117,-7.6458,-7.8537,-8.0261,-7.9941,-7.9828,-7.8715,3.8285,3.9529,3.12,2.3905,1.7479,0.9061,0.2571,-0.1948,-0.5401,-0.8296,-0.8811,-0.6281,-0.6414,-0.7429,-0.9308,-1.0687,-1.0735,-0.8966,-0.8233,-0.5157,-0.0,0.4686,0.8529,1.1317,1.3535,1.545,1.7055,1.7924,1.8729,1.8063,1.7258,1.6828,1.5911,1.49,1.3334,1.2016,1.1015,0.9655,0.8597,0.7751,0.7688,0.789,0.8359,0.793,0.7275,0.7195,0.7828,0.8058,0.785,0.9148,1.0783,1.2512,1.3928,1.5224,1.5576,1.6144,1.6342,1.6307,1.5882,1.5429,1.5067,1.4802,1.4567,1.4952,1.6115,1.7605,1.9884,2.0189,2.1613,1.7156,0.4123,-0.4731,-1.9294,-3.4929,-4.2336,-4.8613,-5.0903,-5.2862,-5.4594,-5.6425,-5.6393,-5.6463,-5.8291,-6.0159,-6.2106,-6.3942,-6.5712,-6.7344,-6.8861,-7.0169,-7.1493,-7.3071,-7.4508,-7.5269,-7.6021,-7.5889,-7.53,-7.4724,-7.353,-7.1485,-6.9766,-6.8828,-6.7614,-6.5952,-6.5031,-6.5551,-6.73,-7.0027,-7.2828,-7.589,-7.8654,-8.0767,-8.0587,-8.021,-7.8843,1.1353,1.1804,0.8078,0.3624,-0.1316,-0.4199,-0.8181,-1.3242,-1.7026,-1.9762,-2.075,-2.1512,-1.9832,-1.488,-1.5569,-1.6131,-1.5184,-1.2998,-0.9608,-0.635,-0.1765,0.3518,0.824,1.1962,1.4137,1.6032,1.7363,1.7809,1.8016,1.689,1.6157,1.6304,1.4019,1.3171,1.2937,1.1375,0.9379,0.8238,0.7195,0.626,0.6188,0.6579,0.7453,0.7425,0.7355,0.776,0.8187,0.8272,0.899,1.0225,1.1603,1.2999,1.4115,1.4949,1.5351,1.5376,1.5563,1.5135,1.4715,1.3952,1.3461,1.2892,1.2389,1.134,1.2294,1.2999,1.318,1.033,1.0329,0.7774,-0.0795,-0.019,-1.0543,-3.013,-4.2661,-4.6399,-4.9343,-5.0093,-5.1039,-5.137,-5.1153,-5.2382,-5.4428,-5.6497,-5.873,-6.0608,-6.2613,-6.4333,-6.6586,-6.7602,-6.8626,-7.0071,-7.1733,-7.3122,-7.4131,-7.4218,-7.3778,-7.3316,-7.2409,-7.0309,-6.8553,-6.7365,-6.61,-6.4911,-6.5394,-6.6138,-6.8182,-7.0239,-7.3407,-7.6607,-7.9694,-8.1626,-8.1414,-8.0821,-7.9511]},{"header":{"parameterUnit":"m.s-1","parameterCategory":1,"la1":31.0,"la2":29.5877,"lo1":-88.7671,"lo2":-86.6584,"dy":0.0162,"dx":0.0185,"nx":115,"ny":88,"refTime":"2026-05-09T12:00:00:Z","depth":0,"parameterNumber":3,"parameterNumberName":"V-component_of_WINDS"},"data":[0.0,0.0,0.0,0.0,0.0,0.0,0.0,0.0,0.0,0.0,0.0,0.0,0.0,0.0,0.0,0.0,0.0,0.0,0.0,0.0,0.0,0.0,0.0,0.0,0.0,0.0,0.0,0.0,0.0,0.0,0.0,0.0,0.0,0.0,0.0,0.0,0.0,0.0,0.0,0.0,0.0,0.0,0.0,0.0,0.0,0.0,0.0,0.0,0.0,0.0,0.0,0.0,0.0,0.0,0.0,0.0,0.0,0.0,0.0,0.0,0.0,0.0,0.0,0.0,0.0,0.0,0.0,0.0,0.0,0.0,0.0,0.0,0.0,0.0,0.0,0.0,0.0,0.0,0.0,0.0,0.0,0.0,0.0,0.0,0.0,0.0,0.0,0.0,0.0,0.0,0.0,0.0,0.0,0.0,0.0,0.0,0.0,0.0,0.0,0.0,0.0,0.0,0.0,0.0,0.0,0.0,0.0,0.0,0.0,0.0,0.0,0.0,0.0,0.0,0.0,0.0,0.0,0.0,0.0,0.0,0.0,0.0,0.0,0.0,0.0,0.0,0.0,0.0,0.0,0.0,0.0,0.0,0.0,0.0,0.0,0.0,0.0,0.0,0.0,0.0,0.0,0.0,0.0,0.0,0.0,0.0,0.0,0.0,0.0,0.0,0.0,0.0,0.0,0.0,0.0,0.0,0.0,0.0,0.0,0.0,0.0,0.0,0.0,0.0,0.0,0.0,0.0,0.0,0.0,0.0,0.0,0.0,0.0,0.0,0.0,0.0,0.0,0.0,0.0,0.0,0.0,0.0,0.0,0.0,0.0,0.0,0.0,0.0,0.0,0.0,0.0,0.0,0.0,0.0,0.0,0.0,0.0,0.0,0.0,0.0,0.0,0.0,0.0,0.0,0.0,0.0,0.0,0.0,0.0,0.0,0.0,0.0,0.0,0.0,0.0,0.0,0.0,0.0,0.0,0.0,0.0,0.0,0.0,0.0,0.0,0.0,0.0,0.0,0.0,0.0,0.0,0.0,0.0,0.0,0.0,0.0,0.0,0.0,0.0,0.0,0.0,0.0,0.0,0.0,0.0,0.0,0.0,0.0,0.0,0.0,0.0,0.0,0.0,0.0,0.0,0.0,0.0,0.0,0.0,0.0,0.0,0.0,0.0,0.0,0.0,0.0,0.0,0.0,0.0,0.0,0.0,0.0,0.0,0.0,0.0,0.0,0.0,0.0,0.0,0.0,0.0,0.0,0.0,0.0,0.0,0.0,0.0,0.0,0.0,0.0,0.0,0.0,0.0,0.0,0.0,0.0,0.0,0.0,0.0,0.0,0.0,0.0,0.0,0.0,0.0,0.0,0.0,0.0,0.0,0.0,0.0,0.0,0.0,0.0,0.0,0.0,0.0,0.0,0.0,0.0,0.0,0.0,0.0,0.0,0.0,0.0,0.0,0.0,0.0,0.0,0.0,0.0,0.0,0.0,0.0,0.0,0.0,0.0,0.0,0.0,0.0,0.0,0.0,0.0,0.0,0.0,0.0,0.0,0.0,0.0,0.0,0.0,0.0,0.0,0.0,0.0,0.0,0.0,0.0,0.0,0.0,0.0,0.0,0.0,0.0,0.0,0.0,0.0,0.0,0.0,0.0,0.0,0.0,0.0,0.0,0.0,0.0,0.0,0.0,0.0,0.0,0.0,0.0,0.0,0.0,0.0,0.0,0.0,0.0,0.0,0.0,0.0,0.0,0.0,0.0,0.0,0.0,0.0,0.0,0.0,0.0,0.0,0.0,0.0,0.0,0.0,0.0,0.0,0.0,0.0,0.0,0.0,0.0,0.0,0.0,0.0,0.0,0.0,0.0,0.0,0.0,0.0,0.0,0.0,0.0,0.0,0.0,0.0,0.0,0.0,0.0,0.0,0.0,0.0,0.0,0.0,0.0,0.0,0.0,0.0,0.0,0.0,0.0,0.0,0.0,0.0,0.0,0.0,0.0,0.0,0.0,0.0,0.0,0.0,0.0,0.0,0.0,0.0,0.0,0.0,0.0,0.0,0.0,0.0,0.0,0.0,0.0,0.0,0.0,0.0,0.0,0.0,0.0,0.0,0.0,0.0,0.0,0.0,0.0,0.0,0.0,0.0,0.0,0.0,0.0,0.0,0.0,0.0,0.0,0.0,0.0,0.0,0.0,0.0,0.0,0.0,0.0,0.0,0.0,0.0,0.0,0.0,0.0,0.0,0.0,0.0,0.0,0.0,0.0,0.0,0.0,0.0,0.0,0.0,0.0,0.0,0.0,0.0,0.0,0.0,0.0,0.0,0.0,0.0,0.0,0.0,0.0,0.0,0.0,0.0,0.0,0.0,0.0,0.0,0.0,0.0,0.0,0.0,0.0,0.0,0.0,0.0,0.0,0.0,0.0,0.0,0.0,0.0,0.0,0.0,0.0,0.0,0.0,0.0,0.0,0.0,0.0,0.0,0.0,0.0,0.0,0.0,0.0,0.0,0.0,0.0,0.0,0.0,0.0,0.0,0.0,0.0,0.0,0.0,0.0,0.0,0.0,0.0,0.0,0.0,0.0,0.0,0.0,0.0,0.0,0.0,0.0,0.0,0.0,0.0,0.0,0.0,0.0,0.0,0.0,0.0,0.0,0.0,0.0,0.0,0.0,0.0,0.0,0.0,0.0,0.0,0.0,0.0,0.0,0.0,0.0,0.0,0.0,0.0,0.0,0.0,0.0,0.0,0.0,0.0,0.0,0.0,0.0,0.0,0.0,0.0,0.0,0.0,0.0,0.0,0.0,0.0,0.0,0.0,0.0,0.0,0.0,0.0,0.0,0.0,0.0,0.0,0.0,0.0,0.0,0.0,0.0,0.0,0.0,0.0,0.0,0.0,0.0,0.0,0.0,0.0,0.0,0.0,0.0,0.0,0.0,0.0,0.0,0.0,0.0,0.0,0.0,0.0,0.0,0.0,0.0,0.0,0.0,0.0,0.0,0.0,0.0,0.0,0.0,0.0,0.0,0.0,0.0,0.0,0.0,0.0,0.0,0.0,0.0,0.0,0.0,0.0,0.0,0.0,0.0,0.0,0.0,0.0,0.0,0.0,0.0,0.0,0.0,0.0,0.0,0.0,0.0,0.0,0.0,0.0,0.0,0.0,0.0,0.0,0.0,0.0,0.0,0.0,0.0,0.0,0.0,0.0,0.0,0.0,0.0,0.0,0.0,0.0,0.0,0.0,0.0,0.0,0.0,0.0,0.0,0.0,0.0,0.0,0.0,0.0,0.0,0.0,0.0,0.0,0.0,0.0,0.0,0.0,0.0,0.0,0.0,0.0,0.0,0.0,0.0,0.0,0.0,0.0,0.0,0.0,0.0,0.0,0.0,0.0,0.0,0.0,0.0,0.0,0.0,0.0,0.0,0.0,0.0,0.0,0.0,0.0,0.0,0.0,0.0,0.0,0.0,0.0,0.0,0.0,0.0,0.0,0.0,0.0,0.0,0.0,0.0,0.0,0.0,0.0,0.0,0.0,0.0,0.0,0.0,0.0,0.0,0.0,0.0,0.0,0.0,0.0,0.0,0.0,0.0,0.0,0.0,0.0,0.0,0.0,0.0,0.0,0.0,0.0,0.0,0.0,0.0,0.0,0.0,0.0,0.0,0.0,0.0,0.0,0.0,0.0,0.0,0.0,0.0,0.0,0.0,0.0,0.0,0.0,0.0,0.0,0.0,0.0,0.0,0.0,0.0,0.0,0.0,0.0,0.0,0.0,0.0,0.0,0.0,0.0,0.0,0.0,0.0,0.0,0.0,0.0,0.0,0.0,0.0,0.0,0.0,0.0,0.0,0.0,0.0,0.0,0.0,0.0,0.0,0.0,0.0,0.0,0.0,0.0,0.0,0.0,0.0,0.0,0.0,0.0,0.0,0.0,0.0,0.0,0.0,0.0,0.0,0.0,0.0,0.0,0.0,0.0,0.0,0.0,0.0,0.0,0.0,0.0,0.0,0.0,0.0,0.0,0.0,0.0,0.0,0.0,0.0,0.0,0.0,0.0,0.0,0.0,0.0,0.0,0.0,0.0,0.0,0.0,0.0,0.0,0.0,0.0,0.0,0.0,0.0,0.0,0.0,0.0,0.0,0.0,0.0,0.0,0.0,0.0,0.0,0.0,0.0,0.0,0.0,0.0,0.0,0.0,0.0,0.0,0.0,0.0,0.0,0.0,0.0,0.0,0.0,0.0,0.0,0.0,0.0,0.0,0.0,0.0,0.0,0.0,0.0,0.0,0.0,0.0,0.0,0.0,0.0,0.0,0.0,0.0,0.0,0.0,0.0,0.0,0.0,0.0,0.0,0.0,0.0,0.0,0.0,0.0,0.0,0.0,0.0,0.0,0.0,0.0,0.0,0.0,0.0,0.0,0.0,0.0,0.0,0.0,0.0,0.0,0.0,0.0,0.0,0.0,0.0,0.0,0.0,0.0,0.0,0.0,0.0,0.0,0.0,0.0,0.0,0.0,0.0,0.0,0.0,0.0,0.0,0.0,0.0,0.0,0.0,0.0,0.0,0.0,0.0,0.0,0.0,0.0,0.0,0.0,0.0,0.0,0.0,0.0,0.0,0.0,0.0,0.0,0.0,0.0,0.0,0.0,0.0,0.0,0.0,0.0,0.0,0.0,0.0,0.0,0.0,0.0,0.0,0.0,0.0,0.0,0.0,0.0,0.0,0.0,0.0,0.0,0.0,0.0,0.0,0.0,0.0,0.0,0.0,0.0,0.0,0.0,0.0,0.0,0.0,0.0,0.0,0.0,0.0,0.0,0.0,0.0,0.0,0.0,0.0,0.0,0.0,0.0,0.0,0.0,0.0,0.0,0.0,0.0,0.0,0.0,0.0,0.0,0.0,0.0,0.0,0.0,0.0,0.0,0.0,0.0,0.0,0.0,0.0,0.0,0.0,0.0,0.0,0.0,0.0,0.0,0.0,0.0,0.0,0.0,0.0,0.0,0.0,0.0,0.0,0.0,0.0,0.0,0.0,0.0,0.0,0.0,0.0,0.0,0.0,0.0,0.0,0.0,0.0,0.0,0.0,0.0,0.0,0.0,0.0,0.0,0.0,0.0,0.0,0.0,0.0,0.0,0.0,0.0,0.0,0.0,0.0,0.0,0.0,0.0,0.0,0.0,0.0,0.0,0.0,0.0,0.0,0.0,0.0,0.0,0.0,0.0,0.0,0.0,0.0,0.0,0.0,0.0,0.0,0.0,0.0,0.0,0.0,0.0,0.0,0.0,0.0,0.0,0.349,0.2347,0.0136,0.0,0.0,0.0,0.0,0.0,0.0,0.0,0.0,0.0,0.0,0.0,0.0,0.0,0.0,0.0,0.0,0.0,0.0,0.0,0.0,0.0,0.0,0.0,0.0,0.0,0.0,0.0,0.0,0.0,0.0,0.0,0.0,0.0,0.0,0.0,0.0,0.0,0.0,0.0,0.0,0.0,0.0,0.0,0.0,0.0,0.0,0.0,0.0,0.0,0.0,0.0,0.0,0.0,0.0,0.0,0.0,0.0,0.0,0.0,0.0,0.0,0.0,0.0,0.0,0.0,0.0,0.0,0.0,0.0,0.0,0.0,0.0,0.0,0.0,0.0,0.0,0.0,0.0,0.0,0.0,0.0,0.0,0.0,0.0,0.0,0.0,0.0,0.0,0.0,0.0,0.0,0.0,0.0,0.0,0.0,0.0,0.0,0.0,0.0,0.0,0.0,0.0,0.0,0.0,0.0,0.0,0.0,0.0,0.0,0.0,0.4433,1.3586,1.3818,0.0,0.0971,0.0,0.0,0.0,0.0,0.0,0.0,0.0,0.0,0.0,0.0,0.0,0.0,0.0,0.0,0.0,0.0,0.0,0.0,0.0,0.0,0.0,0.0,0.0,0.0,0.0,0.0,0.0,0.0,0.0,0.0,0.0,0.0,0.0,0.0,0.0,0.0,0.0,0.0,0.0,0.0,0.0,0.0,0.0,0.0,0.0,0.0,0.0,0.0,0.0,0.0,0.0,0.0,0.0,0.0,0.0,0.0,0.0,0.0,0.0,0.0,0.0,0.0,0.0,0.0,0.0,0.0,0.0,0.0,0.0,0.0,0.0,0.0,0.0,0.0,0.0,0.0,0.0,0.0,0.0,0.0,0.0,0.0,0.0,0.0,0.0,0.0,0.0,0.0,0.0,0.0,0.0,0.0,0.0,0.0,0.0,0.0,0.0,0.0,0.0,0.0,0.0,0.0,0.0,0.0,0.0,0.0,0.0,0.0,0.0,0.0,1.1119,1.1172,1.3835,1.3353,0.0,0.0,0.0,0.0,0.0,0.0,0.0,0.0,0.0,0.0,0.0,0.0,0.0,0.0,0.0,0.0,0.0,0.0,0.0,0.0,0.0,0.0,0.0,0.0,0.0,0.0,0.0,0.0,0.0,0.0,0.0,0.0,0.0,0.0,0.0,0.0,0.0,0.0,0.0,0.0,0.0,0.0,0.0,0.0,0.0,0.0,0.0,0.0,0.0,0.0,0.0,0.0,0.0,0.0,0.0,0.0,0.0,0.0,0.0,0.0,0.0,0.0,0.0,0.0,0.0,0.0,0.0,0.0,0.0,0.0,0.0,0.0,0.0,0.0,0.0,0.0,0.0,0.0,0.0,0.0,0.0,0.0,0.0,0.0,0.0,0.0,0.0,0.0,0.0,0.0,0.0,0.0,0.0,0.0,0.0,0.0,0.0,0.0,0.0,0.0,0.0,0.0,0.0,0.0,0.0,0.0,0.0,0.0,0.0,0.0,1.2221,1.5854,1.1039,1.3835,1.5507,1.5269,0.0,0.0,0.0,0.0,0.0,0.0,0.0,0.0,0.0,0.0,0.0,0.0,0.0,0.0,0.0,0.0,0.0,0.0,0.0,0.0,0.0,0.0,0.0,0.0,0.0,0.0,0.0,0.0,0.0,0.0,0.0,0.0,0.0,0.0,0.0,0.0,0.0,0.0,0.0,0.0,0.0,0.0,0.0,0.0,0.0,0.0,0.0,0.0,0.0,0.0,0.0,0.0,0.0,0.0,0.0,0.0,0.0,0.0,0.0,0.0,0.0,0.0,0.0,0.0,0.0,0.0,0.0,0.0,0.0,0.0,0.0,0.0,0.0,0.0,0.0,0.0,0.0,0.0,0.0,0.0,0.0,0.0,0.0,0.0,0.0,0.0,0.0,0.0,0.0,0.0,0.0,0.0,0.0,0.0,0.0,0.0,0.0,0.0,0.0,0.0,0.0,0.0,0.0,0.0,0.0,0.0,0.0,0.0,0.4176,1.2833,1.7011,1.5806,1.6227,1.5996,0.0,0.0,0.0,0.0,0.0,0.0,0.0,0.0,0.0,0.0,0.0,0.0,0.0,0.0,0.0,0.0,0.0,0.0,0.0,0.0,0.0,0.0,0.0,0.0,0.0,0.0,0.0,0.0,0.0,0.0,0.0,0.0,0.0,0.0,0.0,0.0,0.0,0.0,0.0,0.0,0.0,0.0,0.0,0.0,0.0,0.0,0.0,0.0,0.0,0.0,0.0,0.0,0.0,0.0,0.0,0.0,0.0,0.0,0.0,0.0,0.0,0.0,0.0,0.0,0.0,0.0,0.0,0.0,0.0,0.0,0.0,0.0,0.0,0.0,0.0,0.0,0.0,0.0,0.0,0.0,0.0,0.0,0.0,0.0,0.0,0.0,0.0,0.0,0.0,0.0,0.0,0.0,0.0,0.0,0.0,0.0,0.0,0.0,0.0,0.0,0.0,0.0,0.0,0.0,0.0,0.0,0.0,0.0,0.0,0.11,0.7723,1.1608,1.2338,1.5019,1.6355,0.0,0.0,0.0,0.0,0.0,0.0,0.0,0.0,0.0,0.0,0.0,0.0,0.0,0.0,0.0,0.0,0.0,0.0,0.0,0.0,0.0,0.0,0.0,0.0,0.0,0.0,0.0,0.0,0.0,0.0,0.0,0.0,0.0,0.0,0.0,0.0,0.0,0.0,0.0,0.0,0.0,0.0,0.0,0.0,0.0,0.0,0.0,0.0,0.0,0.0,0.0,0.0,0.0,0.0,0.0,0.0,0.0,0.0,0.0,0.0,0.0,0.0,0.0,0.0,0.0,0.0,0.0,0.0,0.0,0.0,0.0,0.0,0.0,0.0,0.0,0.0,0.0,0.0,0.0,0.0,0.0,0.0,0.0,0.0,0.0,0.0,0.0,0.0,0.0,0.0,0.0,0.0,0.0,0.0,0.0,0.0,0.0,0.0,0.0,0.0,0.0,0.0,0.0,0.0,0.0,0.0,0.0,0.0,0.0,0.1767,0.0,0.8994,0.9678,1.3884,1.4633,0.0,0.0,0.0,0.0,0.0,0.0,0.0,0.0,0.0,0.0,0.0,0.0,0.0,0.0,0.0,0.0,0.0,0.0,0.0,0.0,0.0,0.0,0.0,0.0,0.0,0.0,0.0,0.0,0.0,0.0,0.0,0.0,0.0,0.0,0.0,0.0,0.0,0.0,0.0,0.0,0.0,0.0,0.0,0.0,0.0,0.0,0.0,0.0,0.0,0.0,0.0,0.0,0.0,0.0,0.0,0.0,0.0,0.0,0.0,0.0,0.0,0.0,0.0,0.0,0.0,0.0,0.0,0.0,0.0,0.0,0.0,0.0,0.0,0.0,0.0,0.0,0.0,0.0,0.0,0.0,0.0,0.0,0.0,0.0,0.0,0.0,0.0,0.0,0.0,0.0,0.0,0.0,0.0,0.0,0.0,0.0,0.0,0.0,0.0,0.0,0.0,0.0,0.0,0.0,0.0,0.0,0.0,0.0,0.8721,0.7401,0.9394,1.0105,0.899,1.2873,1.0433,0.0,0.0,0.0,0.0,0.0,0.0,0.0,0.0,0.0,0.0,0.0,0.0,0.0,0.0,0.0,0.0,0.0,0.0,0.0,0.0,0.0,0.0,0.0,0.0,0.0,0.0,0.0,0.0,0.0,0.0,0.0,0.0,0.0,0.0,0.0,0.0,0.0,0.0,0.0,0.0,0.0,0.0,0.0,0.0,0.0,0.0,0.0,0.0,0.0,0.0,0.0,0.0,0.0,0.0,0.0,0.0,0.0,0.0,0.0,0.0,0.0,0.0,0.0,0.0,0.0,0.0,0.0,0.0,0.0,0.0,0.0,0.0,0.0,0.0,0.0,0.0,0.0,0.0,0.0,0.0,0.0,0.0,0.0,0.0,0.0,0.0,0.0,0.0,0.0,0.0,0.0,0.0,0.0,0.0,0.0,0.0,0.0,0.0,0.0,0.0,0.0,0.0,0.0,0.0,0.0,0.0,0.0,0.0,0.0,1.2443,1.1822,1.2502,1.4346,0.8751,0.4992,0.0,0.0,0.0,0.0,0.0,0.0,0.0,0.0,0.0,0.0,0.0,0.0,0.0,0.0,0.0,0.0,0.0,0.0,0.0,0.0,0.0,0.0,0.0,0.0,0.0,0.0,0.0,0.0,0.0,0.0,0.0,0.0,0.0,0.0,0.0,0.0,0.0,0.0,0.0,0.0,0.0,0.0,0.0,0.0,0.0,0.0,0.0,0.0,0.0,0.0,0.0,0.0,0.0,0.0,0.0,0.0,0.0,0.0,0.0,0.0,0.0,0.0,0.0,0.0,0.0,0.0,0.0,0.0,0.0,0.0,0.0,0.0,0.0,0.0,0.0,0.0,0.0,0.0,0.0,0.0,0.0,0.0,0.0,0.0,0.0,0.0,0.0,0.0,0.0,0.0,0.0,0.0,0.0,0.0,0.0,0.0,0.0,0.0,0.0,0.0,0.0,0.0,0.0,0.0,0.0,0.0,0.0,0.0,0.0,1.8758,1.6621,1.5438,1.5618,0.9739,0.6107,0.5116,0.0,0.0,0.0,0.0,0.0,0.0,0.0,0.0,0.0,0.0,0.0,0.0,0.0,0.0,0.0,0.0,0.0,0.0,0.0,0.0,0.0,0.0,0.0,0.0,0.0,0.0,0.0,0.0,0.0,0.0,0.0,0.0,0.0,0.0,0.0,0.0,0.0,0.0,0.0,0.0,0.0,0.0,0.0,0.0,0.0,0.0,0.0,0.0,0.0,0.0,0.0,0.0,0.0,0.0,0.0,0.0,0.0,0.0,0.0,0.0,0.0,0.0,0.0,0.0,0.0,0.0,0.0,0.0,0.0,0.0,0.0,0.0,0.0,0.0,0.0,0.0,0.0,0.0,0.0,0.0,0.0,0.0,0.0,0.0,0.0,0.0,0.0,0.0,0.0,0.0,0.0,0.0,0.0,0.0,0.0,0.0,0.0,0.0,0.0,0.0,0.0,0.0,0.0,0.0,0.0,0.0,0.0,0.0,2.5899,2.326,1.9215,1.3846,1.4747,1.2384,0.0,0.0,0.0,0.0,0.0,0.0,0.0,0.0,0.0,0.0,0.0,0.0,0.0,0.0,0.0,0.0,0.0,0.0,0.0,0.0,0.0,0.0,0.0,0.0,0.0,0.0,0.0,0.0,0.0,0.0,0.0,0.0,0.0,0.0,0.0,0.0,0.0,0.0,0.0,0.0,0.0,0.0,0.0,0.0,0.0,0.0,0.0,0.0,0.0,0.0,0.0,0.0,0.0,0.0,0.0,0.0,0.0,0.0,0.0,0.0,0.0,0.0,0.0,0.0,0.0,0.0,0.0,0.0,0.0,0.0,0.0,0.0,0.0,0.0,0.0,0.0,0.0,0.0,0.0,0.0,0.0,0.0,0.0,0.0,0.0,0.0,0.0,0.0,0.0,0.0,0.0,0.0,0.0,0.0,0.0,0.0,0.0,0.0,0.0,0.0,0.0,0.0,0.0,0.0,0.0,0.0,0.0,0.0,0.0,2.7076,2.8182,2.6413,2.1393,1.6319,1.3293,0.0,0.0,0.0,0.0,0.0,0.0,0.0,0.0,0.0,0.0,0.0,0.0,0.0,0.0,0.0,0.0,0.0,0.0,0.0,0.0,0.0,0.0,0.0,0.0,0.0,0.0,0.0,0.0,0.0,0.0,0.0,0.0,0.0,0.0,0.0,0.0,0.0,0.0,0.0,0.0,0.0,0.0,0.0,0.0,0.0,0.0,0.0,0.0,0.0,0.0,0.0,0.0,0.0,0.0,0.0,0.0,0.0,0.0,0.0,0.0,0.0,0.0,0.0,0.0,0.0,0.0,0.0,0.0,0.0,0.0,0.0,0.0,0.0,0.0,0.0,0.0,0.0,0.0,0.0,0.0,0.0,0.0,0.0,0.0,0.0,0.0,0.0,0.0,0.0,0.0,0.0,0.0,0.0,0.0,0.0,0.0,0.0,0.0,0.0,0.0,0.0,0.0,0.0,0.0,0.0,0.0,0.0,0.0,2.7959,3.0793,3.239,3.1741,2.8666,2.1919,1.7372,0.0,0.0,0.0,0.0,0.0,0.0,0.0,0.0,0.0,0.0,0.0,0.0,0.0,0.0,0.0,0.0,0.0,0.0,0.0,0.0,0.0,0.0,0.0,0.0,0.0,0.0,0.0,0.0,0.0,0.0,0.0,0.0,0.0,0.0,0.0,0.0,0.0,0.0,0.0,0.0,0.0,0.0,0.0,0.0,0.0,0.0,0.0,0.0,0.0,0.0,0.0,0.0,0.0,0.0,0.0,0.0,0.0,0.0,0.0,0.0,0.0,0.0,0.0,0.0,0.0,0.0,0.0,0.0,0.0,0.0,0.0,0.0,0.0,0.0,0.0,0.0,0.0,0.0,0.0,0.0,0.0,0.0,0.0,0.0,0.0,0.0,0.0,0.0,0.0,0.0,0.0,0.0,0.0,0.0,0.0,0.0,0.0,0.0,0.0,0.0,0.0,0.0,0.0,0.0,0.0,0.0,0.0,0.0,2.9532,3.5752,3.6085,3.5708,3.4658,2.9064,2.3034,0.0,0.0,0.0,0.0,0.0,0.0,0.0,0.0,0.0,0.0,0.0,0.0,0.0,0.0,0.0,0.0,0.0,0.0,0.0,0.0,0.0,0.0,0.0,0.0,0.0,0.0,0.0,0.0,0.0,0.0,0.0,0.0,0.0,0.0,0.0,0.0,0.0,0.0,0.0,0.0,0.0,0.0,0.0,0.0,0.0,0.0,0.0,0.0,0.0,0.0,0.0,0.0,0.0,0.0,0.0,0.0,0.0,0.0,0.0,0.0,0.0,0.0,0.0,0.0,0.0,0.0,0.0,0.0,0.0,0.0,0.0,0.0,0.0,0.0,0.0,0.0,0.0,0.0,0.0,0.0,0.0,0.0,0.0,0.0,0.0,0.0,0.0,0.0,0.0,0.0,0.0,0.0,0.0,0.0,0.0,0.0,0.0,0.0,0.0,0.0,0.0,0.0,0.0,0.0,0.0,0.0,0.0,0.0,3.4071,3.8601,3.9314,3.8689,3.6713,3.0481,2.5853,0.0,0.0,0.0,0.0,0.0,0.0,0.0,0.0,0.0,0.0,0.0,0.0,0.0,0.0,0.0,0.0,0.0,0.0,0.0,0.0,0.0,0.0,0.0,0.0,0.0,0.0,0.0,0.0,0.0,0.0,0.0,0.0,0.0,0.0,0.0,0.0,0.0,0.0,0.0,0.0,0.0,0.0,0.0,0.0,0.0,0.0,0.0,0.0,0.1182,0.0,0.0,0.0,0.0,0.0,0.0,0.0,0.0,0.0,0.0,0.0,0.0,0.0,0.0,0.0,0.0,0.0,0.0,0.0,0.0,0.0,0.0,0.0,0.0,0.0,0.0,0.0,0.0,0.0,0.0,0.0,0.0,0.0,0.0,0.0,0.0,0.0,0.0,0.0,0.0,0.0,0.0,0.0,0.0,0.0,0.0,0.0,0.0,0.0,0.0,0.0,0.0,0.0,0.0,0.0,0.0,0.0,0.0,0.0,3.7251,4.1091,4.1584,4.0798,3.8737,3.3936,2.9374,0.0,0.0,0.0,0.0,0.0,0.0,0.0,0.0,0.0,0.0,0.0,0.0,0.0,0.0,0.0,0.0,0.0,0.0,0.0,0.0,0.0,0.0,0.0,0.0,0.0,0.0,0.0,0.0,0.0,0.0,0.0,0.0,0.0,0.0,0.0,0.0,0.0,0.0,0.0,0.0,0.0,0.0,0.0,0.0,0.0,0.0,0.0,0.0,0.0,0.0,0.0,0.0,0.0,0.0,0.0,0.0,0.0,0.0,0.0,0.0,0.0,0.0,0.0,0.0,0.0,0.0,0.0,0.0,0.0,0.0,0.0,0.0,0.0,0.0,0.0,0.0,0.0,0.0,0.0,0.0,0.0,0.0,0.0,0.0,0.0,0.0,0.0,0.0,0.0,0.0,0.0,0.0,0.0,0.0,0.0,0.0,0.0,0.0,0.0,0.0,0.0,0.0,0.0,0.0,0.0,0.0,0.0,3.5768,3.9829,4.3484,4.3482,4.2565,4.0887,3.7742,3.2881,2.6314,0.0,0.0,0.0,0.0,0.0,0.0,0.0,0.0,0.0,0.0,0.0,0.0,0.0,0.0,0.0,0.0,0.0,0.0,0.0,0.0,0.0,0.0,0.0,0.0,0.0,0.0,0.0,0.0,0.0,0.0,0.0,0.0,0.0,0.0,0.0,0.0,0.0,0.0,-0.0746,0.106,0.0,0.0,0.0,0.0,0.0,0.0,0.0,0.0,-0.1178,0.0,0.0,0.0,0.0,0.0,0.0,0.0,0.0,0.0,0.0,0.0,0.0,0.0,0.0,0.0,0.0,0.0,0.0,0.0,0.0,0.0,0.0,0.0,0.0,0.0,0.0,0.0,0.0,0.0,0.0,0.0,0.0,0.0,0.0,0.0,0.0,0.0,0.0,0.0,0.0,0.0,0.0,0.0,0.0,0.0,0.0,0.0,0.0,0.0,0.0,0.0,0.0,0.0,0.0,0.0,0.0,3.933,4.0245,4.2493,4.6119,4.5424,4.4153,4.2419,3.9314,3.5221,3.0251,0.0,0.0,0.0,0.0,0.0,0.0,0.0,0.0,0.0,0.0,0.0,0.0,0.0,0.0,0.0,0.0,0.0,0.0,0.0,0.0,0.0,0.0,0.0,0.0,0.0,0.0,0.0,0.0,0.0,0.0,0.0,0.0,0.0,0.0,0.0,0.0,0.0,0.0,0.0,0.1818,0.3225,0.0,0.0,0.0,0.0,0.0,0.0,0.0,0.0,-0.1275,0.0,0.0,0.0,0.0,0.0,0.0,0.0,0.0,0.0,0.0,0.0,0.0,0.0,0.0,0.0,0.0,0.0,0.0,0.0,0.0,0.0,0.0,0.0,0.0,0.0,0.0,0.0,0.0,0.0,0.0,0.0,0.0,0.0,0.0,0.0,0.0,0.0,0.0,0.0,0.0,0.0,0.0,0.0,0.0,0.0,0.0,0.0,0.0,0.0,0.0,0.0,0.0,0.0,0.0,0.0,4.1081,4.3923,4.6197,4.8115,4.7143,4.5574,4.3423,3.9096,3.5364,0.0,0.0,0.0,0.0,0.0,0.0,0.0,0.0,0.0,0.0,0.0,0.0,0.0,0.0,0.0,0.0,0.0,0.0,0.0,0.0,0.0,0.0,0.0,0.0,0.0,0.0,0.0,0.0,0.0,0.0,0.0,0.0,0.0,0.0,0.0,0.0,0.0,0.0,0.0,0.0,-0.0448,0.0459,0.3308,0.0,0.0,0.0,0.0,0.0,0.0,-0.1366,-0.114,0.0,0.0,0.0,0.0,0.0,0.0,0.0,0.0,0.0,0.0,0.0,0.0,0.0,0.0,0.0,0.0,0.0,0.0,0.0,0.0,0.0,0.0,0.0,0.0,0.0,0.0,0.0,0.0,0.0,0.0,0.0,0.0,0.0,0.0,0.0,0.0,0.0,0.0,0.0,0.0,0.0,0.0,0.0,0.0,0.0,0.0,0.0,0.0,0.0,0.0,0.0,0.0,0.0,0.0,0.0,4.176,4.6352,4.9058,4.9741,4.8715,4.6925,4.4393,3.9352,3.5673,0.0,0.0,0.0,0.0,0.0,0.0,0.0,0.0,0.0,0.0,0.0,0.0,0.0,0.0,0.0,0.0,0.0,0.0,0.0,0.0,0.0,0.0,0.0,0.0,0.0,0.0,0.0,0.0,0.0,0.0,0.0,0.0,0.0,0.0,0.0,0.0,0.0,0.0,0.0,0.0,0.0,-0.2593,-0.0558,-0.0801,0.0,0.0,0.0,0.0,-0.1514,-0.1392,0.0,0.0,0.0,0.0,0.0,0.0,0.0,0.0,0.0,0.0,0.0,0.0,0.0,0.0,0.0,0.0,0.0,0.0,0.0,0.0,0.0,0.0,0.0,0.0,0.0,0.0,0.0,0.0,0.0,0.0,0.0,0.0,0.0,0.0,0.0,0.0,0.0,0.0,0.0,0.0,0.0,0.0,0.0,0.0,0.0,0.0,0.0,0.0,0.0,0.0,0.0,0.0,0.0,0.0,0.0,0.0,4.266,4.6391,4.9178,5.0836,5.0073,4.8294,4.5639,4.2146,3.8229,0.0,0.0,0.0,0.0,0.0,0.0,0.0,0.0,0.0,0.0,0.0,0.0,0.0,0.0,0.0,0.0,0.0,0.0,0.0,0.0,0.0,0.0,0.0,0.0,0.0,0.0,0.0,0.0,0.0,0.0,0.0,0.0,0.0,0.0,0.0,0.0,0.0,0.0,0.0,0.0,0.0,-0.4156,-0.3803,-0.3074,-0.2872,0.0,0.0,0.0767,-0.057,-0.1653,0.0,0.0,0.0,0.0,0.0,0.0,0.0,0.0,0.0,0.0,0.0,0.0,0.0,0.0,0.0,0.0,0.0,0.0,0.0,0.0,0.0,0.0,0.0,0.0,0.0,0.0,0.0,0.0,0.0,0.0,0.0,0.0,0.0,0.0,0.0,0.0,0.0,0.0,0.0,0.0,0.0,0.0,0.0,0.0,0.0,0.0,0.0,0.0,0.0,0.0,0.0,0.0,0.0,0.0,0.0,3.7692,4.4999,4.9562,5.2457,5.3685,5.2339,5.0102,4.7069,4.1917,3.7428,0.0,0.0,0.0,0.0,0.0,0.0,0.0,0.0,0.0,0.0,0.0,0.0,0.0,0.0,0.0,0.0,0.0,0.0,0.0,0.0,0.0,0.0,0.0,0.0,0.0,0.0,0.0,0.0,0.0,0.0,0.0,0.0,0.0,0.0,0.0,0.0,0.0,0.0,0.0,0.0,0.0,0.0,-0.3922,-0.3027,0.0,0.0,0.0,0.1859,0.1101,0.0,0.0,0.0,0.0,0.0,0.0,0.0,0.0,0.0,0.0,0.0,0.0,0.0,0.0,0.0,0.0,0.0,0.0,0.0,0.0,0.0,0.0,0.0,0.0,0.0,0.0,0.0,0.0,0.0,0.0,0.0,0.0,0.0,0.0,0.0,0.0,0.0,0.0,0.0,0.0,0.0,0.0,0.0,0.0,0.0,0.0,0.0,0.0,0.0,0.0,0.0,0.0,0.0,0.0,0.0,0.0,0.0,4.6855,5.2226,5.5343,5.612,5.4341,5.1824,4.8594,4.2187,0.0,0.0,0.0,0.0,0.0,0.0,0.0,0.0,0.0,0.0,0.0,0.0,0.0,0.0,0.0,0.0,0.0,0.0,0.0,0.0,0.0,0.0,0.0,0.0,0.0,0.0,0.0,-0.7403,0.0,0.0,0.0,0.0,0.0,0.0,0.0,0.0,0.0,0.0,0.0,0.0,0.0,0.0,-0.1632,-0.2564,-0.0886,0.247,0.0,0.0,0.4285,0.423,0.22,-0.0423,0.0,0.0,0.0,0.0,0.0,0.0,0.0,0.0,0.0,0.0,0.0,0.0,0.0,0.0,0.0,0.0,0.0,0.0,0.0,0.0,0.0,0.0,0.0,0.0,0.0,0.0,0.0,0.0,0.0,0.0,0.0,0.0,0.0,0.0,0.0,0.0,0.0,0.0,0.0,0.0,0.0,0.0,0.0,0.0,0.0,0.0,0.0,0.0,0.0,0.0,0.0,0.0,0.0,0.0,3.9604,4.7326,5.303,5.6376,5.7187,5.5506,5.3239,5.0429,4.429,3.8565,0.0,0.0,0.0,0.0,0.0,0.0,0.0,0.0,0.0,0.0,0.0,0.0,0.0,0.0,0.0,0.0,0.0,0.0,0.0,0.0,0.0,0.0,0.0,0.0,0.0,0.0,0.0,0.0,0.0,0.0,0.0,0.0,0.0,0.0,0.0,0.0,0.0,0.0,0.0,0.0,0.0,0.1968,0.0638,0.3874,1.0405,0.0,1.5338,0.9244,0.9786,0.6018,0.1827,-0.1902,0.0,0.0,0.0,0.0,0.0,0.0,0.0,0.0,0.0,0.0,0.0,0.0,0.0,0.0,0.0,0.0,0.0,0.0,0.0,0.0,0.0,0.0,0.0,0.0,0.0,0.0,0.0,0.0,0.0,0.0,0.0,0.0,0.0,0.0,0.0,0.0,0.0,0.0,0.0,0.0,0.0,0.0,0.0,0.0,0.0,0.0,0.0,0.0,0.0,0.0,0.0,0.0,0.0,3.9652,4.7723,5.4155,5.8182,5.956,5.8442,5.5696,5.133,4.5311,3.9044,0.0,0.0,0.0,0.0,0.0,0.0,0.0,0.0,0.0,0.0,0.0,0.0,0.0,0.0,0.0,0.0,0.0,0.0,0.0,0.0,0.0,0.0,0.0,0.0,0.0,0.0,0.0,0.0,-0.8649,-0.88,-0.775,0.0,0.0,0.0,0.0,0.0,0.0,0.0,0.0,0.0,0.0,0.7643,0.5174,0.9902,0.0,0.0,1.852,1.3744,1.3224,0.7909,0.2635,-0.1242,-0.5557,0.0,0.0,0.0,0.0,0.0,0.0,0.0,0.0,0.0,0.0,0.0,0.0,0.0,0.0,0.0,0.0,0.0,0.0,0.0,0.0,0.0,0.0,0.0,0.0,0.0,0.0,0.0,0.0,0.0,0.0,0.0,0.0,0.0,0.0,0.0,0.0,0.0,0.0,0.0,0.0,0.0,0.0,0.0,0.0,0.0,0.0,0.0,0.0,0.0,0.0,0.0,0.0,4.0314,4.8815,5.5547,5.986,6.166,6.0171,5.7255,5.2794,4.6417,3.9871,0.0,0.0,0.0,0.0,0.0,0.0,0.0,0.0,0.0,0.0,0.0,0.0,0.0,0.0,0.0,0.0,0.0,0.0,0.0,0.0,0.0,0.0,0.0,0.0,0.0,0.0,0.0,0.0,-0.7389,-0.7831,-0.6744,0.0,0.0,0.0,0.0,0.0,0.0,0.0,0.0,0.0,0.0,1.2744,1.0652,1.5281,2.0405,2.4687,2.1159,1.7451,1.5525,1.0603,0.4886,-0.1355,0.0,0.0,0.0,0.0,0.0,0.0,0.0,0.0,0.0,0.0,0.0,0.0,0.0,0.0,0.0,0.0,0.0,0.0,0.0,0.0,0.0,0.0,0.0,0.0,0.0,0.0,0.0,3.3155,0.0,0.0,2.5361,0.0,0.0,0.0,0.0,0.0,0.0,0.0,0.0,0.0,0.0,0.0,0.0,0.0,0.0,0.0,0.0,0.0,0.0,0.0,0.0,0.0,0.0,4.1864,5.0912,5.7089,6.1169,6.2926,6.0245,5.7726,5.5211,4.7863,4.1268,3.5858,0.0,0.0,0.0,0.0,0.0,0.0,0.0,0.0,0.0,0.0,0.0,0.0,0.0,0.0,0.0,0.0,0.0,0.0,0.0,0.0,0.0,0.0,0.0,0.0,0.0,0.0,-0.38,-0.5056,-0.598,0.0,0.0,0.0,0.0,0.0,0.0,0.0,0.0,0.0,1.3157,1.5461,1.701,1.701,1.9348,2.2534,2.679,2.4147,2.0253,1.6702,1.4374,0.9103,0.0,0.0,0.0,0.0,0.0,0.0,0.0,0.0,0.0,0.0,0.0,0.0,0.0,0.0,0.0,0.0,0.0,0.0,0.0,0.0,0.0,0.0,0.0,0.0,0.0,0.0,0.0,4.1324,3.7463,0.0,0.0,0.0,0.0,0.0,0.0,0.0,0.0,0.0,0.0,0.0,4.512,4.436,0.0,0.0,0.0,0.0,0.0,0.0,0.0,0.0,0.0,0.0,0.0,0.0,4.2804,5.1417,5.8249,6.2503,6.4191,6.2959,6.0304,5.6357,5.0773,4.3325,3.3874,0.0,0.0,0.0,0.0,0.0,0.0,0.0,0.0,0.0,0.0,0.0,0.0,0.0,0.0,0.0,0.0,0.0,0.0,0.0,0.0,0.0,0.0,0.0,0.0,0.0,-0.22,0.0,0.0,0.0,0.0,0.0,0.0,0.0,0.0,0.0,0.0,0.0,1.2751,1.5621,1.8512,2.0369,2.0932,2.2565,2.4673,0.0,0.0,0.0,0.0,0.0,0.0,0.0,0.0,0.0,0.0,0.0,0.0,0.0,0.0,2.0895,2.1755,2.8934,3.729,4.4813,0.0,0.0,0.0,0.0,0.0,0.0,0.0,0.0,0.0,0.0,0.0,0.0,0.0,0.0,4.5291,4.2631,4.1225,0.0,0.0,0.0,0.0,0.0,0.0,0.0,0.0,5.8415,5.9999,5.6846,5.5475,5.0702,0.0,3.7413,2.8609,0.0,0.0,0.0,0.0,0.0,0.0,0.0,0.0,4.4814,5.3293,5.9665,6.3426,6.4444,6.3896,6.15,5.7178,5.1841,4.4947,3.6309,3.382,3.1957,0.0,0.0,0.0,0.0,0.0,0.0,0.0,0.0,0.0,0.0,0.0,0.0,0.0,0.0,0.0,0.0,0.0,0.0,0.0,0.0,0.0,0.0,0.0,-0.1816,0.0,0.0,0.0,0.0,0.0,0.0,0.0,0.0,0.0,0.7138,1.0208,1.3436,1.6657,1.9927,2.2754,2.4465,0.0,0.0,0.0,0.0,0.0,0.0,0.0,1.2749,0.1367,-0.4472,-0.8793,-1.2047,-0.7045,-0.0,0.7563,0.0,0.0,2.9636,3.6933,4.587,5.3848,5.9797,6.4097,6.6474,6.635,6.5276,0.0,0.0,0.0,0.0,0.0,0.0,0.0,0.0,5.0476,4.8967,0.0,4.7703,0.0,0.0,0.0,0.0,5.0778,5.8076,0.0,0.0,6.9142,7.0731,6.7936,6.3405,5.7757,5.1521,4.9375,4.276,3.1783,2.2536,0.0,0.0,0.0,0.0,0.0,0.0,4.795,5.6492,6.1534,6.3995,6.391,6.3194,6.1157,5.7872,5.1466,4.6495,4.3394,4.2834,4.0578,3.6037,3.4771,0.0,0.0,0.0,0.0,0.0,0.0,0.0,0.0,0.0,0.0,0.0,0.0,0.0,0.0,0.0,0.0,0.0,0.0,0.0,0.0,-0.1994,0.0,0.0,0.0,0.0,0.0,0.0,0.0,0.0,0.0,0.0,0.5885,0.9769,1.3675,1.6397,0.0,0.0,0.0,0.0,2.722,3.1887,3.1625,2.8737,2.2605,2.1941,1.6749,0.0957,0.0,0.0,-0.9507,-0.2933,0.5624,1.4231,3.0431,4.1594,3.6948,4.3493,5.2216,6.1037,6.7714,7.3106,7.6411,7.656,7.6175,7.0876,0.0,0.0,0.0,0.0,6.3539,6.2172,6.0634,5.8453,5.6965,5.6262,5.7092,0.0,0.0,0.0,0.0,0.0,0.0,6.6011,6.8358,7.2539,7.3787,7.2335,6.9522,6.4634,5.7939,5.2787,4.6744,3.9952,3.4994,2.8823,2.1615,0.0,0.0,0.0,0.0,5.2268,5.8455,6.2866,6.5308,6.5718,6.4327,6.1573,5.7438,5.4711,5.2225,4.9974,4.9327,4.7091,4.2862,3.8466,0.0,0.0,0.0,0.0,0.0,0.0,0.0,0.0,0.0,0.0,0.0,0.0,0.0,0.0,0.0,0.0,0.0,0.0,0.0,-0.3113,-0.3546,-0.4369,0.0,0.0,0.0,0.0,0.0,0.0,0.0,0.0,0.0,0.9144,1.1268,1.3796,0.0,0.0,2.4074,2.6747,2.9964,3.2799,3.4531,3.4564,0.0,2.5753,2.3413,1.7283,0.2163,-0.5938,-0.9111,-0.4644,0.3943,1.3519,2.32,3.4636,4.4061,4.9165,5.3895,5.9228,6.4888,7.1131,7.6955,8.1187,8.1238,7.9266,7.5238,7.2225,7.0247,6.8664,6.7292,6.5826,6.487,6.4226,6.3179,6.3251,6.4405,6.643,6.6212,6.4381,6.4962,0.0,0.0,0.0,7.1472,7.3799,7.5821,7.6288,7.5238,7.2189,6.7614,6.1738,5.5262,4.9758,4.5166,4.2888,3.7775,3.0424,0.0,0.0,4.2168,4.8939,5.5292,6.0899,6.4239,6.5933,6.5825,6.3405,6.0614,5.7635,5.6098,5.47,5.338,5.2455,5.0091,4.6002,4.0821,3.5034,0.0,0.0,0.0,0.0,0.0,0.0,0.0,0.0,0.0,0.0,0.0,0.1768,0.1448,0.0,0.0,0.0,-0.3199,-0.3658,-0.3645,-0.4645,0.0,0.0,0.0,0.0,0.0,0.0,0.0,-0.4926,-0.0153,0.509,1.0422,1.221,1.4182,1.7074,2.1264,2.5206,2.8506,0.0,3.5509,3.864,3.7516,3.4033,2.7227,2.4136,1.6599,-0.105,-0.5803,-0.551,0.105,1.0586,1.9965,2.8277,3.813,4.7654,5.4565,5.8646,6.246,6.6796,7.2538,7.8185,8.258,8.1967,7.9889,7.7996,7.6199,7.296,7.0548,6.8699,6.6799,6.5812,6.5618,6.5765,6.8272,7.2387,7.5225,7.6186,7.5639,7.4108,0.0,7.4537,7.5992,7.7408,7.902,7.8856,7.8201,7.6919,7.2379,6.7873,6.3338,5.7047,5.19,4.8104,4.6739,4.442,4.1248,4.1628,4.5172,5.143,5.3601,5.7604,6.35,6.5671,6.6067,6.4803,6.1134,5.8875,5.8027,5.6096,5.4741,5.4303,5.3032,5.0367,4.6274,4.1646,3.5481,2.7676,0.0,0.0,0.0,0.0,0.0,0.0,0.0,0.0,0.0,0.0,0.0,0.0,0.0,0.0,0.0,-0.3419,0.0,-0.4111,-0.5497,0.0,0.0,0.0,-0.8222,-0.8122,-0.836,-0.7208,-0.3272,0.0,0.0,1.0725,1.3174,1.5066,1.665,2.1787,2.7247,3.1879,3.3756,3.6804,4.3608,4.0445,3.4926,2.7702,2.281,1.3577,-0.3893,-0.4221,0.132,0.7949,1.8401,2.6208,3.1007,4.1837,5.1813,5.5976,5.9767,6.3123,6.7425,7.2464,7.7206,8.0416,8.0206,7.8522,7.6638,7.5326,7.2828,7.0893,6.9245,6.733,6.6758,6.7445,7.0713,7.3545,7.6198,8.028,8.2476,8.2979,8.1173,8.0019,7.9404,7.8309,7.8353,7.9288,7.9062,7.8026,7.6223,7.3187,6.8547,6.2509,5.7155,5.224,4.7847,4.6125,4.5553,4.6045,4.8455,4.9993,5.0834,5.6952,6.1601,6.4539,6.65,6.6305,6.3834,6.0994,5.8908,5.7532,5.5791,5.4745,5.4358,5.1911,4.8863,4.5335,3.8754,3.2347,2.6431,1.8975,0.0,0.0,0.0,0.0,0.0,0.0,0.0,0.0,0.0,0.3161,0.335,0.0,-0.0431,0.0,-0.349,-0.5794,-0.5723,-0.72,0.0,0.0,-0.9081,-0.9117,-1.0345,-0.9314,-0.6585,-0.2009,0.7207,1.3309,1.3841,1.5893,1.7991,1.9648,2.4798,3.0626,3.6059,4.0352,4.4043,4.7817,4.342,3.6443,2.78,1.5561,0.5989,0.1476,0.3191,0.7631,1.5455,3.0616,4.1432,4.173,4.9459,5.7255,6.0908,6.3185,6.5116,6.7175,7.0464,7.4065,7.7237,7.7046,7.5173,7.5236,7.3798,7.2261,7.0882,6.9577,6.8092,6.8332,7.0068,7.4193,7.777,8.0972,8.5188,8.711,8.7015,8.4761,8.2841,8.1253,7.9612,7.9054,7.94,7.9205,7.8049,7.6041,7.3212,6.8624,6.2476,5.7183,5.1888,4.6841,4.4535,4.4091,4.5417,4.9719,5.2215,5.3006,5.9327,6.3722,6.611,6.6845,6.5977,6.3407,6.0031,5.7086,5.4857,5.2246,5.0166,4.8922,4.635,4.3188,3.9477,3.3667,2.8146,2.3082,1.7165,1.3006,0.0,0.0,0.0,0.0,0.0,0.0,0.0,0.0,0.0,0.0,0.0,0.085,-0.0783,-0.4198,-0.6403,-0.6681,-0.8755,-1.0383,-1.1092,-1.0606,-1.0287,-1.0622,-0.8553,-0.4571,0.1825,0.9188,1.4118,1.538,1.6828,1.8667,2.0652,2.8476,3.6392,4.2553,4.8306,5.251,5.313,4.594,3.5675,2.4108,1.1783,0.6085,1.2533,1.279,1.5358,2.6881,3.8737,4.706,4.7505,5.4977,6.3014,6.6549,6.7174,6.7488,6.8412,7.009,7.2551,7.5368,7.411,7.1023,7.3995,7.2367,7.1713,7.0989,7.0194,6.9625,7.0726,7.3079,7.7054,8.157,8.6378,8.9732,9.0491,8.915,8.6336,8.3773,8.1537,8.0249,7.9645,7.9592,7.9397,7.8229,7.6215,7.3054,6.8539,6.2781,5.6881,5.0942,4.5101,4.2271,4.1203,4.2067,4.7793,5.2555,5.625,6.0883,6.458,6.7434,6.6539,6.5067,6.2993,5.8259,5.4278,5.1121,4.7357,4.4069,4.1474,3.9282,3.6178,3.2095,2.8168,2.3859,1.9235,1.5831,1.3226,0.0,0.9186,0.0,0.0,0.0,0.0,0.0,0.0,0.0,0.0,0.3937,0.1365,-0.2776,-0.5108,-0.6766,-0.7459,-1.0183,-1.2131,-1.2641,-1.2481,-1.171,-1.0527,-0.7429,-0.2276,0.5547,0.8952,1.2176,1.5952,1.7021,1.8168,2.1016,3.1646,4.3094,5.2056,5.7591,5.9533,5.7452,4.6617,3.2372,1.9209,1.0339,1.0465,2.2727,2.2306,2.4091,3.7793,4.4941,4.9302,5.1675,5.9707,6.7772,7.2656,7.1576,7.0164,7.0266,7.0667,7.1532,7.3067,7.086,6.6343,7.3721,7.2967,7.2494,7.2472,7.2844,7.4142,7.5057,7.593,8.0389,8.5913,9.188,9.3278,9.2402,8.9831,8.7445,8.4863,8.2114,8.0783,8.0154,8.0117,7.9903,7.9013,7.746,7.4088,6.9192,6.288,5.598,4.9212,4.2788,3.9343,3.8126,3.9008,4.4198,5.0609,5.7691,0.0,0.0,0.0,6.4741,6.2661,6.0604,5.5411,5.1244,4.8436,4.459,0.0,3.8141,3.626,3.32,2.8893,2.5379,0.0,0.0,0.0,0.0,0.0,0.0,0.0,0.0,0.0,0.0,0.0,0.6638,0.4929,0.4278,0.3616,0.1221,-0.3242,-0.5366,-0.7135,-0.8884,-1.1504,-1.4243,-1.6689,-1.5161,-1.3879,-1.3722,-0.8146,-0.2004,0.3528,1.0969,1.5826,1.632,1.7658,1.8784,1.9889,3.2249,4.941,6.8699,6.6909,6.3222,5.9243,4.2931,2.6871,1.6766,1.1247,1.2841,2.4291,2.7473,3.0934,4.1378,5.0457,5.6154,5.8253,6.5792,7.2812,7.6365,7.5183,7.2837,7.2581,7.0542,6.9101,6.9286,6.6498,6.2084,7.3196,7.3274,7.3603,7.4448,0.0,7.7984,8.0306,8.2741,8.5514,9.0284,9.6044,9.5958,9.4457,9.1898,8.8794,8.6004,8.346,8.2108,8.157,8.1621,8.1365,8.0318,7.8479,7.4495,6.906,6.216,5.4999,4.7886,4.1037,3.6893,3.5628,3.6989,4.1633,4.7638,5.4825,5.9652,6.3209,6.558,6.3326,6.0674,5.7648,5.2741,4.8359,4.4598,4.0646,0.0,0.0,0.0,0.0,0.0,0.0,0.0,0.0,0.0,0.0,1.375,1.2748,1.2216,1.234,1.074,0.949,0.8797,0.6058,0.3997,0.3096,0.2601,0.0816,-0.3015,-0.5389,-0.7577,-1.0076,-1.3339,-1.6459,-1.8721,-1.7009,-1.5554,-1.436,-0.7967,-0.1462,0.3408,0.9528,1.4057,1.4943,1.5596,1.6501,1.837,3.2422,5.1171,7.1317,7.1428,6.4715,5.6077,4.0163,2.52,1.6947,1.3127,1.6055,2.852,3.2994,3.7516,4.7175,5.5746,6.2035,6.4411,6.9526,7.4459,7.6173,7.4697,7.2406,7.0603,6.7609,6.4378,6.2638,6.0017,5.6352,7.2734,7.3707,7.5157,7.6955,7.888,8.1924,8.6311,9.1298,9.1948,0.0,0.0,9.8135,9.633,9.3915,9.0301,8.735,8.5165,8.4087,8.359,8.3575,8.3223,8.1846,7.9406,7.4799,6.8699,6.1326,5.3779,4.6314,3.8949,3.4354,3.2951,3.4789,3.8974,4.4704,5.1603,5.7463,6.1087,6.2459,6.0992,5.8324,5.4404,5.0057,4.5576,4.0954,3.7224,3.3226,2.9297,2.6371,2.347,2.0525,1.7001,1.4883,1.4461,1.3837,1.3861,1.4575,1.469,1.4401,1.3646,1.0851,0.872,0.754,0.4663,0.2755,0.2108,0.1935,0.0517,-0.2542,-0.5486,-0.8282,-1.0762,-1.493,-1.836,-2.0418,-1.8477,-1.6824,-1.5308,-0.7887,-0.0649,0.4142,0.8149,1.0833,1.2603,1.3053,1.3476,1.6812,3.1168,5.1354,6.9725,7.1811,6.407,5.1445,3.8041,2.6012,1.7398,1.441,1.9807,3.2312,3.7074,4.254,5.2129,6.0223,6.5654,6.8157,7.1437,7.2721,7.2496,7.0782,6.9071,6.6791,6.2905,5.8773,5.5592,5.3174,5.029,7.269,7.4848,7.7814,8.0015,8.2005,8.698,9.3404,10.0265,9.9874,10.0152,10.0892,9.9867,9.7554,9.4129,9.1863,8.926,8.6585,8.6756,8.6457,8.5759,8.5135,8.3563,8.0925,7.5269,6.8575,6.0852,5.1865,4.3504,3.6188,3.1223,2.9293,3.0366,3.52,4.287,5.223,5.4983,5.5907,5.543,5.5827,5.4387,5.1125,4.6959,4.2974,3.9243,3.5994,3.2116,2.7502,2.561,2.2936,1.9197,1.7937,1.6811,1.5428,1.5189,1.4973,1.4404,1.3833,1.3195,1.2475,0.8956,0.6361,0.5202,0.3212,0.2217,0.249,0.2614,0.1471,-0.1733,-0.6068,-0.9451,-1.0886,-1.5794,-1.9783,-2.1197,-1.9353,-1.7616,-1.6685,-0.8604,-0.0223,0.6747,0.9474,1.0026,1.0582,1.1514,1.1563,1.3297,3.1138,5.0134,6.6569,6.9219,6.2322,5.0794,3.857,2.6323,1.6631,1.437,1.9857,3.0672,3.707,4.3623,5.3537,6.0506,6.6006,7.0214,7.047,6.7863,6.2526,6.3067,6.2718,6.0032,5.6441,5.324,5.0655,4.7915,4.4883,7.367,7.6652,7.9501,8.277,8.6534,9.315,9.9055,10.4055,10.4795,10.4594,10.3825,10.2465,10.039,9.7753,9.4879,9.2293,8.9977,8.9566,8.8575,8.7138,8.6377,8.3992,8.0013,7.406,6.689,5.8626,4.8821,4.017,3.2916,2.7546,2.5388,2.6695,3.3933,4.1634,4.8752,5.0629,5.1007,5.047,5.1627,5.063,4.745,4.4261,4.0952,3.7658,3.5562,3.2447,2.7824,2.5355,2.2496,1.9274,1.7702,1.6899,1.7096,1.6276,1.5535,1.5221,1.3914,1.2399,1.094,0.6951,0.4643,0.4873,0.2969,0.2139,0.2842,0.2947,0.1731,-0.1608,-0.5826,-0.9665,-1.3015,-1.7608,-2.0654,-2.1607,-2.0433,-1.839,-1.5214,-0.9996,-0.3412,0.2507,0.487,0.5943,0.6362,0.8621,1.2268,1.6461,3.8446,6.0563,7.0546,6.9847,6.3776,5.148,3.8197,2.6724,1.7699,1.4547,1.8172,2.7305,3.4205,4.2243,5.1705,5.8063,6.3402,6.9368,6.7441,6.0371,5.2247,5.3985,5.4993,5.3394,5.1016,4.8693,4.7461,4.6328,4.5026,7.4793,7.8324,8.147,8.6274,9.2365,9.8903,10.3599,10.6704,10.8328,10.8492,10.7371,10.5178,10.3066,10.1009,9.7539,9.4861,9.3037,9.1376,8.9685,8.7947,8.6441,8.3246,7.8354,7.1943,6.4313,5.5574,4.549,3.6689,2.9466,2.3861,2.2147,2.4668,3.2645,3.9331,4.4091,4.586,4.6552,4.6531,4.7442,4.6784,4.4343,4.206,3.941,3.6644,3.5091,3.2372,2.8129,2.476,2.1753,1.9245,1.7292,1.6928,1.815,1.6892,1.6089,1.5872,1.4039,1.1504,0.8377,0.4781,0.2928,0.3596,0.2143,0.1839,0.2987,0.3099,0.161,-0.1876,-0.5481,-0.9843,-1.4931,-1.8942,-2.1079,-2.1445,-2.0961,-1.915,-1.5021,-1.1758,-0.8398,-0.3686,-0.0232,0.2115,0.3252,0.7348,1.5265,2.8468,5.2398,7.0635,7.2925,7.1775,6.5279,5.2577,3.8208,2.6358,1.9454,1.4327,1.5189,2.2434,2.882,3.6527,4.514,5.1119,5.7381,6.3565,6.0334,5.2449,4.4726,4.586,4.7949,4.7007,4.6216,4.6333,4.8349,4.9249,4.8187,7.5642,7.9586,8.4356,9.1678,9.9522,10.3132,10.6444,10.9483,11.0978,11.1669,11.1221,10.7522,10.4445,10.1893,9.8696,9.6205,9.4184,9.1256,8.9261,8.7665,8.4386,8.0654,7.6157,6.8807,6.0815,5.2118,4.2127,3.3172,2.5635,2.0352,1.9887,2.4216,2.9679,3.4648,3.8781,4.1422,4.2862,4.3279,4.3004,4.2724,4.221,4.0796,3.8873,3.6385,3.4088,3.101,2.6893,2.3406,2.0371,1.8133,1.7261,1.7066,1.7541,1.7319,1.6754,1.5937,1.3658,0.9977,0.4717,0.2177,0.0486,-0.0345,0.0181,0.1306,0.3051,0.3253,0.1278,-0.2828,-0.5915,-1.0187,-1.56,-1.9597,-2.1567,-2.1218,-2.1107,-1.9789,-1.735,-1.5526,-1.2912,-0.9063,-0.3037,0.115,0.2649,1.073,2.3459,3.9564,5.9628,7.4364,7.5,7.4584,6.8796,5.5366,4.0554,2.6762,1.6975,1.1658,1.0792,1.4084,2.0091,2.7714,3.4687,4.1135,4.7066,5.359,5.1916,4.485,4.0891,3.9778,4.2697,4.3839,4.444,4.6225,5.1102,5.4174,5.3324,7.5179,7.9176,8.4723,9.2834,10.1912,10.5925,10.8703,11.076,11.2295,11.2945,11.2541,10.9974,10.7111,10.4205,10.1456,9.8822,9.5991,9.1036,8.6968,8.3916,8.069,7.6267,7.0476,6.3507,5.5626,4.6954,3.6846,2.8391,2.1653,1.6173,1.5558,1.9492,2.442,2.9434,3.4127,3.7205,3.9226,4.0666,4.1045,4.0976,4.0421,3.9683,3.7791,3.5059,3.214,2.8821,2.5068,2.0805,1.7878,1.7106,1.6971,1.7291,1.8208,1.8081,1.7708,1.6596,1.302,0.8026,0.1705,-0.0792,-0.2477,-0.3527,-0.2233,-0.0193,0.2966,0.3395,0.1807,-0.2594,-0.7217,-1.1737,-1.5629,-1.9203,-2.166,-2.2234,-2.2491,-2.2198,-2.078,-2.0675,-1.8963,-1.3668,-0.6446,-0.0927,0.3351,1.8729,3.504,4.8492,6.378,7.4493,7.5851,7.6639,7.1117,5.8155,4.2806,2.7296,1.4195,0.7385,0.5797,0.6457,0.942,1.5109,2.287,2.9259,3.5885,4.4185,4.3011,4.1084,3.9047,3.9533,4.1562,4.321,4.7978,5.2,5.6395,5.9037,5.9439,7.4761,7.9743,8.7542,9.6203,10.4664,10.8689,11.0989,11.2099,11.3708,11.4066,11.3341,11.1221,10.822,10.4778,10.2191,9.9098,9.5074,8.8861,8.3422,7.8957,7.5472,7.0451,6.4255,5.7402,4.9824,4.144,3.1873,2.3135,1.6077,1.1993,1.1573,1.5313,2.0028,2.5138,3.0233,3.3837,3.6614,3.8486,3.9553,3.9811,3.9089,3.8383,3.6713,3.3947,3.0516,2.691,2.3353,1.8832,1.6305,1.6134,1.642,1.7088,1.828,1.8749,1.805,1.6145,1.2637,0.7232,0.0317,-0.3578,-0.5597,-0.5769,-0.4217,-0.1803,0.145,0.3113,0.2408,-0.0257,-0.6544,-1.1583,-1.4782,-1.8523,-2.1691,-2.339,-2.4425,-2.528,-2.4889,-2.61,-2.4802,-1.8178,-1.0697,-0.2065,0.709,2.7102,4.5789,5.4273,6.7145,7.7538,7.9008,7.9605,7.4327,5.9054,4.2928,2.7057,1.2281,0.4045,0.0964,-0.1579,-0.0405,0.3934,1.1391,1.8491,2.6534,3.5204,3.5706,3.9424,4.3103,4.423,4.4629,4.804,5.2527,5.7782,6.1639,6.3897,6.5883,7.4597,8.1937,9.5289,10.3433,10.8175,11.1576,11.3388,11.3912,11.5406,11.5352,11.3878,11.0433,10.6526,10.214,9.8807,9.519,9.0252,8.3328,7.7589,7.3011,6.7994,6.3073,5.8385,5.0857,4.352,3.627,2.7461,1.796,0.8464,0.7187,0.8689,1.2725,1.7324,2.2387,2.7768,3.2037,3.5171,3.6938,3.8225,3.8635,3.7857,3.6859,3.5397,3.3163,2.9455,2.5523,2.1797,1.8478,1.6085,1.5195,1.5705,1.6486,1.7759,1.8635,1.7673,1.4422,1.2313,0.8044,0.0824,-0.5732,-0.8939,-0.7572,-0.5907,-0.3511,-0.128,0.1873,0.3592,0.3608,-0.3029,-0.8837,-1.2616,-1.7709,-2.1569,-2.3659,-2.6877,-2.8588,-2.9014,-3.1413,-2.9611,-2.2714,-1.4613,-0.2009,1.6848,3.6095,5.1064,6.2032,7.4896,8.5144,8.7918,8.5108,7.2829,5.4664,3.818,2.4352,1.3168,0.214,-0.5759,-0.8539,-0.7931,-0.4601,0.2697,1.0579,2.0117,2.8269,3.3322,3.9788,4.749,5.1185,5.1662,5.4147,5.7891,6.2458,6.5613,6.8009,6.9177,7.761,8.9988,9.9292,10.5917,11.0436,11.3162,11.4433,11.4752,11.5129,11.4545,11.2643,10.8398,10.3327,9.7971,9.0963,8.6442,8.3131,7.4205,6.6521,6.0926,5.802,5.408,4.8602,4.2029,3.5726,2.9499,2.1957,1.378,0.5958,0.5049,0.6911,1.0622,1.4761,1.9585,2.4845,2.9079,3.2169,3.4203,3.5667,3.62,3.5787,3.4534,3.2538,2.9788,2.7228,2.4154,2.0281,1.7448,1.5674,1.4937,1.5755,1.6734,1.8216,1.85,1.719,1.4344,1.264,0.839,0.0694,-0.5828,-0.9707,-1.0056,-0.9779,-0.7653,-0.3558,-0.0243,0.2688,0.4377,0.058,-0.4518,-0.8138,-1.4234,-1.9992,-2.3819,-2.8708,-3.2003,-3.3108,-3.4574,-3.3177,-2.5778,-1.3919,0.2546,1.9489,4.1437,5.8509,6.7039,8.0311,9.1305,9.5555,8.87,6.8964,3.6615,2.1915,1.3008,-0.1794,-0.6365,-1.1158,-1.4164,-1.4122,-0.6739,0.0414,1.4391,2.525,2.9822,3.429,4.6069,5.5921,5.9684,5.9951,6.2073,6.5765,6.6161,6.9026,6.8821,6.911,8.3114,9.6268,10.302,10.8327,11.2686,11.4589,11.5156,11.4704,11.4267,11.2724,10.9597,10.4292,9.8006,9.0696,8.1594,7.5046,7.1323,6.4245,5.7475,5.0961,4.8278,4.4393,3.9357,3.3744,2.8513,2.3293,1.6248,0.9469,0.4657,0.3966,0.5831,0.9196,1.319,1.7711,2.2828,2.6692,2.9467,3.1381,3.2508,3.2929,3.2495,3.1224,2.89,2.6102,2.4317,2.2112,1.8999,1.6776,1.5572,1.5699,1.6454,1.7652,1.8828,1.8005,1.6398,1.3995,1.2614,0.8575,0.0728,-0.5168,-0.9122,-1.1154,-1.2275,-1.1241,-0.7407,-0.3436,0.2742,0.744,0.4494,-0.0293,-0.3245,-0.9316,-1.6333,-2.269,-2.9296,-3.3879,-3.5614,-3.6683,-3.3425,-2.5799,-1.2222,0.3087,1.8972,4.2359,5.908,6.9562,8.4588,9.7128,10.3871,9.2676,6.2753,1.6801,0.5266,-0.2903,-1.3671,-1.9677,-1.7711,-1.9521,-1.1086,-0.5126,0.6142,1.9925,2.935,3.2639,4.1612,5.4555,6.282,6.7054,6.9328,7.0959,7.0578,7.0432,7.0082,6.7978,6.6618,9.1321,10.0745,10.6831,11.1354,11.4818,11.5842,11.5388,11.3801,11.2763,10.9306,10.4029,9.7939,8.974,8.0997,7.1268,6.2396,5.5767,5.3819,5.0449,4.4825,3.9146,3.4598,3.073,2.61,2.2009,1.8053,1.0476,0.5992,0.4234,0.3929,0.5433,0.88,1.2499,1.6771,2.2004,2.4696,2.7111,2.8276,2.8707,2.8633,2.8132,2.6816,2.4902,2.2532,2.0654,1.9137,1.8005,1.6524,1.6177,1.7081,1.8025,1.894,1.9057,1.7153,1.4938,1.3095,1.1975,0.7817,0.0757,-0.4213,-0.7991,-1.0262,-1.2921,-1.3727,-1.1997,-0.6035,0.3194,1.2131,0.9158,0.3251,0.1493,-0.4267,-1.1564,-1.9697,-2.7634,-3.3603,-3.6105,-3.7488,-3.4502,-2.4163,-1.2991,0.0,1.6197,3.8919,5.8806,7.2727,8.6196,9.9745,10.77,9.4952,5.9013,1.1476,-0.9277,-1.4319,-2.3887,-3.2064,-2.7757,-2.2776,-0.9314,0.1339,1.7697,3.2142,4.0654,4.5489,5.6844,6.9139,7.2652,7.61,7.5101,7.5903,7.5073,7.2485,6.9104,6.5981,6.161,9.565,10.3799,10.9358,11.3307,11.5815,11.5809,11.4085,11.0969,10.7645,10.2413,9.5884,8.7945,7.9267,7.011,6.0506,5.1647,4.3586,3.8856,3.6006,3.4832,2.9974,2.5532,2.1735,1.8181,1.45,1.1033,0.7563,0.5181,0.4239,0.3868,0.5352,0.8401,1.1397,1.5065,1.9168,2.1582,2.3398,2.4423,2.4412,2.4182,2.3666,2.2659,2.1039,1.8889,1.7787,1.7297,1.7199,1.7188,1.7695,1.8756,2.0073,2.0134,1.8487,1.6017,1.3318,1.0993,1.0791,0.7565,0.0773,-0.3897,-0.7311,-0.9504,-1.1672,-1.2968,-1.2166,-0.6119,0.1955,1.0438,1.0283,0.9281,0.5554,-0.2125,-0.9408,-1.5548,-2.5272,-3.2334,-3.4157,-3.4803,-3.1815,-2.6068,-2.0093,-0.8211,1.3562,3.8908,6.1386,7.1951,8.3677,9.5503,10.3095,8.3155,4.5387,-0.2326,-1.2243,-2.1967,-2.9032,-2.8871,-2.1271,-1.1958,0.0861,1.5466,3.1313,4.53,5.3131,6.0005,7.1456,7.8116,8.1839,8.262,8.0936,7.8781,7.6934,7.2735,6.7511,6.2167,5.6748,9.9477,10.6208,11.0576,11.3203,11.4299,11.2769,10.9552,10.514,9.9856,9.3458,8.5987,7.7684,6.8717,5.952,5.0577,4.2213,3.4261,2.7243,2.4088,2.3785,2.1433,1.7725,1.4537,1.1819,0.9555,0.7326,0.5799,0.5039,0.4765,0.4606,0.5613,0.8039,1.061,1.3394,1.6571,1.857,1.9941,2.0434,2.0171,1.9719,1.9138,1.816,1.6827,1.5348,1.5201,1.5859,1.6814,1.8572,1.9954,2.0803,2.1211,1.9896,1.7222,1.4373,1.1514,0.9403,0.8233,0.6076,0.0389,-0.3127,-0.6316,-0.8407,-1.0734,-1.1843,-1.0468,-0.5355,0.1091,0.7828,1.0543,1.1811,0.9709,0.3167,-0.3493,-0.6997,-1.9978,-2.9171,-3.2086,-3.2355,-2.9921,-2.6129,-2.4495,-1.1514,1.2388,4.1135,6.2946,7.179,7.9298,8.7091,9.0385,6.9398,3.047,-0.1731,-1.8519,-2.6471,-3.2029,-2.6041,-1.4892,-0.0739,1.4127,3.0817,4.7601,6.1699,7.2061,7.2587,8.0573,8.1574,8.4801,8.472,8.3574,8.1165,7.7553,7.1161,6.4563,5.5487,4.9376,10.2532,10.7618,11.0347,11.0858,11.011,10.7121,10.228,9.6487,9.039,8.3126,7.5035,6.7003,5.8521,4.9494,4.1619,3.4173,2.6664,2.1288,1.6488,1.3799,1.2481,1.1567,0.9453,0.7605,0.6764,0.6412,0.5467,0.5313,0.5666,0.5294,0.5992,0.7477,0.9758,1.2164,1.4156,1.6013,1.6827,1.684,1.6318,1.5606,1.5049,1.3801,1.2622,1.1998,1.2764,1.4191,1.6736,2.0364,2.2517,2.267,2.1255,1.8905,1.5753,1.2489,0.973,0.7666,0.638,0.4168,0.0578,-0.2133,-0.4684,-0.743,-0.9509,-1.078,-0.9515,-0.4677,0.15,0.8477,1.0262,1.1524,1.2722,0.9534,0.501,0.076,-1.5097,-2.6326,-3.1278,-3.0321,-2.7338,-2.3496,-2.3494,-1.4762,1.6996,4.5782,6.3058,6.9776,7.5343,8.0353,7.8014,5.8894,2.7676,0.3977,-1.5307,-1.8271,-1.9709,-1.0902,0.1261,1.9939,3.3252,4.7501,6.1459,7.4535,8.2247,8.3438,8.2781,8.4445,8.5642,8.5263,8.3768,8.0682,7.5382,6.8597,5.9984,5.0545,4.3076,10.0319,10.294,10.4707,10.4799,10.3305,9.9434,9.3783,8.7072,7.9509,7.1414,6.3093,5.5422,4.8173,4.0449,3.3843,2.733,2.1689,1.6555,1.2498,0.9124,0.7413,0.6606,0.577,0.5322,0.5431,0.586,0.5679,0.5697,0.6076,0.5571,0.5678,0.6536,0.811,0.9705,1.1583,1.2978,1.3559,1.3611,1.3051,1.2608,1.2406,1.1477,1.0703,0.9871,1.0774,1.33,1.6752,2.1572,2.4394,2.4432,2.1064,1.7848,1.5063,1.1501,0.8768,0.7113,0.5414,0.3749,0.1141,-0.1525,-0.4004,-0.628,-0.8441,-0.8824,-0.7744,-0.3402,0.1867,0.6904,0.944,1.1437,1.2417,1.0632,0.4973,-0.6196,-1.6677,-2.4313,-2.593,-2.7904,-2.5283,-1.2884,0.0152,1.5643,3.1756,5.4916,7.3344,7.2241,7.144,7.0784,6.7409,5.4285,2.5778,1.1757,-0.2774,-0.3666,-0.1813,0.6641,2.0177,4.0951,5.4619,6.5064,7.5495,8.4026,8.6433,8.6236,8.1236,8.0966,8.3329,8.4458,8.2171,7.889,7.2496,6.5061,5.4491,4.4797,3.8227,9.6395,9.7409,9.7602,9.6574,9.4262,8.9565,8.3142,7.5529,6.7781,5.9823,5.1994,4.5659,3.945,3.3478,2.8251,2.2832,1.7588,1.3287,0.9774,0.71,0.5422,0.4498,0.4053,0.4182,0.4854,0.5786,0.591,0.6225,0.6394,0.5712,0.5679,0.6149,0.6704,0.774,0.9004,1.0397,1.1099,1.0962,1.0806,1.0445,0.8759,0.7266,0.6457,0.6257,0.7859,1.1646,1.7758,2.2265,2.4327,2.3615,2.0522,1.6814,1.3534,0.9885,0.7416,0.6213,0.3907,0.1859,0.0748,-0.1311,-0.3547,-0.5649,-0.745,-0.7382,-0.6034,-0.2516,0.1786,0.621,0.9098,1.0775,1.1095,0.8779,0.1996,-0.7089,-1.6189,-2.102,-2.1546,-1.8635,-1.6011,-0.5106,1.3613,3.4818,4.2562,6.6582,7.5004,7.3549,6.8855,6.5201,5.9429,4.3309,3.1363,1.9259,1.4862,1.5635,1.9731,2.7748,3.6433,5.6659,6.7927,7.9505,8.3003,8.8891,8.6572,8.4022,7.9837,7.7568,7.9788,8.065,7.8145,7.3932,6.8147,6.0546,5.0271,4.2814,3.5961,9.057,9.0265,8.8857,8.6699,8.3488,7.8222,7.1304,6.3262,5.6244,4.9193,4.2587,3.7551,3.3271,2.8205,2.452,1.9591,1.4586,1.1372,0.832,0.6093,0.4913,0.4458,0.416,0.4455,0.526,0.638,0.6415,0.6619,0.681,0.6088,0.5765,0.5833,0.5741,0.5946,0.6894,0.8392,0.8892,0.862,0.9001,0.7612,0.4694,0.2542,0.1488,0.1823,0.6873,1.2038,1.8102,2.1847,2.2902,2.2823,1.9212,1.5456,1.1711,0.82,0.6213,0.4916,0.2794,0.1104,-0.0367,-0.1481,-0.2932,-0.5435,-0.6748,-0.6709,-0.5119,-0.2021,0.1869,0.6027,0.8513,0.9874,0.9665,0.5376,0.0256,-0.6328,-1.3,-1.802,-1.674,-0.8136,-0.348,-0.8844,2.129,4.3179,5.6299,6.8856,8.1265,7.5472,7.0315,6.4905,5.7587,4.5232,3.7612,3.192,3.1897,3.6076,4.2152,4.9352,5.8169,7.027,7.8027,8.5738,8.4704,8.6917,8.4233,8.1126,7.7386,7.5299,7.5213,7.4718,7.2676,6.84,6.2372,5.5139,4.7319,4.2462,3.6337,7.9517,7.713,7.6096,7.4199,7.1201,6.6137,5.9972,5.3208,4.6411,4.066,3.5876,3.1922,2.87,2.5484,2.1473,1.7272,1.3076,1.0109,0.7596,0.4843,0.5544,0.5706,0.5483,0.5738,0.6406,0.7471,0.7659,0.758,0.7278,0.6312,0.5434,0.48,0.4713,0.4532,0.475,0.6419,0.7094,0.6302,0.6073,0.4564,0.1922,-0.0443,-0.1676,-0.1173,0.7074,1.3965,1.7821,2.0276,2.0702,1.9446,1.7046,1.3928,1.0817,0.8399,0.6135,0.4221,0.4095,0.2202,-0.1286,-0.2354,-0.3364,-0.5266,-0.6092,-0.582,-0.4371,-0.169,0.1936,0.5497,0.8102,0.9175,0.8571,0.5551,0.1074,-0.4755,-1.3599,-2.0483,-1.7593,-0.62,0.0558,1.073,3.4018,6.1627,6.8077,7.5097,8.0163,7.6728,7.2018,6.6283,5.7388,4.7494,4.2832,3.9362,4.2152,4.4874,4.86,5.5879,6.5018,7.2034,7.9648,8.4137,8.3388,8.2539,7.8917,7.6866,7.5205,7.3439,7.1193,6.8485,6.638,6.1382,5.7222,5.2272,4.7051,4.2112,4.0246,6.9617,6.6497,6.4438,6.2175,5.938,5.4684,4.9273,4.3371,3.7811,3.3115,2.9795,2.6872,2.4584,2.2427,1.8868,1.544,1.1783,0.7231,0.4386,0.3258,0.4212,0.5571,0.6902,0.7184,0.7772,0.8715,0.8637,0.8255,0.756,0.6385,0.4889,0.3344,0.3266,0.3458,0.3666,0.5179,0.589,0.5608,0.4415,0.2547,-0.0,-0.1933,-0.158,0.023,0.7796,1.3692,1.6626,1.8623,1.8506,1.718,1.4889,1.2344,0.9941,0.7704,0.5404,0.3081,0.2621,0.146,-0.1808,-0.2838,-0.3428,-0.5336,-0.6047,-0.5697,-0.4692,-0.2594,0.0719,0.4579,0.7325,0.874,0.833,0.7215,0.3251,-0.3361,-1.2387,-2.0068,-2.2286,-1.2361,0.3154,1.5632,3.7808,5.6199,6.8026,7.7265,8.0922,7.841,7.5129,6.9545,6.3968,5.4839,4.8994,4.6688,4.9512,5.208,5.4159,5.9827,6.7493,7.1449,7.3636,7.5174,7.415,7.3428,7.2471,7.1185,7.0118,6.8178,6.5886,6.3043,5.9993,5.7152,5.3754,5.0517,4.8151,4.5766,4.5411,6.0299,5.6949,5.3646,5.1036,4.8507,4.4443,3.9916,3.481,3.023,2.7286,2.4441,2.2552,2.1175,1.9231,1.6438,1.3544,0.9065,0.4171,0.0388,0.0876,0.2083,0.4049,0.6002,0.7131,0.8127,0.9427,0.9481,0.898,0.7842,0.6302,0.4512,0.2353,0.1833,0.2706,0.3562,0.4334,0.5115,0.5088,0.3734,0.188,-0.0396,-0.1917,-0.0713,0.3293,0.7444,1.1734,1.466,1.6486,1.6852,1.5434,1.2664,1.0445,0.859,0.6481,0.4002,0.1146,0.0186,-0.1267,-0.2634,-0.3087,-0.3768,-0.5657,-0.6467,-0.6353,-0.5583,-0.3976,-0.0719,0.3177,0.6415,0.8233,0.8704,0.8226,0.3802,-0.3599,-1.1293,-2.0874,-2.842,-2.2451,-0.8414,1.2467,3.386,5.368,6.5421,7.4934,7.7987,7.9829,7.6379,7.2674,6.7068,6.1576,5.5151,3.7812,3.4891,4.3013,4.6786,5.0907,6.0062,6.3473,6.5143,6.4168,6.2758,6.0308,5.98,6.4932,6.4622,6.1662,5.8486,5.512,5.2832,5.1954,5.0456,4.7393,4.7642,4.9262,4.968,5.1511,4.7481,4.4419,4.214,4.0137,3.6813,3.3193,2.9264,2.5607,2.312,2.1371,1.9941,1.8483,1.6698,1.4352,0.9388,0.3725,-0.0533,-0.2049,-0.1595,-0.0357,0.1646,0.3839,0.5682,0.7273,0.9104,0.9537,0.9186,0.7838,0.6048,0.402,0.3006,0.1614,0.1917,0.3764,0.4422,0.4126,0.4193,0.2974,0.1471,0.0287,-0.0291,0.0721,0.4766,0.8262,1.1024,1.32,1.458,1.4731,1.3493,1.1005,0.8903,0.6786,0.4462,0.2161,0.0189,-0.238,-0.3902,-0.4255,-0.4065,-0.607,-0.8536,-0.8889,-0.7557,-0.6342,-0.4584,-0.1628,0.2205,0.5387,0.7131,0.75,0.6448,0.1599,-0.7649,-1.6887,-2.4399,-3.1411,-3.1072,-2.4053,-0.3972,2.4022,4.8507,5.6248,6.5764,7.3002,7.505,7.4154,7.2225,6.9117,6.4365,5.9377,3.7006,1.275,2.4675,3.6004,4.0534,4.6439,4.9259,5.0674,5.032,4.8484,4.5335,4.6264,5.051,5.2785,5.0962,4.8219,4.6151,4.4337,4.2556,4.2993,4.3837,4.4694,4.5722,5.0777,4.5132,4.0194,3.7154,3.4822,3.2809,3.0055,2.728,2.4409,2.1213,1.9294,1.8237,1.6773,1.5459,1.3888,1.1378,0.6166,0.0416,-0.2764,-0.3978,-0.385,-0.2405,-0.0639,0.1419,0.3622,0.5668,0.7139,0.8094,0.7972,0.6956,0.4709,0.2864,0.1324,0.0246,0.1263,0.3142,0.3635,0.3513,0.3315,0.2841,0.2232,0.1869,0.1961,0.4189,0.6602,0.9103,1.1221,1.2319,1.2984,1.2579,1.1274,0.9168,0.7194,0.502,0.2665,0.0561,-0.1462,-0.4644,-0.6894,-0.6863,-0.6949,-0.9101,-1.2721,-1.153,-0.9561,-0.8022,-0.6059,-0.2583,0.1821,0.4596,0.6372,0.6966,0.1351,-0.509,-0.9904,-1.9193,-2.6318,-2.9495,-3.1932,-2.5852,-1.7381,-0.0167,2.1177,3.9497,5.0662,6.4412,6.952,7.0259,6.9682,6.8321,6.4331,5.8522,3.5498,1.0918,1.2662,2.4499,2.9561,3.3985,3.6627,3.8065,3.7813,3.648,3.451,3.3238,3.4642,3.6095,3.892,3.8425,3.6454,3.4767,3.3816,3.5336,3.7166,3.9683,4.2808,4.7327,3.9613,3.435,3.1022,2.8777,2.6872,2.4725,2.2624,2.0556,1.7809,1.6341,1.5477,1.3809,1.2408,1.0614,0.7582,0.3239,-0.1973,-0.402,-0.5061,-0.537,-0.3992,-0.2274,-0.0662,0.1347,0.3354,0.4435,0.4467,0.5208,0.4775,0.319,0.0663,-0.1202,-0.1531,-0.0,0.1403,0.2118,0.2685,0.3238,0.3169,0.3102,0.3903,0.5292,0.6844,0.8415,1.0048,1.1051,1.1207,1.1025,1.0584,0.9087,0.7345,0.5347,0.3198,0.0694,-0.1198,-0.3263,-0.7351,-0.909,-1.0103,-1.0681,-1.2451,-1.5546,-1.4004,-1.2147,-0.9455,-0.6837,-0.3174,0.1441,0.316,0.3026,0.1143,-0.6911,-1.2639,-1.614,-2.2343,-2.814,-2.7638,-2.7554,-2.5478,-1.9535,-1.6326,-0.264,2.0024,3.1926,4.5072,5.4946,5.605,5.9988,5.894,5.8631,5.0484,3.0912,1.4175,0.8162,1.2528,1.8095,2.2542,2.626,2.7842,2.8169,2.6844,2.508,2.4459,2.4391,2.473,2.7245,2.6946,2.78,2.7285,2.7544,2.8669,3.0627,3.3317,3.7192,4.1785,3.4735,3.0592,2.6234,2.4004,2.3508,2.1992,2.0364,1.871,1.6496,1.5006,1.388,1.2015,1.0129,0.748,0.3031,-0.0735,-0.3269,-0.4787,-0.5629,-0.5986,-0.51,-0.4045,-0.2931,-0.1415,0.0203,0.1046,0.0264,0.1014,0.1297,0.066,-0.1906,-0.4801,-0.3608,-0.1497,-0.0968,0.016,0.1666,0.2918,0.2737,0.317,0.4623,0.6152,0.7617,0.8557,0.9407,0.9613,0.9291,0.8829,0.8128,0.7927,0.5379,0.3465,0.1882,-0.0461,-0.3464,-0.5916,-0.8157,-0.9938,-1.2179,-1.3353,-1.4624,-1.6347,-1.6059,-1.4543,-1.1247,-0.7118,-0.3699,-0.189,-0.1554,-0.2889,-0.592,-1.1639,-1.8699,-2.2364,-2.5213,-2.9098,-2.9509,-2.4591,-2.2307,-2.0456,-1.6834,-0.8749,0.6563,1.5509,2.4853,3.4333,4.2606,4.6734,4.8922,4.8016,4.3277,2.4208,1.3172,0.7383,0.6788,1.1417,1.7203,1.9835,2.0428,2.1357,2.1265,2.0955,1.7697,1.7686,1.7936,1.9111,2.1383,2.2119,2.1068,2.1364,2.2744,2.4766,2.7129,3.1511,3.6242,2.7459,2.585,2.2375,2.0707,2.0199,1.9326,1.8125,1.6614,1.4789,1.2955,1.1603,1.0322,0.7264,0.3053,-0.1057,-0.3394,-0.4865,-0.5605,-0.6005,-0.6126,-0.5741,-0.5129,-0.4455,-0.3829,-0.2935,-0.2384,-0.3913,-0.5079,-0.4211,-0.4309,-0.6208,-0.8773,-0.7309,-0.5432,-0.3808,-0.2375,-0.0255,0.1555,0.2778,0.3806,0.5146,0.6726,0.7799,0.8064,0.8462,0.8165,0.7379,0.6541,0.5675,0.5043,0.2888,0.1432,-0.013,-0.2052,-0.4425,-0.7007,-0.9187,-1.1563,-1.3915,-1.4802,-1.5766,-1.6344,-1.6174,-1.4262,-1.1465,-0.9091,-0.7744,-0.901,-1.2511,-1.3739,-1.4684,-2.0791,-2.4154,-2.7119,-2.7492,-2.6796,-2.7423,-2.3847,-2.0554,-1.8879,-1.7231,-1.0386,-0.3743,0.5009,1.3853,2.1894,3.0223,3.5645,3.6305,3.494,2.8576,1.827,1.0411,0.4987,0.5979,0.9056,1.7735,2.0941,2.0507,2.0916,1.9941,1.8436,1.6912,1.6055,1.74,1.8043,1.8221,1.7441,1.6972,1.6942,1.6964,2.0107,2.3414,2.6389,3.1078,2.1026,2.025,1.8363,1.7639,1.7372,1.7087,1.6416,1.5217,1.329,1.1447,0.9476,0.7225,0.2948,-0.1224,-0.3789,-0.5215,-0.5998,-0.6519,-0.6572,-0.6488,-0.6325,-0.6016,-0.5558,-0.5329,-0.4809,-0.4087,-0.7224,-0.881,-0.9535,-1.0159,-1.112,-1.2883,-0.9758,-0.8269,-0.6775,-0.4362,-0.1741,0.0391,0.2077,0.3273,0.448,0.6133,0.6669,0.6923,0.6977,0.6866,0.5753,0.4954,0.3966,0.3384,0.1782,0.0224,-0.1761,-0.3074,-0.4493,-0.6818,-0.8933,-1.141,-1.336,-1.4533,-1.5562,-1.6015,-1.5826,-1.4449,-1.2354,-1.1646,-1.5927,-2.076,-2.1631,-2.1988,-2.2527,-2.8826,-2.896,-2.9096,-2.8987,-2.6549,-2.3915,-2.1283,-1.9401,-1.8509,-1.7352,-1.6515,-0.9781,-0.3043,0.4132,1.0677,1.7244,2.3753,2.4635,2.3283,1.9609,1.2562,1.0949,0.6702,0.765,1.0744,1.8264,2.2279,2.1854,2.1652,2.1753,2.1019,1.9974,1.9198,1.838,1.8639,1.9394,1.6295,1.3417,1.4587,1.5776,1.7462,2.0107,2.344,2.6256,1.6354,1.343,1.399,1.4537,1.5279,1.5832,1.5378,1.4224,1.2489,1.052,0.7752,0.2813,-0.1564,-0.4517,-0.5968,-0.6822,-0.7095,-0.7773,-0.8088,-0.7955,-0.7543,-0.7115,-0.6514,-0.5804,-0.5682,-0.6457,-0.9175,-1.1374,-1.3071,-1.4584,-1.5186,-1.4999,-1.195,-0.9819,-0.7936,-0.5868,-0.3152,-0.1159,0.0296,0.1423,0.2452,0.3678,0.4415,0.4855,0.5312,0.5497,0.4516,0.3826,0.3429,0.319,0.1373,-0.0465,-0.2415,-0.3413,-0.4513,-0.5879,-0.7743,-0.9911,-1.148,-1.3445,-1.5225,-1.5716,-1.6027,-1.575,-1.3987,-1.8687,-2.5265,-3.3255,-3.2673,-3.0584,-3.0782,-3.2135,-3.1858,-2.9536,-2.7983,-2.4714,-2.2169,-1.9987,-1.8226,-1.7569,-1.663,-1.5625,-1.4536,-0.7556,-0.5968,-0.0188,0.3911,1.0187,1.3859,1.355,1.3065,1.0239,1.08,0.9883,1.0616,1.4811,2.0268,2.3899,2.4977,2.4931,2.4843,2.4013,2.2678,2.1622,2.079,2.0719,2.0168,1.7264,1.5082,1.4113,1.5035,1.81,2.1128,2.4875,2.5838,1.3456,1.0755,1.0264,1.0841,1.2415,1.318,1.3025,1.2075,1.0816,0.7754,0.3721,-0.0965,-0.4839,-0.7285,-0.8178,-0.9245,-1.0334,-1.0489,-1.0712,-1.0184,-0.9734,-0.8354,-0.7207,-0.6616,-0.6454,-0.792,-1.0531,-1.328,-1.537,-1.7566,-1.8549,-1.7337,-1.4516,-1.3652,-1.1704,-0.7774,-0.4653,-0.3243,-0.206,-0.1059,-0.0464,0.0523,0.1318,0.1837,0.239,0.2517,0.1969,0.164,0.1462,0.1033,-0.0063,-0.146,-0.2688,-0.3448,-0.4261,-0.4959,-0.6549,-0.7886,-1.001,-1.2014,-1.3823,-1.7469,-1.8533,-1.8792,-1.7758,-2.4083,-3.4357,-4.0355,-4.1683,-3.8688,-3.6256,-3.5514,-3.4074,-3.0083,-2.6285,-2.2727,-2.0172,-1.7814,-1.6461,-1.5807,-1.4848,-1.4012,-1.33,-1.1856,-1.1735,-1.1109,-0.7493,-0.3489,0.159,0.5239,0.5209,0.6123,0.6874,0.9437,1.0156,1.5427,2.1351,2.4498,2.7367,2.7172,2.6617,2.6165,2.4947,2.4044,2.2369,2.1089,1.9711,1.8011,1.6869,1.6334,1.7758,2.0409,2.3426,2.6894,2.7408,1.1851,0.9156,0.7578,0.7993,0.9923,1.1098,1.0891,1.0077,0.9244,0.5412,-0.0501,-0.3895,-0.7021,-0.9698,-1.203,-1.2822,-1.4547,-1.5494,-1.5552,-1.5054,-1.3895,-1.1449,-0.9508,-0.8386,-0.8477,-0.9672,-1.1877,-1.4627,-1.7483,-1.9637,-2.1119,-2.0841,-1.8618,-1.6959,-1.3912,-1.0149,-0.6223,-0.5325,-0.4508,-0.3522,-0.3003,-0.2011,-0.1131,-0.0462,0.0258,0.0537,0.031,-0.0,-0.0502,-0.0862,-0.1539,-0.218,-0.2924,-0.3672,-0.4514,-0.5035,-0.5587,-0.6598,-0.9238,-1.2128,-1.4744,-1.8927,-2.2769,-2.3051,-2.4647,-3.0749,-4.1712,-5.0675,-4.9213,-4.4898,-4.036,-3.7228,-3.225,-2.7317,-2.3644,-2.0291,-1.8,-1.5831,-1.4618,-1.37,-1.2819,-1.203,-1.132,-1.0719,-1.0657,-1.0696,-0.828,-0.5942,-0.4864,-0.1984,-0.1179,0.0389,0.231,0.5493,0.8756,1.399,1.9115,2.349,2.6115,2.7772,2.7586,2.7014,2.6316,2.492,2.3214,2.111,1.9142,1.762,1.8019,1.9099,2.1383,2.391,2.7611,3.0837,3.0922,1.1128,0.8611,0.623,0.6483,0.8361,0.9613,0.9657,0.8903,0.7799,0.3944,-0.216,-0.6059,-0.9367,-1.2355,-1.6296,-1.8758,-2.0169,-2.2978,-2.396,-2.214,-2.0287,-1.7424,-1.4475,-1.2631,-1.1792,-1.1931,-1.4195,-1.7068,-1.9654,-2.1595,-2.3508,-2.3762,-2.1365,-1.8028,-1.4797,-1.1036,-0.8567,-0.7492,-0.6765,-0.5723,-0.4719,-0.3651,-0.2715,-0.1913,-0.1106,-0.0718,-0.0681,-0.096,-0.1375,-0.1779,-0.2059,-0.2659,-0.3477,-0.4077,-0.4971,-0.5997,-0.6356,-0.8027,-1.0959,-1.4904,-1.8694,-2.216,-2.6197,-2.8604,-3.0371,-3.7803,-4.6447,-5.3529,-5.1597,-4.7221,-4.2361,-3.6479,-2.985,-2.4556,-2.0878,-1.8155,-1.567,-1.3455,-1.217,-1.1573,-1.0809,-0.9833,-0.9308,-0.8922,-0.8657,-0.8266,-0.7563,-0.7325,-0.7728,-0.7251,-0.5556,-0.4113,-0.1545,0.2278,0.6145,1.1699,1.6734,2.1373,2.4901,2.6506,2.7285,2.6735,2.5938,2.5514,2.3362,2.0723,1.8922,1.7139,1.827,2.0028,2.5032,2.8324,3.2136,3.4639,3.5028,1.045,0.8497,0.6616,0.6329,0.716,0.7397,0.7697,0.7656,0.6661,0.3317,-0.3142,-1.0457,-1.4911,-1.7443,-2.1374,-2.515,-2.8061,-3.1054,-3.2176,-3.0509,-2.7891,-2.4036,-2.0773,-1.8114,-1.647,-1.6711,-1.8232,-2.0233,-2.2849,-2.4071,-2.4987,-2.5222,-2.2395,-1.8156,-1.4641,-1.1753,-1.0528,-0.93,-0.8335,-0.7332,-0.6478,-0.5086,-0.3871,-0.3015,-0.211,-0.1525,-0.1234,-0.1482,-0.1673,-0.1973,-0.2169,-0.273,-0.3565,-0.4174,-0.5285,-0.6757,-0.7821,-1.2528,-1.7474,-2.2123,-2.4028,-2.6901,-3.0042,-3.368,-3.6611,-4.3004,-4.9258,-5.1356,-4.978,-4.4984,-3.9065,-3.2488,-2.629,-2.1305,-1.7913,-1.5729,-1.3397,-1.0982,-0.9513,-0.9264,-0.8539,-0.6453,-0.5259,-0.5523,-0.5411,-0.604,-0.5578,-0.7459,-0.85,-0.8425,-0.7329,-0.6652,-0.4628,-0.0949,0.3357,0.8795,1.4312,1.9238,2.2944,2.5434,2.5862,2.5979,2.6105,2.5838,2.2984,2.0308,1.8074,1.6628,1.8518,2.1144,2.585,3.0937,3.4864,3.7817,3.994,1.108,0.9717,0.7942,0.699,0.6865,0.6527,0.6434,0.6655,0.6191,0.2816,-0.4065,-1.3386,-1.9374,-2.2277,-2.7392,-3.2364,-3.647,-4.0207,-4.1046,-3.9256,-3.5849,-3.2059,-2.8272,-2.4806,-2.3096,-2.2547,-2.2879,-2.4524,-2.6126,-2.6614,-2.6598,-2.5363,-2.2479,-1.8852,-1.5548,-1.363,-1.2249,-1.1,-0.9839,-0.8772,-0.7516,-0.6134,-0.4797,-0.376,-0.2875,-0.2223,-0.1836,-0.1669,-0.1635,-0.1828,-0.2167,-0.2716,-0.3596,-0.4648,-0.5856,-0.7556,-1.117,-1.616,-2.1801,-2.5176,-2.697,-2.9806,-3.3907,-3.7524,-4.0806,-4.4841,-4.8047,-4.9149,-4.6349,-4.1803,-3.6251,-2.9636,-2.3018,-1.8138,-1.6064,-1.4072,-1.1183,-0.882,-0.6823,-0.6517,-0.5779,-0.3524,-0.1518,-0.173,-0.1944,-0.2914,-0.4074,-0.6308,-0.8606,-0.8731,-0.8652,-0.8178,-0.6539,-0.2841,0.1308,0.5713,1.1282,1.6828,2.067,2.3984,2.4886,2.5016,2.5699,2.5862,2.3201,2.0172,1.7107,1.6164,1.8075,2.1479,2.6157,3.1514,3.7041,3.9891,4.2319,1.2869,1.2001,1.0161,0.8587,0.7265,0.6255,0.6104,0.6356,0.5683,0.1615,-0.5044,-1.4449,-2.195,-2.7777,-3.4609,-4.0146,-4.4129,-4.8486,-4.8707,-4.7057,-4.3571,-3.9837,-3.6151,-3.2724,-2.9939,-2.8452,-2.8196,-2.8609,-2.9566,-2.869,-2.7635,-2.5484,-2.2508,-1.9127,-1.6544,-1.454,-1.3118,-1.1687,-1.0628,-0.9359,-0.7926,-0.6644,-0.5302,-0.421,-0.3267,-0.256,-0.2096,-0.1842,-0.1857,-0.207,-0.2401,-0.3299,-0.4334,-0.5501,-0.7005,-0.9674,-1.3785,-1.8612,-2.3028,-2.5727,-2.8436,-3.107,-3.4659,-3.8781,-4.1566,-4.3541,-4.5687,-4.6131,-4.3987,-3.9475,-3.4468,-2.6929,-1.9512,-1.6838,-1.4992,-1.225,-0.9105,-0.6605,-0.4459,-0.356,-0.2948,-0.1243,0.0905,0.1287,0.1114,-0.0374,-0.1875,-0.4177,-0.6548,-0.8756,-0.8699,-0.9084,-0.7065,-0.4155,-0.0186,0.4028,0.8926,1.4827,1.8947,2.224,2.3098,2.4069,2.4503,2.4275,2.2792,2.0321,1.6977,1.6427,1.7861,2.1811,2.6061,3.1501,3.6865,4.0435,4.2754,1.5955,1.6001,1.3972,1.0944,0.7408,0.5146,0.4574,0.5124,0.4381,0.0295,-0.6778,-1.9555,-2.7763,-3.4012,-4.1869,-4.7474,-5.166,-5.4683,-5.5172,-5.3259,-4.9608,-4.6338,-4.2775,-3.9081,-3.6184,-3.4137,-3.3166,-3.2662,-3.2239,-3.1016,-2.7549,-2.4777,-2.1639,-1.8636,-1.6137,-1.4094,-1.2658,-1.1426,-1.0438,-0.9318,-0.7957,-0.6543,-0.5379,-0.4371,-0.3262,-0.2593,-0.2202,-0.1857,-0.1889,-0.2208,-0.2515,-0.3338,-0.4789,-0.616,-0.7948,-1.2074,-1.562,-1.9243,-2.2906,-2.5274,-2.7688,-3.0032,-3.2033,-3.5115,-3.8154,-4.0412,-4.1641,-3.9643,-3.8724,-3.43,-3.0183,-2.375,-1.7353,-1.3904,-1.2712,-1.1606,-0.8479,-0.5492,-0.3292,-0.097,-0.0331,0.1698,0.3637,0.4342,0.3861,0.2318,0.0362,-0.2014,-0.4644,-0.6958,-0.892,-0.9303,-0.7544,-0.4657,-0.1283,0.2703,0.7563,1.2532,1.7173,2.0769,2.2061,2.2992,2.3305,2.2969,2.1739,1.9472,1.6604,1.6952,1.8147,2.1365,2.555,3.1166,3.6436,3.9851,4.2604,1.8598,1.8269,1.5515,1.0763,0.4888,0.108,-0.0841,-0.1269,0.0129,-0.3046,-1.1217,-2.3146,-3.3239,-4.1433,-4.8504,-5.4063,-5.7858,-5.8776,-5.9016,-5.7236,-5.3913,-5.0818,-4.7503,-4.4177,-4.0876,-3.8797,-3.7052,-3.6003,-3.4254,-3.0333,-2.6611,-2.3172,-2.0125,-1.7131,-1.4561,-1.2587,-1.094,-0.9982,-0.9171,-0.8473,-0.7394,-0.6176,-0.5259,-0.4213,-0.3064,-0.2572,-0.2179,-0.1827,-0.1971,-0.2339,-0.2649,-0.3703,-0.5315,-0.6932,-0.9676,-1.3486,-1.6232,-1.9208,-2.2338,-2.4714,-2.691,-2.855,-2.9169,-3.0991,-3.3079,-3.5023,-3.2446,-2.9707,-2.9562,-2.8368,-2.4752,-2.0847,-1.5531,-1.0436,-1.0728,-1.1135,-0.809,-0.4866,-0.2072,0.0767,0.2843,0.4875,0.6256,0.6913,0.6308,0.407,0.1905,-0.0176,-0.305,-0.6038,-0.8328,-0.9499,-0.7586,-0.4949,-0.1622,0.1952,0.6966,1.1968,1.6659,1.9785,2.1147,2.2021,2.2565,2.1954,2.0898,1.8734,1.697,1.7566,1.8946,2.2173,2.5674,3.0795,3.5543,3.9143,4.1268,2.0637,1.9048,1.4672,0.7212,-0.0337,-0.6067,-1.0469,-1.295,-0.9403,-1.0004,-1.8319,-2.7128,-3.8182,-4.7732,-5.4249,-5.8414,-6.0644,-6.1487,-6.0594,-5.9927,-5.5913,-5.2738,-5.0183,-4.7931,-4.3429,-4.1384,-3.9337,-3.6847,-3.3864,-2.9585,-2.4805,-2.1341,-1.7951,-1.511,-1.2867,-1.0956,-0.9312,-0.7955,-0.7679,-0.7314,-0.6402,-0.5546,-0.484,-0.3706,-0.2984,-0.2497,-0.2121,-0.1992,-0.2066,-0.2527,-0.3175,-0.4221,-0.6217,-0.851,-1.1616,-1.4249,-1.689,-1.9376,-2.2052,-2.4468,-2.6498,-2.7677,-2.7968,-2.8542,-2.9908,-3.0514,-2.7854,-2.4073,-2.3813,-2.5152,-2.2867,-2.0736,-1.6691,-1.2967,-1.1918,-1.1446,-0.9199,-0.4747,0.0707,0.3374,0.606,0.7929,0.8674,0.9141,0.7578,0.5325,0.3299,0.1347,-0.1548,-0.4936,-0.7881,-0.9784,-0.7776,-0.5378,-0.1773,0.2096,0.6735,1.1728,1.6237,1.9228,2.0879,2.1469,2.1812,2.1291,2.0646,1.9436,1.8143,1.8935,2.0246,2.2967,2.6544,3.0596,3.4758,3.8728,4.0514,1.9888,1.7625,0.7306,-0.1926,-0.9922,-1.7605,-2.3433,-2.7881,-2.9995,-2.9276,-3.019,-3.8001,-4.6114,-5.3713,-5.8286,-6.172,-6.2734,-6.2265,-6.1037,-5.8858,-5.595,-5.2856,-5.0214,-4.6973,-4.4063,-4.1999,-3.9476,-3.5676,-3.1449,-2.707,-2.3281,-2.0372,-1.6664,-1.3426,-1.1359,-0.947,-0.7734,-0.6306,-0.5794,-0.5728,-0.5097,-0.455,-0.3891,-0.3381,-0.296,-0.2552,-0.2269,-0.2263,-0.2679,-0.3231,-0.3761,-0.538,-0.7809,-1.0676,-1.2949,-1.5095,-1.7906,-2.0211,-2.2324,-2.4649,-2.6744,-2.7518,-2.7656,-2.7221,-2.7079,-2.6942,-2.5168,-2.1289,-1.9763,-2.1451,-2.1666,-1.9983,-1.8272,-1.5575,-1.3262,-1.1904,-1.0264,-0.3603,0.2834,0.6163,0.8858,1.0366,1.105,1.0158,0.8552,0.6594,0.4552,0.2246,-0.0819,-0.4193,-0.8402,-1.0076,-0.8261,-0.5591,-0.2079,0.1892,0.6636,1.0953,1.5451,1.8114,2.057,2.148,2.2106,2.1412,2.0662,1.9668,1.9532,2.027,2.1849,2.414,2.7371,3.1685,3.5582,3.9464,4.0419,1.8702,1.3371,-0.1447,-1.292,-2.1419,-2.9107,-3.497,-3.9543,-4.3925,-4.544,-4.4801,-4.8843,-5.3416,-5.8739,-6.2271,-6.3544,-6.4103,-6.2562,-6.0668,-5.8264,-5.5184,-5.1978,-4.8913,-4.5799,-4.2797,-4.0414,-3.5901,-3.1662,-2.8095,-2.4225,-2.068,-1.8175,-1.465,-1.2001,-0.9987,-0.8079,-0.6529,-0.5323,-0.4364,-0.3901,-0.3811,-0.3495,-0.334,-0.3057,-0.2687,-0.2414,-0.256,-0.2576,-0.2939,-0.3947,-0.4894,-0.6981,-0.9373,-1.1828,-1.4162,-1.65,-1.8988,-2.1431,-2.3274,-2.5371,-2.7308,-2.8025,-2.9474,-2.98,-2.9,-2.8732,-2.6202,-2.2748,-2.2279,-2.3595,-2.0582,-1.8544,-1.7772,-1.5858,-1.5306,-1.4744,-0.8445,-0.0609,0.4198,0.7529,1.0437,1.3361,1.357,1.238,1.0476,0.7637,0.5559,0.3226,0.0157,-0.3835,-0.8169,-1.0511,-0.8964,-0.6142,-0.2551,0.1689,0.6376,1.0628,1.4652,1.7649,2.0291,2.1682,2.2355,2.1535,2.0934,2.0638,2.0773,2.1329,2.3229,2.5583,2.8974,3.2631,3.6431,4.0018,4.1414,1.3935,0.4329,-1.2133,-2.4539,-3.3398,-4.0042,-4.5279,-4.9571,-5.3635,-5.7214,-5.8954,-5.7352,-5.9774,-6.2765,-6.5198,-6.562,-6.5018,-6.2801,-6.0497,-5.7503,-5.4258,-5.0996,-4.776,-4.4562,-4.0452,-3.5962,-3.1411,-2.8135,-2.4967,-2.1149,-1.7871,-1.5286,-1.3,-1.0726,-0.8659,-0.7078,-0.5826,-0.4528,-0.3539,-0.2802,-0.2628,-0.264,-0.2716,-0.2519,-0.2259,-0.2251,-0.2581,-0.2873,-0.3092,-0.4412,-0.6008,-0.8203,-1.0401,-1.2606,-1.4911,-1.7312,-2.0091,-2.224,-2.4339,-2.6995,-2.8487,-2.9852,-3.1781,-3.2249,-3.1289,-2.9888,-2.7367,-2.6311,-2.5871,-2.3941,-2.0966,-1.8627,-1.7914,-1.7225,-1.732,-1.5211,-0.6589,0.1731,0.5618,0.9063,1.2373,1.5658,1.5483,1.4304,1.1932,0.8986,0.6327,0.3971,0.0901,-0.3831,-0.8462,-1.0269,-1.014,-0.6916,-0.3319,0.1159,0.5596,1.0003,1.396,1.7327,2.0005,2.1372,2.1969,2.127,2.0816,2.0983,2.1543,2.2248,2.4368,2.6874,2.9996,3.3455,3.7365,4.0649,4.2586,-0.1976,-1.984,-2.8405,-3.599,-4.3066,-4.9235,-5.4743,-5.9121,-6.1394,-6.3643,-6.3862,-6.4763,-6.5378,-6.5759,-6.5479,-6.5303,-6.4486,-6.249,-5.9819,-5.6834,-5.3916,-5.0307,-4.6145,-4.1717,-3.6121,-3.1464,-2.7519,-2.4625,-2.1952,-1.8272,-1.5603,-1.4111,-1.1052,-0.918,-0.8045,-0.6469,-0.4909,-0.3776,-0.2943,-0.2217,-0.1936,-0.1996,-0.2208,-0.2164,-0.2126,-0.2409,-0.2739,-0.297,-0.3609,-0.4877,-0.6699,-0.8809,-1.0929,-1.311,-1.5419,-1.7844,-2.0652,-2.2867,-2.5107,-2.7831,-2.9367,-3.0556,-3.2274,-3.3648,-3.3103,-3.3001,-3.124,-3.065,-2.9576,-2.7111,-2.4284,-2.1796,-2.0582,-1.966,-1.9329,-1.2324,-0.4317,0.2516,0.7856,1.1388,1.491,1.6767,1.7292,1.5535,1.302,0.9871,0.6305,0.3935,0.1453,-0.3543,-0.873,-1.0004,-1.1041,-0.8655,-0.5509,-0.0324,0.4351,0.9002,1.3584,1.7367,1.9981,2.1079,2.1318,2.0934,2.109,2.133,2.1989,2.2992,2.5455,2.7883,3.0991,3.4438,3.818,4.0737,4.2499]}]]